<?xml version="1.0" encoding="UTF-8"?>
<gpx version="1.1" creator="2bulu-scraper" xmlns="http://www.topografix.com/GPX/1/1">
  <metadata><name>乐山夹江天仙关</name><desc>source: 2bulu.com trackId=76326947; exported 2026-09-01T15:58:04.836Z</desc>
    <bounds minlat="29.732294" minlon="103.521278" maxlat="29.754952" maxlon="103.550187"/>
    <link href="https://www.2bulu.com/track/t-Wu7k5bYbn4bp%252FR2KBg5Tzw%253D%253D.htm"><text>2bulu 源页面</text></link>
  </metadata>
  <wpt lat="29.732363" lon="103.546655"><ele>417</ele><name></name></wpt>
  <wpt lat="29.732508" lon="103.545919"><ele>420</ele><name></name></wpt>
  <wpt lat="29.732851" lon="103.544201"><ele>422</ele><name></name></wpt>
  <wpt lat="29.733495" lon="103.54346"><ele>431</ele><name></name></wpt>
  <wpt lat="29.734609" lon="103.542403"><ele>447</ele><name></name></wpt>
  <wpt lat="29.73561" lon="103.539819"><ele>481</ele><name></name></wpt>
  <wpt lat="29.738216" lon="103.538719"><ele>536</ele><name></name></wpt>
  <wpt lat="29.739357" lon="103.535433"><ele>581</ele><name></name></wpt>
  <wpt lat="29.73843" lon="103.529956"><ele>663</ele><name></name></wpt>
  <wpt lat="29.739207" lon="103.529131"><ele>659</ele><name></name></wpt>
  <wpt lat="29.741174" lon="103.52869"><ele>680</ele><name></name></wpt>
  <wpt lat="29.742043" lon="103.529451"><ele>689</ele><name></name></wpt>
  <wpt lat="29.742693" lon="103.528202"><ele>717</ele><name></name></wpt>
  <wpt lat="29.744457" lon="103.526175"><ele>683</ele><name></name></wpt>
  <wpt lat="29.746468" lon="103.526041"><ele>687</ele><name></name></wpt>
  <wpt lat="29.744698" lon="103.525812"><ele>686</ele><name></name></wpt>
  <wpt lat="29.745179" lon="103.526135"><ele>680</ele><name></name></wpt>
  <wpt lat="29.746184" lon="103.525048"><ele>721</ele><name></name></wpt>
  <wpt lat="29.748721" lon="103.523847"><ele>758</ele><name></name></wpt>
  <wpt lat="29.750407" lon="103.523283"><ele>735</ele><name></name></wpt>
  <wpt lat="29.750199" lon="103.521513"><ele>674</ele><name></name></wpt>
  <trk><name>乐山夹江天仙关</name>
      <trkseg>
        <trkpt lat="29.732475" lon="103.546963"><ele>409.93475</ele><time>2025-12-13T20:35:41.000Z</time></trkpt>
        <trkpt lat="29.732466" lon="103.546906"><ele>409.65356</ele><time>2025-12-13T20:35:46.000Z</time></trkpt>
        <trkpt lat="29.73245" lon="103.546854"><ele>410.3296</ele><time>2025-12-13T20:35:51.000Z</time></trkpt>
        <trkpt lat="29.732398" lon="103.54683"><ele>420.07288</ele><time>2025-12-13T20:35:56.000Z</time></trkpt>
        <trkpt lat="29.732379" lon="103.546776"><ele>419.28934</ele><time>2025-12-13T20:36:01.000Z</time></trkpt>
        <trkpt lat="29.732374" lon="103.546714"><ele>417.50314</ele><time>2025-12-13T20:36:05.000Z</time></trkpt>
        <trkpt lat="29.732363" lon="103.546655"><ele>417.4173</ele><time>2025-12-13T20:36:09.000Z</time></trkpt>
        <trkpt lat="29.732318" lon="103.546616"><ele>420.75952</ele><time>2025-12-13T20:36:14.000Z</time></trkpt>
        <trkpt lat="29.732297" lon="103.546563"><ele>423.3584</ele><time>2025-12-13T20:36:19.000Z</time></trkpt>
        <trkpt lat="29.732294" lon="103.546505"><ele>421.90338</ele><time>2025-12-13T20:36:24.000Z</time></trkpt>
        <trkpt lat="29.732315" lon="103.546447"><ele>418.78934</ele><time>2025-12-13T20:36:29.000Z</time></trkpt>
        <trkpt lat="29.732355" lon="103.546409"><ele>418.65195</ele><time>2025-12-13T20:36:35.000Z</time></trkpt>
        <trkpt lat="29.732384" lon="103.546364"><ele>418.6644</ele><time>2025-12-13T20:36:40.000Z</time></trkpt>
        <trkpt lat="29.732396" lon="103.546307"><ele>418.57874</ele><time>2025-12-13T20:36:45.000Z</time></trkpt>
        <trkpt lat="29.732415" lon="103.546252"><ele>418.67758</ele><time>2025-12-13T20:37:42.000Z</time></trkpt>
        <trkpt lat="29.732428" lon="103.546188"><ele>418.53674</ele><time>2025-12-13T20:37:47.000Z</time></trkpt>
        <trkpt lat="29.732451" lon="103.546134"><ele>418.6424</ele><time>2025-12-13T20:37:51.000Z</time></trkpt>
        <trkpt lat="29.732464" lon="103.546077"><ele>419.1588</ele><time>2025-12-13T20:37:56.000Z</time></trkpt>
        <trkpt lat="29.732475" lon="103.546026"><ele>418.76126</ele><time>2025-12-13T20:38:00.000Z</time></trkpt>
        <trkpt lat="29.732491" lon="103.545969"><ele>419.85056</ele><time>2025-12-13T20:38:05.000Z</time></trkpt>
        <trkpt lat="29.732508" lon="103.545919"><ele>419.76755</ele><time>2025-12-13T20:38:14.000Z</time></trkpt>
        <trkpt lat="29.732511" lon="103.545864"><ele>420.17902</ele><time>2025-12-13T20:38:19.000Z</time></trkpt>
        <trkpt lat="29.732525" lon="103.545806"><ele>419.74615</ele><time>2025-12-13T20:38:25.000Z</time></trkpt>
        <trkpt lat="29.73253" lon="103.545751"><ele>419.95258</ele><time>2025-12-13T20:38:30.000Z</time></trkpt>
        <trkpt lat="29.732538" lon="103.545699"><ele>420.79153</ele><time>2025-12-13T20:38:35.000Z</time></trkpt>
        <trkpt lat="29.732544" lon="103.545644"><ele>421.10492</ele><time>2025-12-13T20:38:40.000Z</time></trkpt>
        <trkpt lat="29.73256" lon="103.545592"><ele>421.58066</ele><time>2025-12-13T20:38:45.000Z</time></trkpt>
        <trkpt lat="29.732565" lon="103.545539"><ele>419.46555</ele><time>2025-12-13T20:38:51.000Z</time></trkpt>
        <trkpt lat="29.732564" lon="103.545483"><ele>419.86075</ele><time>2025-12-13T20:39:01.000Z</time></trkpt>
        <trkpt lat="29.732583" lon="103.545426"><ele>419.42554</ele><time>2025-12-13T20:39:05.000Z</time></trkpt>
        <trkpt lat="29.732605" lon="103.545373"><ele>418.90262</ele><time>2025-12-13T20:39:10.000Z</time></trkpt>
        <trkpt lat="29.732623" lon="103.545319"><ele>420.02487</ele><time>2025-12-13T20:39:14.000Z</time></trkpt>
        <trkpt lat="29.732631" lon="103.545265"><ele>420.65738</ele><time>2025-12-13T20:39:19.000Z</time></trkpt>
        <trkpt lat="29.732638" lon="103.545203"><ele>420.50488</ele><time>2025-12-13T20:39:24.000Z</time></trkpt>
        <trkpt lat="29.732646" lon="103.545146"><ele>420.67606</ele><time>2025-12-13T20:39:29.000Z</time></trkpt>
        <trkpt lat="29.73266" lon="103.545086"><ele>420.15207</ele><time>2025-12-13T20:39:34.000Z</time></trkpt>
        <trkpt lat="29.73267" lon="103.54503"><ele>420.60495</ele><time>2025-12-13T20:39:39.000Z</time></trkpt>
        <trkpt lat="29.732685" lon="103.544979"><ele>420.23172</ele><time>2025-12-13T20:39:45.000Z</time></trkpt>
        <trkpt lat="29.7327" lon="103.544918"><ele>420.58444</ele><time>2025-12-13T20:39:51.000Z</time></trkpt>
        <trkpt lat="29.732706" lon="103.544858"><ele>420.38428</ele><time>2025-12-13T20:39:57.000Z</time></trkpt>
        <trkpt lat="29.732708" lon="103.544799"><ele>420.5362</ele><time>2025-12-13T20:40:02.000Z</time></trkpt>
        <trkpt lat="29.732714" lon="103.544746"><ele>420.85623</ele><time>2025-12-13T20:40:07.000Z</time></trkpt>
        <trkpt lat="29.732732" lon="103.544686"><ele>420.57138</ele><time>2025-12-13T20:40:12.000Z</time></trkpt>
        <trkpt lat="29.73274" lon="103.544633"><ele>420.04138</ele><time>2025-12-13T20:40:18.000Z</time></trkpt>
        <trkpt lat="29.73276" lon="103.544583"><ele>419.8559</ele><time>2025-12-13T20:40:25.000Z</time></trkpt>
        <trkpt lat="29.732766" lon="103.544531"><ele>421.00085</ele><time>2025-12-13T20:40:34.000Z</time></trkpt>
        <trkpt lat="29.732778" lon="103.544477"><ele>421.44867</ele><time>2025-12-13T20:40:44.000Z</time></trkpt>
        <trkpt lat="29.732794" lon="103.544418"><ele>420.8881</ele><time>2025-12-13T20:40:52.000Z</time></trkpt>
        <trkpt lat="29.732817" lon="103.544373"><ele>420.6325</ele><time>2025-12-13T20:40:57.000Z</time></trkpt>
        <trkpt lat="29.732825" lon="103.54432"><ele>420.6681</ele><time>2025-12-13T20:41:03.000Z</time></trkpt>
        <trkpt lat="29.732832" lon="103.544259"><ele>421.83148</ele><time>2025-12-13T20:41:09.000Z</time></trkpt>
        <trkpt lat="29.732851" lon="103.544201"><ele>422.1292</ele><time>2025-12-13T20:41:26.000Z</time></trkpt>
        <trkpt lat="29.732866" lon="103.544149"><ele>422.0892</ele><time>2025-12-13T20:41:31.000Z</time></trkpt>
        <trkpt lat="29.732894" lon="103.544108"><ele>422.06332</ele><time>2025-12-13T20:41:37.000Z</time></trkpt>
        <trkpt lat="29.732923" lon="103.544068"><ele>421.71002</ele><time>2025-12-13T20:41:46.000Z</time></trkpt>
        <trkpt lat="29.732963" lon="103.544025"><ele>422.81442</ele><time>2025-12-13T20:42:07.000Z</time></trkpt>
        <trkpt lat="29.733003" lon="103.544"><ele>423.5658</ele><time>2025-12-13T20:42:12.000Z</time></trkpt>
        <trkpt lat="29.733049" lon="103.543981"><ele>424.27377</ele><time>2025-12-13T20:42:18.000Z</time></trkpt>
        <trkpt lat="29.733091" lon="103.543956"><ele>424.7361</ele><time>2025-12-13T20:42:24.000Z</time></trkpt>
        <trkpt lat="29.733131" lon="103.543923"><ele>425.3917</ele><time>2025-12-13T20:42:30.000Z</time></trkpt>
        <trkpt lat="29.733169" lon="103.543892"><ele>425.61172</ele><time>2025-12-13T20:42:36.000Z</time></trkpt>
        <trkpt lat="29.733207" lon="103.543847"><ele>426.2615</ele><time>2025-12-13T20:42:43.000Z</time></trkpt>
        <trkpt lat="29.733234" lon="103.543797"><ele>425.65567</ele><time>2025-12-13T20:42:49.000Z</time></trkpt>
        <trkpt lat="29.733271" lon="103.543757"><ele>426.536</ele><time>2025-12-13T20:42:55.000Z</time></trkpt>
        <trkpt lat="29.73331" lon="103.543721"><ele>426.5109</ele><time>2025-12-13T20:43:01.000Z</time></trkpt>
        <trkpt lat="29.733335" lon="103.543677"><ele>427.51715</ele><time>2025-12-13T20:43:06.000Z</time></trkpt>
        <trkpt lat="29.733364" lon="103.543625"><ele>428.52365</ele><time>2025-12-13T20:43:13.000Z</time></trkpt>
        <trkpt lat="29.733392" lon="103.543576"><ele>428.77542</ele><time>2025-12-13T20:43:21.000Z</time></trkpt>
        <trkpt lat="29.733431" lon="103.54354"><ele>429.23077</ele><time>2025-12-13T20:43:26.000Z</time></trkpt>
        <trkpt lat="29.733463" lon="103.543501"><ele>429.68842</ele><time>2025-12-13T20:43:33.000Z</time></trkpt>
        <trkpt lat="29.733495" lon="103.54346"><ele>430.6436</ele><time>2025-12-13T20:43:38.000Z</time></trkpt>
        <trkpt lat="29.73352" lon="103.543412"><ele>430.98264</ele><time>2025-12-13T20:43:43.000Z</time></trkpt>
        <trkpt lat="29.733555" lon="103.543377"><ele>430.51813</ele><time>2025-12-13T20:43:50.000Z</time></trkpt>
        <trkpt lat="29.733586" lon="103.543324"><ele>431.8769</ele><time>2025-12-13T20:43:56.000Z</time></trkpt>
        <trkpt lat="29.733609" lon="103.543279"><ele>432.26385</ele><time>2025-12-13T20:44:02.000Z</time></trkpt>
        <trkpt lat="29.733638" lon="103.543235"><ele>434.5561</ele><time>2025-12-13T20:44:08.000Z</time></trkpt>
        <trkpt lat="29.733663" lon="103.543184"><ele>435.4275</ele><time>2025-12-13T20:44:14.000Z</time></trkpt>
        <trkpt lat="29.733686" lon="103.543131"><ele>436.2241</ele><time>2025-12-13T20:44:21.000Z</time></trkpt>
        <trkpt lat="29.733704" lon="103.543074"><ele>436.77274</ele><time>2025-12-13T20:44:27.000Z</time></trkpt>
        <trkpt lat="29.733723" lon="103.543027"><ele>438.5501</ele><time>2025-12-13T20:44:33.000Z</time></trkpt>
        <trkpt lat="29.733746" lon="103.54297"><ele>439.36786</ele><time>2025-12-13T20:44:40.000Z</time></trkpt>
        <trkpt lat="29.733766" lon="103.542921"><ele>439.83456</ele><time>2025-12-13T20:44:46.000Z</time></trkpt>
        <trkpt lat="29.733798" lon="103.542876"><ele>441.54404</ele><time>2025-12-13T20:44:52.000Z</time></trkpt>
        <trkpt lat="29.733841" lon="103.542844"><ele>440.7364</ele><time>2025-12-13T20:44:58.000Z</time></trkpt>
        <trkpt lat="29.73388" lon="103.542806"><ele>440.51715</ele><time>2025-12-13T20:45:03.000Z</time></trkpt>
        <trkpt lat="29.73392" lon="103.542763"><ele>441.34854</ele><time>2025-12-13T20:45:09.000Z</time></trkpt>
        <trkpt lat="29.733957" lon="103.54273"><ele>442.20435</ele><time>2025-12-13T20:45:14.000Z</time></trkpt>
        <trkpt lat="29.734004" lon="103.542706"><ele>441.88782</ele><time>2025-12-13T20:45:20.000Z</time></trkpt>
        <trkpt lat="29.734053" lon="103.542688"><ele>441.337</ele><time>2025-12-13T20:45:26.000Z</time></trkpt>
        <trkpt lat="29.734104" lon="103.54268"><ele>440.07928</ele><time>2025-12-13T20:45:32.000Z</time></trkpt>
        <trkpt lat="29.734145" lon="103.542653"><ele>440.53738</ele><time>2025-12-13T20:45:36.000Z</time></trkpt>
        <trkpt lat="29.734187" lon="103.542627"><ele>443.44684</ele><time>2025-12-13T20:46:57.000Z</time></trkpt>
        <trkpt lat="29.734231" lon="103.542597"><ele>442.6835</ele><time>2025-12-13T20:47:03.000Z</time></trkpt>
        <trkpt lat="29.734273" lon="103.542555"><ele>443.16348</ele><time>2025-12-13T20:47:08.000Z</time></trkpt>
        <trkpt lat="29.73431" lon="103.542517"><ele>442.77124</ele><time>2025-12-13T20:47:19.000Z</time></trkpt>
        <trkpt lat="29.73435" lon="103.542491"><ele>442.2632</ele><time>2025-12-13T20:47:23.000Z</time></trkpt>
        <trkpt lat="29.734377" lon="103.542422"><ele>443.70135</ele><time>2025-12-13T20:47:27.000Z</time></trkpt>
        <trkpt lat="29.734419" lon="103.542443"><ele>443.18427</ele><time>2025-12-13T20:47:32.000Z</time></trkpt>
        <trkpt lat="29.734472" lon="103.542429"><ele>444.4079</ele><time>2025-12-13T20:47:38.000Z</time></trkpt>
        <trkpt lat="29.734518" lon="103.542419"><ele>445.07428</ele><time>2025-12-13T20:47:43.000Z</time></trkpt>
        <trkpt lat="29.734566" lon="103.542423"><ele>445.8733</ele><time>2025-12-13T20:47:50.000Z</time></trkpt>
        <trkpt lat="29.734609" lon="103.542403"><ele>447.19797</ele><time>2025-12-13T20:47:57.000Z</time></trkpt>
        <trkpt lat="29.734639" lon="103.54236"><ele>447.90558</ele><time>2025-12-13T20:48:03.000Z</time></trkpt>
        <trkpt lat="29.734634" lon="103.542305"><ele>449.89716</ele><time>2025-12-13T20:48:10.000Z</time></trkpt>
        <trkpt lat="29.734624" lon="103.542249"><ele>449.19598</ele><time>2025-12-13T20:48:16.000Z</time></trkpt>
        <trkpt lat="29.734627" lon="103.542187"><ele>449.62332</ele><time>2025-12-13T20:48:22.000Z</time></trkpt>
        <trkpt lat="29.734604" lon="103.542134"><ele>450.48526</ele><time>2025-12-13T20:48:41.000Z</time></trkpt>
        <trkpt lat="29.7346" lon="103.542079"><ele>450.15778</ele><time>2025-12-13T20:48:45.000Z</time></trkpt>
        <trkpt lat="29.734609" lon="103.542026"><ele>449.5719</ele><time>2025-12-13T20:48:50.000Z</time></trkpt>
        <trkpt lat="29.73463" lon="103.541976"><ele>449.80884</ele><time>2025-12-13T20:48:55.000Z</time></trkpt>
        <trkpt lat="29.734649" lon="103.541927"><ele>450.05814</ele><time>2025-12-13T20:49:09.000Z</time></trkpt>
        <trkpt lat="29.734654" lon="103.54187"><ele>452.26776</ele><time>2025-12-13T20:49:17.000Z</time></trkpt>
        <trkpt lat="29.734648" lon="103.541815"><ele>452.34454</ele><time>2025-12-13T20:49:22.000Z</time></trkpt>
        <trkpt lat="29.734655" lon="103.541759"><ele>452.8473</ele><time>2025-12-13T20:49:28.000Z</time></trkpt>
        <trkpt lat="29.73466" lon="103.541696"><ele>453.02585</ele><time>2025-12-13T20:49:34.000Z</time></trkpt>
        <trkpt lat="29.734637" lon="103.541636"><ele>453.68304</ele><time>2025-12-13T20:49:40.000Z</time></trkpt>
        <trkpt lat="29.734655" lon="103.541585"><ele>453.48077</ele><time>2025-12-13T20:49:45.000Z</time></trkpt>
        <trkpt lat="29.734692" lon="103.54155"><ele>454.0188</ele><time>2025-12-13T20:49:50.000Z</time></trkpt>
        <trkpt lat="29.734709" lon="103.5415"><ele>454.74054</ele><time>2025-12-13T20:49:56.000Z</time></trkpt>
        <trkpt lat="29.734743" lon="103.541465"><ele>456.07455</ele><time>2025-12-13T20:50:02.000Z</time></trkpt>
        <trkpt lat="29.734766" lon="103.541417"><ele>458.31824</ele><time>2025-12-13T20:50:09.000Z</time></trkpt>
        <trkpt lat="29.734797" lon="103.541377"><ele>460.41455</ele><time>2025-12-13T20:50:21.000Z</time></trkpt>
        <trkpt lat="29.734795" lon="103.541324"><ele>461.61682</ele><time>2025-12-13T20:50:27.000Z</time></trkpt>
        <trkpt lat="29.734789" lon="103.541267"><ele>462.11826</ele><time>2025-12-13T20:50:32.000Z</time></trkpt>
        <trkpt lat="29.73479" lon="103.541204"><ele>462.80722</ele><time>2025-12-13T20:50:41.000Z</time></trkpt>
        <trkpt lat="29.734788" lon="103.541148"><ele>462.20618</ele><time>2025-12-13T20:50:49.000Z</time></trkpt>
        <trkpt lat="29.73481" lon="103.541094"><ele>462.08856</ele><time>2025-12-13T20:50:55.000Z</time></trkpt>
        <trkpt lat="29.734836" lon="103.541042"><ele>462.87228</ele><time>2025-12-13T20:51:01.000Z</time></trkpt>
        <trkpt lat="29.734845" lon="103.540989"><ele>463.51263</ele><time>2025-12-13T20:51:06.000Z</time></trkpt>
        <trkpt lat="29.734846" lon="103.54093"><ele>464.33124</ele><time>2025-12-13T20:51:12.000Z</time></trkpt>
        <trkpt lat="29.734858" lon="103.540873"><ele>464.6389</ele><time>2025-12-13T20:51:19.000Z</time></trkpt>
        <trkpt lat="29.734835" lon="103.540816"><ele>465.7693</ele><time>2025-12-13T20:51:26.000Z</time></trkpt>
        <trkpt lat="29.734815" lon="103.540768"><ele>466.29694</ele><time>2025-12-13T20:51:34.000Z</time></trkpt>
        <trkpt lat="29.734788" lon="103.540723"><ele>466.03827</ele><time>2025-12-13T20:51:40.000Z</time></trkpt>
        <trkpt lat="29.734775" lon="103.540669"><ele>466.4988</ele><time>2025-12-13T20:51:46.000Z</time></trkpt>
        <trkpt lat="29.734746" lon="103.540629"><ele>467.39105</ele><time>2025-12-13T20:51:51.000Z</time></trkpt>
        <trkpt lat="29.734747" lon="103.540574"><ele>465.9784</ele><time>2025-12-13T20:51:55.000Z</time></trkpt>
        <trkpt lat="29.734764" lon="103.54052"><ele>465.0586</ele><time>2025-12-13T20:52:02.000Z</time></trkpt>
        <trkpt lat="29.734806" lon="103.5405"><ele>465.55823</ele><time>2025-12-13T20:52:08.000Z</time></trkpt>
        <trkpt lat="29.734857" lon="103.540483"><ele>465.3236</ele><time>2025-12-13T20:52:27.000Z</time></trkpt>
        <trkpt lat="29.73491" lon="103.54046"><ele>466.43945</ele><time>2025-12-13T20:52:36.000Z</time></trkpt>
        <trkpt lat="29.734956" lon="103.540448"><ele>466.6229</ele><time>2025-12-13T20:52:43.000Z</time></trkpt>
        <trkpt lat="29.735006" lon="103.540441"><ele>468.89996</ele><time>2025-12-13T20:52:55.000Z</time></trkpt>
        <trkpt lat="29.735049" lon="103.540417"><ele>470.6557</ele><time>2025-12-13T20:53:02.000Z</time></trkpt>
        <trkpt lat="29.735096" lon="103.540402"><ele>471.76242</ele><time>2025-12-13T20:53:09.000Z</time></trkpt>
        <trkpt lat="29.735141" lon="103.540384"><ele>473.28177</ele><time>2025-12-13T20:53:17.000Z</time></trkpt>
        <trkpt lat="29.735187" lon="103.540369"><ele>473.61078</ele><time>2025-12-13T20:53:25.000Z</time></trkpt>
        <trkpt lat="29.735229" lon="103.540342"><ele>474.25888</ele><time>2025-12-13T20:53:32.000Z</time></trkpt>
        <trkpt lat="29.735265" lon="103.540302"><ele>475.6891</ele><time>2025-12-13T20:53:39.000Z</time></trkpt>
        <trkpt lat="29.735295" lon="103.540252"><ele>475.68976</ele><time>2025-12-13T20:53:45.000Z</time></trkpt>
        <trkpt lat="29.735322" lon="103.540202"><ele>476.32504</ele><time>2025-12-13T20:53:51.000Z</time></trkpt>
        <trkpt lat="29.73533" lon="103.540141"><ele>477.55667</ele><time>2025-12-13T20:53:58.000Z</time></trkpt>
        <trkpt lat="29.735341" lon="103.540086"><ele>478.41965</ele><time>2025-12-13T20:54:03.000Z</time></trkpt>
        <trkpt lat="29.735342" lon="103.54003"><ele>479.34296</ele><time>2025-12-13T20:54:08.000Z</time></trkpt>
        <trkpt lat="29.735365" lon="103.53998"><ele>478.79074</ele><time>2025-12-13T20:54:13.000Z</time></trkpt>
        <trkpt lat="29.735386" lon="103.539933"><ele>478.1035</ele><time>2025-12-13T20:54:18.000Z</time></trkpt>
        <trkpt lat="29.735437" lon="103.539915"><ele>478.83286</ele><time>2025-12-13T20:54:25.000Z</time></trkpt>
        <trkpt lat="29.735486" lon="103.539896"><ele>479.78842</ele><time>2025-12-13T20:54:31.000Z</time></trkpt>
        <trkpt lat="29.735521" lon="103.539861"><ele>479.94193</ele><time>2025-12-13T20:54:37.000Z</time></trkpt>
        <trkpt lat="29.735563" lon="103.539836"><ele>480.34186</ele><time>2025-12-13T20:54:44.000Z</time></trkpt>
        <trkpt lat="29.73561" lon="103.539819"><ele>480.56927</ele><time>2025-12-13T20:54:50.000Z</time></trkpt>
        <trkpt lat="29.735647" lon="103.53979"><ele>481.99603</ele><time>2025-12-13T20:54:55.000Z</time></trkpt>
        <trkpt lat="29.735691" lon="103.539774"><ele>481.30075</ele><time>2025-12-13T20:55:02.000Z</time></trkpt>
        <trkpt lat="29.735722" lon="103.539725"><ele>482.48346</ele><time>2025-12-13T20:55:08.000Z</time></trkpt>
        <trkpt lat="29.735771" lon="103.539721"><ele>483.70813</ele><time>2025-12-13T20:55:18.000Z</time></trkpt>
        <trkpt lat="29.735772" lon="103.539662"><ele>484.02988</ele><time>2025-12-13T20:56:17.000Z</time></trkpt>
        <trkpt lat="29.735819" lon="103.539675"><ele>483.58606</ele><time>2025-12-13T20:56:25.000Z</time></trkpt>
        <trkpt lat="29.735834" lon="103.539617"><ele>484.9795</ele><time>2025-12-13T20:56:58.000Z</time></trkpt>
        <trkpt lat="29.735861" lon="103.539552"><ele>485.84866</ele><time>2025-12-13T20:57:06.000Z</time></trkpt>
        <trkpt lat="29.735867" lon="103.539488"><ele>486.2042</ele><time>2025-12-13T20:57:09.000Z</time></trkpt>
        <trkpt lat="29.735915" lon="103.539552"><ele>486.23355</ele><time>2025-12-13T20:57:11.000Z</time></trkpt>
        <trkpt lat="29.735955" lon="103.539599"><ele>485.91562</ele><time>2025-12-13T20:57:19.000Z</time></trkpt>
        <trkpt lat="29.73597" lon="103.539543"><ele>486.3788</ele><time>2025-12-13T20:57:28.000Z</time></trkpt>
        <trkpt lat="29.736014" lon="103.539513"><ele>489.4513</ele><time>2025-12-13T20:57:46.000Z</time></trkpt>
        <trkpt lat="29.736025" lon="103.539459"><ele>489.45035</ele><time>2025-12-13T20:57:51.000Z</time></trkpt>
        <trkpt lat="29.736073" lon="103.539439"><ele>490.41913</ele><time>2025-12-13T20:57:59.000Z</time></trkpt>
        <trkpt lat="29.736092" lon="103.539384"><ele>490.45053</ele><time>2025-12-13T20:58:04.000Z</time></trkpt>
        <trkpt lat="29.736117" lon="103.539328"><ele>490.5615</ele><time>2025-12-13T20:58:11.000Z</time></trkpt>
        <trkpt lat="29.73616" lon="103.539313"><ele>491.2373</ele><time>2025-12-13T20:58:30.000Z</time></trkpt>
        <trkpt lat="29.736201" lon="103.539289"><ele>492.14282</ele><time>2025-12-13T20:58:36.000Z</time></trkpt>
        <trkpt lat="29.736245" lon="103.539262"><ele>492.6326</ele><time>2025-12-13T20:58:41.000Z</time></trkpt>
        <trkpt lat="29.736255" lon="103.539207"><ele>494.2534</ele><time>2025-12-13T20:59:16.000Z</time></trkpt>
        <trkpt lat="29.73631" lon="103.539189"><ele>494.55905</ele><time>2025-12-13T20:59:22.000Z</time></trkpt>
        <trkpt lat="29.736311" lon="103.539127"><ele>495.4196</ele><time>2025-12-13T20:59:32.000Z</time></trkpt>
        <trkpt lat="29.736328" lon="103.539075"><ele>494.86597</ele><time>2025-12-13T20:59:35.000Z</time></trkpt>
        <trkpt lat="29.736357" lon="103.539027"><ele>495.235</ele><time>2025-12-13T20:59:38.000Z</time></trkpt>
        <trkpt lat="29.736406" lon="103.539019"><ele>495.51987</ele><time>2025-12-13T20:59:42.000Z</time></trkpt>
        <trkpt lat="29.736474" lon="103.539021"><ele>496.47745</ele><time>2025-12-13T20:59:49.000Z</time></trkpt>
        <trkpt lat="29.736515" lon="103.538989"><ele>496.4582</ele><time>2025-12-13T20:59:53.000Z</time></trkpt>
        <trkpt lat="29.736513" lon="103.538934"><ele>497.10803</ele><time>2025-12-13T20:59:55.000Z</time></trkpt>
        <trkpt lat="29.73652" lon="103.538874"><ele>497.80984</ele><time>2025-12-13T20:59:57.000Z</time></trkpt>
        <trkpt lat="29.736562" lon="103.53892"><ele>499.2402</ele><time>2025-12-13T21:00:00.000Z</time></trkpt>
        <trkpt lat="29.736608" lon="103.538895"><ele>501.65823</ele><time>2025-12-13T21:00:10.000Z</time></trkpt>
        <trkpt lat="29.736657" lon="103.538869"><ele>501.30362</ele><time>2025-12-13T21:00:17.000Z</time></trkpt>
        <trkpt lat="29.736698" lon="103.538838"><ele>500.88675</ele><time>2025-12-13T21:00:23.000Z</time></trkpt>
        <trkpt lat="29.736745" lon="103.53882"><ele>500.35138</ele><time>2025-12-13T21:00:29.000Z</time></trkpt>
        <trkpt lat="29.736793" lon="103.538818"><ele>501.1477</ele><time>2025-12-13T21:00:36.000Z</time></trkpt>
        <trkpt lat="29.73685" lon="103.538813"><ele>501.77658</ele><time>2025-12-13T21:00:42.000Z</time></trkpt>
        <trkpt lat="29.736902" lon="103.538805"><ele>502.0625</ele><time>2025-12-13T21:00:49.000Z</time></trkpt>
        <trkpt lat="29.73695" lon="103.538803"><ele>503.17703</ele><time>2025-12-13T21:00:52.000Z</time></trkpt>
        <trkpt lat="29.736995" lon="103.538796"><ele>503.88904</ele><time>2025-12-13T21:00:58.000Z</time></trkpt>
        <trkpt lat="29.737041" lon="103.538792"><ele>505.07776</ele><time>2025-12-13T21:01:03.000Z</time></trkpt>
        <trkpt lat="29.737092" lon="103.5388"><ele>507.16367</ele><time>2025-12-13T21:01:09.000Z</time></trkpt>
        <trkpt lat="29.737139" lon="103.538797"><ele>507.8855</ele><time>2025-12-13T21:01:15.000Z</time></trkpt>
        <trkpt lat="29.737183" lon="103.538773"><ele>505.95084</ele><time>2025-12-13T21:01:38.000Z</time></trkpt>
        <trkpt lat="29.737229" lon="103.538794"><ele>506.9977</ele><time>2025-12-13T21:01:45.000Z</time></trkpt>
        <trkpt lat="29.737275" lon="103.538801"><ele>508.5934</ele><time>2025-12-13T21:01:49.000Z</time></trkpt>
        <trkpt lat="29.737318" lon="103.538822"><ele>508.60114</ele><time>2025-12-13T21:01:56.000Z</time></trkpt>
        <trkpt lat="29.737359" lon="103.53885"><ele>509.47476</ele><time>2025-12-13T21:02:04.000Z</time></trkpt>
        <trkpt lat="29.737398" lon="103.538883"><ele>511.35617</ele><time>2025-12-13T21:02:13.000Z</time></trkpt>
        <trkpt lat="29.737438" lon="103.538907"><ele>512.8525</ele><time>2025-12-13T21:02:22.000Z</time></trkpt>
        <trkpt lat="29.737488" lon="103.538916"><ele>512.81696</ele><time>2025-12-13T21:02:42.000Z</time></trkpt>
        <trkpt lat="29.737536" lon="103.538932"><ele>513.9788</ele><time>2025-12-13T21:02:50.000Z</time></trkpt>
        <trkpt lat="29.737583" lon="103.538943"><ele>517.1253</ele><time>2025-12-13T21:02:58.000Z</time></trkpt>
        <trkpt lat="29.737632" lon="103.538957"><ele>517.93933</ele><time>2025-12-13T21:03:05.000Z</time></trkpt>
        <trkpt lat="29.737686" lon="103.538948"><ele>519.14374</ele><time>2025-12-13T21:03:11.000Z</time></trkpt>
        <trkpt lat="29.737741" lon="103.538955"><ele>520.31116</ele><time>2025-12-13T21:03:20.000Z</time></trkpt>
        <trkpt lat="29.737786" lon="103.538947"><ele>519.28827</ele><time>2025-12-13T21:03:35.000Z</time></trkpt>
        <trkpt lat="29.737831" lon="103.538939"><ele>521.3931</ele><time>2025-12-13T21:03:50.000Z</time></trkpt>
        <trkpt lat="29.737874" lon="103.53892"><ele>524.4401</ele><time>2025-12-13T21:04:11.000Z</time></trkpt>
        <trkpt lat="29.737922" lon="103.538914"><ele>526.0633</ele><time>2025-12-13T21:04:24.000Z</time></trkpt>
        <trkpt lat="29.737971" lon="103.538898"><ele>528.8815</ele><time>2025-12-13T21:04:38.000Z</time></trkpt>
        <trkpt lat="29.738015" lon="103.538884"><ele>529.8028</ele><time>2025-12-13T21:04:50.000Z</time></trkpt>
        <trkpt lat="29.738061" lon="103.538891"><ele>532.72614</ele><time>2025-12-13T21:05:29.000Z</time></trkpt>
        <trkpt lat="29.738106" lon="103.538879"><ele>534.5186</ele><time>2025-12-13T21:05:41.000Z</time></trkpt>
        <trkpt lat="29.738151" lon="103.538905"><ele>536.23016</ele><time>2025-12-13T21:05:49.000Z</time></trkpt>
        <trkpt lat="29.738196" lon="103.538919"><ele>540.4833</ele><time>2025-12-13T21:06:03.000Z</time></trkpt>
        <trkpt lat="29.738229" lon="103.538872"><ele>539.15704</ele><time>2025-12-13T21:06:07.000Z</time></trkpt>
        <trkpt lat="29.738247" lon="103.538819"><ele>536.02136</ele><time>2025-12-13T21:06:12.000Z</time></trkpt>
        <trkpt lat="29.738253" lon="103.538766"><ele>535.5393</ele><time>2025-12-13T21:06:17.000Z</time></trkpt>
        <trkpt lat="29.738216" lon="103.538719"><ele>536.28986</ele><time>2025-12-13T21:06:23.000Z</time></trkpt>
        <trkpt lat="29.738173" lon="103.538702"><ele>536.76483</ele><time>2025-12-13T21:06:30.000Z</time></trkpt>
        <trkpt lat="29.738127" lon="103.538697"><ele>538.28076</ele><time>2025-12-13T21:06:41.000Z</time></trkpt>
        <trkpt lat="29.738082" lon="103.53868"><ele>539.0877</ele><time>2025-12-13T21:06:46.000Z</time></trkpt>
        <trkpt lat="29.738037" lon="103.538669"><ele>539.1486</ele><time>2025-12-13T21:06:52.000Z</time></trkpt>
        <trkpt lat="29.737988" lon="103.538662"><ele>538.9564</ele><time>2025-12-13T21:06:58.000Z</time></trkpt>
        <trkpt lat="29.73795" lon="103.538634"><ele>536.6736</ele><time>2025-12-13T21:07:04.000Z</time></trkpt>
        <trkpt lat="29.737901" lon="103.538612"><ele>536.62427</ele><time>2025-12-13T21:07:10.000Z</time></trkpt>
        <trkpt lat="29.737847" lon="103.5386"><ele>536.633</ele><time>2025-12-13T21:07:16.000Z</time></trkpt>
        <trkpt lat="29.737833" lon="103.538536"><ele>536.94116</ele><time>2025-12-13T21:07:22.000Z</time></trkpt>
        <trkpt lat="29.737833" lon="103.538481"><ele>537.6387</ele><time>2025-12-13T21:07:26.000Z</time></trkpt>
        <trkpt lat="29.737837" lon="103.538423"><ele>539.29565</ele><time>2025-12-13T21:07:31.000Z</time></trkpt>
        <trkpt lat="29.737831" lon="103.538371"><ele>540.0446</ele><time>2025-12-13T21:07:35.000Z</time></trkpt>
        <trkpt lat="29.737829" lon="103.538313"><ele>539.89984</ele><time>2025-12-13T21:08:06.000Z</time></trkpt>
        <trkpt lat="29.737817" lon="103.538257"><ele>540.49445</ele><time>2025-12-13T21:08:11.000Z</time></trkpt>
        <trkpt lat="29.737803" lon="103.538197"><ele>541.78784</ele><time>2025-12-13T21:08:23.000Z</time></trkpt>
        <trkpt lat="29.737817" lon="103.538148"><ele>540.05945</ele><time>2025-12-13T21:08:30.000Z</time></trkpt>
        <trkpt lat="29.7378" lon="103.538088"><ele>542.3936</ele><time>2025-12-13T21:08:40.000Z</time></trkpt>
        <trkpt lat="29.737812" lon="103.538032"><ele>543.04224</ele><time>2025-12-13T21:08:50.000Z</time></trkpt>
        <trkpt lat="29.737824" lon="103.537977"><ele>543.2388</ele><time>2025-12-13T21:08:56.000Z</time></trkpt>
        <trkpt lat="29.737829" lon="103.53792"><ele>543.3763</ele><time>2025-12-13T21:09:01.000Z</time></trkpt>
        <trkpt lat="29.737851" lon="103.537872"><ele>543.89343</ele><time>2025-12-13T21:09:05.000Z</time></trkpt>
        <trkpt lat="29.737862" lon="103.537806"><ele>545.8528</ele><time>2025-12-13T21:09:12.000Z</time></trkpt>
        <trkpt lat="29.737884" lon="103.537759"><ele>546.904</ele><time>2025-12-13T21:09:19.000Z</time></trkpt>
        <trkpt lat="29.737894" lon="103.537688"><ele>547.97614</ele><time>2025-12-13T21:09:27.000Z</time></trkpt>
        <trkpt lat="29.737899" lon="103.53762"><ele>548.7588</ele><time>2025-12-13T21:09:37.000Z</time></trkpt>
        <trkpt lat="29.737925" lon="103.537576"><ele>548.0416</ele><time>2025-12-13T21:09:43.000Z</time></trkpt>
        <trkpt lat="29.737972" lon="103.537572"><ele>549.604</ele><time>2025-12-13T21:09:56.000Z</time></trkpt>
        <trkpt lat="29.738009" lon="103.537537"><ele>552.1306</ele><time>2025-12-13T21:10:08.000Z</time></trkpt>
        <trkpt lat="29.738044" lon="103.537489"><ele>555.0959</ele><time>2025-12-13T21:10:29.000Z</time></trkpt>
        <trkpt lat="29.738088" lon="103.537505"><ele>556.1917</ele><time>2025-12-13T21:10:37.000Z</time></trkpt>
        <trkpt lat="29.738115" lon="103.537462"><ele>552.8933</ele><time>2025-12-13T21:10:52.000Z</time></trkpt>
        <trkpt lat="29.738163" lon="103.537462"><ele>554.169</ele><time>2025-12-13T21:11:06.000Z</time></trkpt>
        <trkpt lat="29.738217" lon="103.537442"><ele>555.89655</ele><time>2025-12-13T21:11:20.000Z</time></trkpt>
        <trkpt lat="29.738241" lon="103.537395"><ele>556.89526</ele><time>2025-12-13T21:11:27.000Z</time></trkpt>
        <trkpt lat="29.738289" lon="103.537384"><ele>557.0085</ele><time>2025-12-13T21:11:35.000Z</time></trkpt>
        <trkpt lat="29.738315" lon="103.537337"><ele>555.18494</ele><time>2025-12-13T21:11:47.000Z</time></trkpt>
        <trkpt lat="29.738355" lon="103.537291"><ele>555.35846</ele><time>2025-12-13T21:11:58.000Z</time></trkpt>
        <trkpt lat="29.738396" lon="103.537255"><ele>555.38043</ele><time>2025-12-13T21:12:05.000Z</time></trkpt>
        <trkpt lat="29.738423" lon="103.537208"><ele>556.54895</ele><time>2025-12-13T21:12:12.000Z</time></trkpt>
        <trkpt lat="29.738447" lon="103.537163"><ele>558.5526</ele><time>2025-12-13T21:12:36.000Z</time></trkpt>
        <trkpt lat="29.73846" lon="103.537111"><ele>560.1877</ele><time>2025-12-13T21:12:49.000Z</time></trkpt>
        <trkpt lat="29.738492" lon="103.537068"><ele>560.27893</ele><time>2025-12-13T21:12:57.000Z</time></trkpt>
        <trkpt lat="29.738538" lon="103.537047"><ele>561.2341</ele><time>2025-12-13T21:13:08.000Z</time></trkpt>
        <trkpt lat="29.738558" lon="103.536991"><ele>563.1817</ele><time>2025-12-13T21:13:22.000Z</time></trkpt>
        <trkpt lat="29.738576" lon="103.536943"><ele>564.62317</ele><time>2025-12-13T21:13:29.000Z</time></trkpt>
        <trkpt lat="29.738624" lon="103.536924"><ele>566.6845</ele><time>2025-12-13T21:13:47.000Z</time></trkpt>
        <trkpt lat="29.738648" lon="103.536868"><ele>567.43854</ele><time>2025-12-13T21:13:58.000Z</time></trkpt>
        <trkpt lat="29.738677" lon="103.536823"><ele>567.16425</ele><time>2025-12-13T21:14:16.000Z</time></trkpt>
        <trkpt lat="29.738691" lon="103.536774"><ele>566.6587</ele><time>2025-12-13T21:14:23.000Z</time></trkpt>
        <trkpt lat="29.738748" lon="103.536807"><ele>566.4956</ele><time>2025-12-13T21:14:31.000Z</time></trkpt>
        <trkpt lat="29.738734" lon="103.536754"><ele>567.89844</ele><time>2025-12-13T21:14:45.000Z</time></trkpt>
        <trkpt lat="29.738759" lon="103.536707"><ele>568.25037</ele><time>2025-12-13T21:14:57.000Z</time></trkpt>
        <trkpt lat="29.738774" lon="103.536651"><ele>571.35767</ele><time>2025-12-13T21:15:14.000Z</time></trkpt>
        <trkpt lat="29.738797" lon="103.536607"><ele>573.53516</ele><time>2025-12-13T21:15:26.000Z</time></trkpt>
        <trkpt lat="29.738818" lon="103.536555"><ele>573.5484</ele><time>2025-12-13T21:15:36.000Z</time></trkpt>
        <trkpt lat="29.738843" lon="103.536509"><ele>572.1746</ele><time>2025-12-13T21:15:46.000Z</time></trkpt>
        <trkpt lat="29.738876" lon="103.53647"><ele>570.8155</ele><time>2025-12-13T21:15:57.000Z</time></trkpt>
        <trkpt lat="29.738922" lon="103.536476"><ele>570.71356</ele><time>2025-12-13T21:16:14.000Z</time></trkpt>
        <trkpt lat="29.738938" lon="103.53642"><ele>570.7064</ele><time>2025-12-13T21:16:25.000Z</time></trkpt>
        <trkpt lat="29.738989" lon="103.536406"><ele>571.9346</ele><time>2025-12-13T21:16:40.000Z</time></trkpt>
        <trkpt lat="29.739027" lon="103.536377"><ele>569.4952</ele><time>2025-12-13T21:16:55.000Z</time></trkpt>
        <trkpt lat="29.739055" lon="103.536333"><ele>568.833</ele><time>2025-12-13T21:17:10.000Z</time></trkpt>
        <trkpt lat="29.739078" lon="103.536282"><ele>569.3481</ele><time>2025-12-13T21:17:42.000Z</time></trkpt>
        <trkpt lat="29.739102" lon="103.536238"><ele>568.1464</ele><time>2025-12-13T21:17:55.000Z</time></trkpt>
        <trkpt lat="29.739128" lon="103.536194"><ele>569.9226</ele><time>2025-12-13T21:18:15.000Z</time></trkpt>
        <trkpt lat="29.739166" lon="103.536158"><ele>570.35596</ele><time>2025-12-13T21:18:24.000Z</time></trkpt>
        <trkpt lat="29.739208" lon="103.536124"><ele>570.8</ele><time>2025-12-13T21:18:44.000Z</time></trkpt>
        <trkpt lat="29.739245" lon="103.536094"><ele>571.8527</ele><time>2025-12-13T21:18:56.000Z</time></trkpt>
        <trkpt lat="29.739279" lon="103.536055"><ele>574.1191</ele><time>2025-12-13T21:19:13.000Z</time></trkpt>
        <trkpt lat="29.739312" lon="103.536018"><ele>575.07336</ele><time>2025-12-13T21:19:24.000Z</time></trkpt>
        <trkpt lat="29.739353" lon="103.535986"><ele>576.01154</ele><time>2025-12-13T21:19:37.000Z</time></trkpt>
        <trkpt lat="29.739392" lon="103.53595"><ele>574.97845</ele><time>2025-12-13T21:19:47.000Z</time></trkpt>
        <trkpt lat="29.739437" lon="103.535914"><ele>575.4353</ele><time>2025-12-13T21:19:53.000Z</time></trkpt>
        <trkpt lat="29.739485" lon="103.535918"><ele>575.87195</ele><time>2025-12-13T21:20:02.000Z</time></trkpt>
        <trkpt lat="29.739521" lon="103.535884"><ele>576.5536</ele><time>2025-12-13T21:20:10.000Z</time></trkpt>
        <trkpt lat="29.73952" lon="103.535828"><ele>576.24945</ele><time>2025-12-13T21:20:16.000Z</time></trkpt>
        <trkpt lat="29.739502" lon="103.535778"><ele>577.10956</ele><time>2025-12-13T21:20:22.000Z</time></trkpt>
        <trkpt lat="29.739487" lon="103.535729"><ele>578.52924</ele><time>2025-12-13T21:20:30.000Z</time></trkpt>
        <trkpt lat="29.739457" lon="103.535685"><ele>578.77783</ele><time>2025-12-13T21:20:40.000Z</time></trkpt>
        <trkpt lat="29.739434" lon="103.535637"><ele>578.7093</ele><time>2025-12-13T21:20:48.000Z</time></trkpt>
        <trkpt lat="29.739412" lon="103.535589"><ele>577.8933</ele><time>2025-12-13T21:20:57.000Z</time></trkpt>
        <trkpt lat="29.739395" lon="103.535538"><ele>579.8578</ele><time>2025-12-13T21:21:08.000Z</time></trkpt>
        <trkpt lat="29.73937" lon="103.535488"><ele>579.523</ele><time>2025-12-13T21:21:17.000Z</time></trkpt>
        <trkpt lat="29.739357" lon="103.535433"><ele>580.536</ele><time>2025-12-13T21:21:26.000Z</time></trkpt>
        <trkpt lat="29.739335" lon="103.535387"><ele>580.9886</ele><time>2025-12-13T21:21:33.000Z</time></trkpt>
        <trkpt lat="29.739337" lon="103.535331"><ele>581.25586</ele><time>2025-12-13T21:21:41.000Z</time></trkpt>
        <trkpt lat="29.739344" lon="103.535275"><ele>583.11993</ele><time>2025-12-13T21:22:04.000Z</time></trkpt>
        <trkpt lat="29.739372" lon="103.535233"><ele>583.94293</ele><time>2025-12-13T21:22:11.000Z</time></trkpt>
        <trkpt lat="29.739411" lon="103.535203"><ele>584.7106</ele><time>2025-12-13T21:22:20.000Z</time></trkpt>
        <trkpt lat="29.739451" lon="103.535178"><ele>582.29004</ele><time>2025-12-13T21:22:26.000Z</time></trkpt>
        <trkpt lat="29.739493" lon="103.535156"><ele>584.1225</ele><time>2025-12-13T21:22:34.000Z</time></trkpt>
        <trkpt lat="29.73954" lon="103.535152"><ele>584.48505</ele><time>2025-12-13T21:22:42.000Z</time></trkpt>
        <trkpt lat="29.739589" lon="103.535149"><ele>584.326</ele><time>2025-12-13T21:22:51.000Z</time></trkpt>
        <trkpt lat="29.739633" lon="103.535164"><ele>584.2066</ele><time>2025-12-13T21:22:59.000Z</time></trkpt>
        <trkpt lat="29.739681" lon="103.535181"><ele>583.54004</ele><time>2025-12-13T21:23:06.000Z</time></trkpt>
        <trkpt lat="29.739726" lon="103.535173"><ele>584.1498</ele><time>2025-12-13T21:23:15.000Z</time></trkpt>
        <trkpt lat="29.739775" lon="103.535183"><ele>585.6482</ele><time>2025-12-13T21:23:24.000Z</time></trkpt>
        <trkpt lat="29.739826" lon="103.535181"><ele>586.35443</ele><time>2025-12-13T21:23:35.000Z</time></trkpt>
        <trkpt lat="29.739875" lon="103.535175"><ele>587.66</ele><time>2025-12-13T21:23:43.000Z</time></trkpt>
        <trkpt lat="29.739922" lon="103.535155"><ele>589.79755</ele><time>2025-12-13T21:23:54.000Z</time></trkpt>
        <trkpt lat="29.739952" lon="103.535115"><ele>591.06134</ele><time>2025-12-13T21:24:22.000Z</time></trkpt>
        <trkpt lat="29.740012" lon="103.535125"><ele>590.75616</ele><time>2025-12-13T21:24:28.000Z</time></trkpt>
        <trkpt lat="29.740059" lon="103.535124"><ele>593.0465</ele><time>2025-12-13T21:24:48.000Z</time></trkpt>
        <trkpt lat="29.740099" lon="103.535159"><ele>592.5693</ele><time>2025-12-13T21:25:09.000Z</time></trkpt>
        <trkpt lat="29.740128" lon="103.535118"><ele>597.3499</ele><time>2025-12-13T21:25:25.000Z</time></trkpt>
        <trkpt lat="29.740151" lon="103.535068"><ele>598.89154</ele><time>2025-12-13T21:25:42.000Z</time></trkpt>
        <trkpt lat="29.740135" lon="103.535012"><ele>603.5298</ele><time>2025-12-13T21:25:58.000Z</time></trkpt>
        <trkpt lat="29.740105" lon="103.534966"><ele>601.4819</ele><time>2025-12-13T21:26:03.000Z</time></trkpt>
        <trkpt lat="29.740065" lon="103.534902"><ele>599.60474</ele><time>2025-12-13T21:26:13.000Z</time></trkpt>
        <trkpt lat="29.74002" lon="103.534885"><ele>599.5945</ele><time>2025-12-13T21:26:39.000Z</time></trkpt>
        <trkpt lat="29.739984" lon="103.534851"><ele>599.9862</ele><time>2025-12-13T21:26:50.000Z</time></trkpt>
        <trkpt lat="29.739944" lon="103.534821"><ele>602.52234</ele><time>2025-12-13T21:27:04.000Z</time></trkpt>
        <trkpt lat="29.739895" lon="103.534797"><ele>602.78107</ele><time>2025-12-13T21:27:14.000Z</time></trkpt>
        <trkpt lat="29.739831" lon="103.534778"><ele>601.2736</ele><time>2025-12-13T21:27:26.000Z</time></trkpt>
        <trkpt lat="29.739782" lon="103.534752"><ele>599.8055</ele><time>2025-12-13T21:27:32.000Z</time></trkpt>
        <trkpt lat="29.739743" lon="103.534712"><ele>598.5667</ele><time>2025-12-13T21:27:39.000Z</time></trkpt>
        <trkpt lat="29.739709" lon="103.534673"><ele>598.5411</ele><time>2025-12-13T21:27:44.000Z</time></trkpt>
        <trkpt lat="29.739678" lon="103.534633"><ele>599.13086</ele><time>2025-12-13T21:27:49.000Z</time></trkpt>
        <trkpt lat="29.739654" lon="103.534581"><ele>599.9586</ele><time>2025-12-13T21:27:55.000Z</time></trkpt>
        <trkpt lat="29.739632" lon="103.534531"><ele>600.1356</ele><time>2025-12-13T21:28:03.000Z</time></trkpt>
        <trkpt lat="29.739596" lon="103.534494"><ele>601.5165</ele><time>2025-12-13T21:28:10.000Z</time></trkpt>
        <trkpt lat="29.739571" lon="103.534446"><ele>601.68164</ele><time>2025-12-13T21:28:19.000Z</time></trkpt>
        <trkpt lat="29.739536" lon="103.534413"><ele>601.4253</ele><time>2025-12-13T21:28:26.000Z</time></trkpt>
        <trkpt lat="29.73949" lon="103.534381"><ele>601.3255</ele><time>2025-12-13T21:28:33.000Z</time></trkpt>
        <trkpt lat="29.73946" lon="103.534342"><ele>602.1766</ele><time>2025-12-13T21:28:47.000Z</time></trkpt>
        <trkpt lat="29.739414" lon="103.534317"><ele>601.5856</ele><time>2025-12-13T21:28:55.000Z</time></trkpt>
        <trkpt lat="29.739384" lon="103.534279"><ele>602.36346</ele><time>2025-12-13T21:29:15.000Z</time></trkpt>
        <trkpt lat="29.739348" lon="103.534236"><ele>603.88367</ele><time>2025-12-13T21:29:23.000Z</time></trkpt>
        <trkpt lat="29.739319" lon="103.53419"><ele>604.3025</ele><time>2025-12-13T21:29:30.000Z</time></trkpt>
        <trkpt lat="29.73929" lon="103.534149"><ele>603.3237</ele><time>2025-12-13T21:29:36.000Z</time></trkpt>
        <trkpt lat="29.739272" lon="103.534096"><ele>604.72723</ele><time>2025-12-13T21:29:45.000Z</time></trkpt>
        <trkpt lat="29.739239" lon="103.534054"><ele>605.54694</ele><time>2025-12-13T21:29:52.000Z</time></trkpt>
        <trkpt lat="29.73921" lon="103.534013"><ele>606.03265</ele><time>2025-12-13T21:29:59.000Z</time></trkpt>
        <trkpt lat="29.739179" lon="103.533972"><ele>605.4444</ele><time>2025-12-13T21:30:07.000Z</time></trkpt>
        <trkpt lat="29.739151" lon="103.533927"><ele>605.42035</ele><time>2025-12-13T21:30:23.000Z</time></trkpt>
        <trkpt lat="29.739124" lon="103.533883"><ele>605.04443</ele><time>2025-12-13T21:30:33.000Z</time></trkpt>
        <trkpt lat="29.739111" lon="103.533829"><ele>606.10333</ele><time>2025-12-13T21:30:44.000Z</time></trkpt>
        <trkpt lat="29.739082" lon="103.533787"><ele>606.8742</ele><time>2025-12-13T21:30:49.000Z</time></trkpt>
        <trkpt lat="29.739052" lon="103.533746"><ele>608.1118</ele><time>2025-12-13T21:30:54.000Z</time></trkpt>
        <trkpt lat="29.739019" lon="103.533709"><ele>609.5458</ele><time>2025-12-13T21:31:00.000Z</time></trkpt>
        <trkpt lat="29.738977" lon="103.533684"><ele>609.7624</ele><time>2025-12-13T21:31:06.000Z</time></trkpt>
        <trkpt lat="29.73894" lon="103.533653"><ele>610.1879</ele><time>2025-12-13T21:31:13.000Z</time></trkpt>
        <trkpt lat="29.7389" lon="103.53362"><ele>611.2989</ele><time>2025-12-13T21:31:20.000Z</time></trkpt>
        <trkpt lat="29.738879" lon="103.533567"><ele>610.842</ele><time>2025-12-13T21:31:33.000Z</time></trkpt>
        <trkpt lat="29.738845" lon="103.533532"><ele>610.155</ele><time>2025-12-13T21:31:39.000Z</time></trkpt>
        <trkpt lat="29.738815" lon="103.533488"><ele>610.37573</ele><time>2025-12-13T21:31:48.000Z</time></trkpt>
        <trkpt lat="29.738775" lon="103.533456"><ele>613.40204</ele><time>2025-12-13T21:32:01.000Z</time></trkpt>
        <trkpt lat="29.738761" lon="103.533395"><ele>612.5034</ele><time>2025-12-13T21:32:12.000Z</time></trkpt>
        <trkpt lat="29.738714" lon="103.533378"><ele>611.9539</ele><time>2025-12-13T21:32:22.000Z</time></trkpt>
        <trkpt lat="29.73867" lon="103.533366"><ele>610.7181</ele><time>2025-12-13T21:32:30.000Z</time></trkpt>
        <trkpt lat="29.738625" lon="103.533345"><ele>610.47205</ele><time>2025-12-13T21:32:38.000Z</time></trkpt>
        <trkpt lat="29.738589" lon="103.533312"><ele>613.8214</ele><time>2025-12-13T21:32:45.000Z</time></trkpt>
        <trkpt lat="29.738556" lon="103.533277"><ele>617.31506</ele><time>2025-12-13T21:33:20.000Z</time></trkpt>
        <trkpt lat="29.738515" lon="103.533253"><ele>619.9396</ele><time>2025-12-13T21:33:48.000Z</time></trkpt>
        <trkpt lat="29.738482" lon="103.533216"><ele>620.18805</ele><time>2025-12-13T21:34:00.000Z</time></trkpt>
        <trkpt lat="29.738455" lon="103.533174"><ele>621.1796</ele><time>2025-12-13T21:34:11.000Z</time></trkpt>
        <trkpt lat="29.738419" lon="103.533142"><ele>623.3078</ele><time>2025-12-13T21:34:24.000Z</time></trkpt>
        <trkpt lat="29.738388" lon="103.533099"><ele>624.7991</ele><time>2025-12-13T21:34:42.000Z</time></trkpt>
        <trkpt lat="29.738352" lon="103.533064"><ele>625.9228</ele><time>2025-12-13T21:34:56.000Z</time></trkpt>
        <trkpt lat="29.738318" lon="103.533021"><ele>626.04565</ele><time>2025-12-13T21:35:13.000Z</time></trkpt>
        <trkpt lat="29.738277" lon="103.532986"><ele>627.98303</ele><time>2025-12-13T21:35:21.000Z</time></trkpt>
        <trkpt lat="29.738235" lon="103.532951"><ele>627.956</ele><time>2025-12-13T21:35:29.000Z</time></trkpt>
        <trkpt lat="29.73821" lon="103.532906"><ele>628.0019</ele><time>2025-12-13T21:35:36.000Z</time></trkpt>
        <trkpt lat="29.738188" lon="103.532858"><ele>626.95526</ele><time>2025-12-13T21:35:49.000Z</time></trkpt>
        <trkpt lat="29.738168" lon="103.532803"><ele>627.04816</ele><time>2025-12-13T21:36:19.000Z</time></trkpt>
        <trkpt lat="29.738148" lon="103.532756"><ele>627.6899</ele><time>2025-12-13T21:36:24.000Z</time></trkpt>
        <trkpt lat="29.738138" lon="103.532705"><ele>627.53156</ele><time>2025-12-13T21:36:31.000Z</time></trkpt>
        <trkpt lat="29.738122" lon="103.532653"><ele>627.7102</ele><time>2025-12-13T21:36:46.000Z</time></trkpt>
        <trkpt lat="29.738097" lon="103.5326"><ele>628.10834</ele><time>2025-12-13T21:36:53.000Z</time></trkpt>
        <trkpt lat="29.738066" lon="103.532555"><ele>628.734</ele><time>2025-12-13T21:36:59.000Z</time></trkpt>
        <trkpt lat="29.738046" lon="103.532506"><ele>629.8131</ele><time>2025-12-13T21:37:03.000Z</time></trkpt>
        <trkpt lat="29.738017" lon="103.532463"><ele>631.09906</ele><time>2025-12-13T21:37:10.000Z</time></trkpt>
        <trkpt lat="29.73799" lon="103.532419"><ele>631.43964</ele><time>2025-12-13T21:37:17.000Z</time></trkpt>
        <trkpt lat="29.737938" lon="103.532406"><ele>631.3128</ele><time>2025-12-13T21:37:23.000Z</time></trkpt>
        <trkpt lat="29.737892" lon="103.532402"><ele>631.0678</ele><time>2025-12-13T21:37:28.000Z</time></trkpt>
        <trkpt lat="29.737844" lon="103.532374"><ele>630.07947</ele><time>2025-12-13T21:37:34.000Z</time></trkpt>
        <trkpt lat="29.737809" lon="103.532339"><ele>629.0341</ele><time>2025-12-13T21:37:40.000Z</time></trkpt>
        <trkpt lat="29.73779" lon="103.532286"><ele>628.0013</ele><time>2025-12-13T21:38:03.000Z</time></trkpt>
        <trkpt lat="29.737776" lon="103.532235"><ele>627.4832</ele><time>2025-12-13T21:38:14.000Z</time></trkpt>
        <trkpt lat="29.737784" lon="103.532182"><ele>630.55084</ele><time>2025-12-13T21:38:28.000Z</time></trkpt>
        <trkpt lat="29.737809" lon="103.532134"><ele>634.0599</ele><time>2025-12-13T21:38:42.000Z</time></trkpt>
        <trkpt lat="29.737837" lon="103.532087"><ele>636.1031</ele><time>2025-12-13T21:38:50.000Z</time></trkpt>
        <trkpt lat="29.737873" lon="103.532056"><ele>636.8461</ele><time>2025-12-13T21:38:58.000Z</time></trkpt>
        <trkpt lat="29.737907" lon="103.532007"><ele>637.7401</ele><time>2025-12-13T21:39:06.000Z</time></trkpt>
        <trkpt lat="29.737931" lon="103.531963"><ele>637.93097</ele><time>2025-12-13T21:39:13.000Z</time></trkpt>
        <trkpt lat="29.737947" lon="103.531902"><ele>637.68695</ele><time>2025-12-13T21:39:21.000Z</time></trkpt>
        <trkpt lat="29.737956" lon="103.531849"><ele>638.15393</ele><time>2025-12-13T21:39:28.000Z</time></trkpt>
        <trkpt lat="29.737959" lon="103.531797"><ele>638.3657</ele><time>2025-12-13T21:39:33.000Z</time></trkpt>
        <trkpt lat="29.737972" lon="103.531742"><ele>640.6634</ele><time>2025-12-13T21:39:39.000Z</time></trkpt>
        <trkpt lat="29.737996" lon="103.531693"><ele>640.952</ele><time>2025-12-13T21:39:44.000Z</time></trkpt>
        <trkpt lat="29.738025" lon="103.531647"><ele>643.2746</ele><time>2025-12-13T21:39:52.000Z</time></trkpt>
        <trkpt lat="29.738064" lon="103.53162"><ele>643.8118</ele><time>2025-12-13T21:39:58.000Z</time></trkpt>
        <trkpt lat="29.738113" lon="103.531632"><ele>644.64685</ele><time>2025-12-13T21:40:05.000Z</time></trkpt>
        <trkpt lat="29.73816" lon="103.531636"><ele>641.9566</ele><time>2025-12-13T21:40:14.000Z</time></trkpt>
        <trkpt lat="29.738208" lon="103.531637"><ele>638.1057</ele><time>2025-12-13T21:40:24.000Z</time></trkpt>
        <trkpt lat="29.738264" lon="103.531624"><ele>637.4916</ele><time>2025-12-13T21:40:30.000Z</time></trkpt>
        <trkpt lat="29.738307" lon="103.531597"><ele>637.1313</ele><time>2025-12-13T21:40:35.000Z</time></trkpt>
        <trkpt lat="29.738346" lon="103.531564"><ele>637.65857</ele><time>2025-12-13T21:40:42.000Z</time></trkpt>
        <trkpt lat="29.738387" lon="103.531541"><ele>640.30145</ele><time>2025-12-13T21:40:53.000Z</time></trkpt>
        <trkpt lat="29.738426" lon="103.531507"><ele>639.8414</ele><time>2025-12-13T21:41:03.000Z</time></trkpt>
        <trkpt lat="29.738467" lon="103.531466"><ele>640.0051</ele><time>2025-12-13T21:41:10.000Z</time></trkpt>
        <trkpt lat="29.738493" lon="103.531415"><ele>642.0102</ele><time>2025-12-13T21:41:17.000Z</time></trkpt>
        <trkpt lat="29.738498" lon="103.531358"><ele>642.9172</ele><time>2025-12-13T21:41:23.000Z</time></trkpt>
        <trkpt lat="29.738508" lon="103.531307"><ele>642.2135</ele><time>2025-12-13T21:41:31.000Z</time></trkpt>
        <trkpt lat="29.738503" lon="103.531251"><ele>640.06116</ele><time>2025-12-13T21:41:39.000Z</time></trkpt>
        <trkpt lat="29.738485" lon="103.531201"><ele>640.40173</ele><time>2025-12-13T21:41:43.000Z</time></trkpt>
        <trkpt lat="29.738454" lon="103.53116"><ele>638.7924</ele><time>2025-12-13T21:41:49.000Z</time></trkpt>
        <trkpt lat="29.738429" lon="103.53111"><ele>638.4524</ele><time>2025-12-13T21:41:54.000Z</time></trkpt>
        <trkpt lat="29.738407" lon="103.531059"><ele>638.8357</ele><time>2025-12-13T21:42:00.000Z</time></trkpt>
        <trkpt lat="29.738385" lon="103.531012"><ele>639.56244</ele><time>2025-12-13T21:42:04.000Z</time></trkpt>
        <trkpt lat="29.738363" lon="103.530965"><ele>640.4849</ele><time>2025-12-13T21:42:13.000Z</time></trkpt>
        <trkpt lat="29.73833" lon="103.530917"><ele>642.6498</ele><time>2025-12-13T21:42:21.000Z</time></trkpt>
        <trkpt lat="29.738312" lon="103.53087"><ele>644.8057</ele><time>2025-12-13T21:42:27.000Z</time></trkpt>
        <trkpt lat="29.738312" lon="103.530816"><ele>644.8702</ele><time>2025-12-13T21:42:35.000Z</time></trkpt>
        <trkpt lat="29.738315" lon="103.530756"><ele>644.026</ele><time>2025-12-13T21:42:46.000Z</time></trkpt>
        <trkpt lat="29.73832" lon="103.5307"><ele>642.56995</ele><time>2025-12-13T21:42:54.000Z</time></trkpt>
        <trkpt lat="29.738329" lon="103.530646"><ele>641.0666</ele><time>2025-12-13T21:43:04.000Z</time></trkpt>
        <trkpt lat="29.738339" lon="103.530594"><ele>644.60846</ele><time>2025-12-13T21:43:12.000Z</time></trkpt>
        <trkpt lat="29.738352" lon="103.530541"><ele>647.3423</ele><time>2025-12-13T21:43:17.000Z</time></trkpt>
        <trkpt lat="29.738363" lon="103.530489"><ele>649.96375</ele><time>2025-12-13T21:43:24.000Z</time></trkpt>
        <trkpt lat="29.738386" lon="103.530439"><ele>650.8708</ele><time>2025-12-13T21:43:32.000Z</time></trkpt>
        <trkpt lat="29.738414" lon="103.530397"><ele>652.7009</ele><time>2025-12-13T21:43:41.000Z</time></trkpt>
        <trkpt lat="29.738435" lon="103.530347"><ele>654.72864</ele><time>2025-12-13T21:43:50.000Z</time></trkpt>
        <trkpt lat="29.73844" lon="103.530294"><ele>655.9043</ele><time>2025-12-13T21:43:58.000Z</time></trkpt>
        <trkpt lat="29.738443" lon="103.530236"><ele>658.30133</ele><time>2025-12-13T21:44:09.000Z</time></trkpt>
        <trkpt lat="29.738439" lon="103.530181"><ele>660.34564</ele><time>2025-12-13T21:44:20.000Z</time></trkpt>
        <trkpt lat="29.738432" lon="103.530125"><ele>662.0742</ele><time>2025-12-13T21:44:32.000Z</time></trkpt>
        <trkpt lat="29.738433" lon="103.530069"><ele>662.7006</ele><time>2025-12-13T21:44:40.000Z</time></trkpt>
        <trkpt lat="29.738423" lon="103.530013"><ele>663.9572</ele><time>2025-12-13T21:44:49.000Z</time></trkpt>
        <trkpt lat="29.73843" lon="103.529956"><ele>662.63336</ele><time>2025-12-13T21:45:01.000Z</time></trkpt>
        <trkpt lat="29.738458" lon="103.529911"><ele>659.8011</ele><time>2025-12-13T21:45:23.000Z</time></trkpt>
        <trkpt lat="29.738436" lon="103.529858"><ele>660.6352</ele><time>2025-12-13T21:45:31.000Z</time></trkpt>
        <trkpt lat="29.738439" lon="103.529804"><ele>657.06055</ele><time>2025-12-13T21:45:38.000Z</time></trkpt>
        <trkpt lat="29.738453" lon="103.529746"><ele>654.86096</ele><time>2025-12-13T21:45:47.000Z</time></trkpt>
        <trkpt lat="29.738472" lon="103.529699"><ele>657.07684</ele><time>2025-12-13T21:45:53.000Z</time></trkpt>
        <trkpt lat="29.738502" lon="103.529652"><ele>659.5018</ele><time>2025-12-13T21:46:03.000Z</time></trkpt>
        <trkpt lat="29.738538" lon="103.529612"><ele>662.0787</ele><time>2025-12-13T21:46:10.000Z</time></trkpt>
        <trkpt lat="29.738565" lon="103.52957"><ele>663.8862</ele><time>2025-12-13T21:46:17.000Z</time></trkpt>
        <trkpt lat="29.738598" lon="103.529533"><ele>663.69543</ele><time>2025-12-13T21:46:29.000Z</time></trkpt>
        <trkpt lat="29.738637" lon="103.529495"><ele>662.6511</ele><time>2025-12-13T21:46:34.000Z</time></trkpt>
        <trkpt lat="29.738679" lon="103.52945"><ele>659.84973</ele><time>2025-12-13T21:47:24.000Z</time></trkpt>
        <trkpt lat="29.738725" lon="103.529414"><ele>659.4349</ele><time>2025-12-13T21:47:30.000Z</time></trkpt>
        <trkpt lat="29.738788" lon="103.529409"><ele>657.48517</ele><time>2025-12-13T21:47:40.000Z</time></trkpt>
        <trkpt lat="29.738825" lon="103.529377"><ele>659.04407</ele><time>2025-12-13T21:47:45.000Z</time></trkpt>
        <trkpt lat="29.738871" lon="103.529377"><ele>661.30554</ele><time>2025-12-13T21:47:52.000Z</time></trkpt>
        <trkpt lat="29.73891" lon="103.529405"><ele>659.88696</ele><time>2025-12-13T21:48:01.000Z</time></trkpt>
        <trkpt lat="29.738962" lon="103.529399"><ele>657.9152</ele><time>2025-12-13T21:48:09.000Z</time></trkpt>
        <trkpt lat="29.738997" lon="103.52936"><ele>657.2149</ele><time>2025-12-13T21:48:14.000Z</time></trkpt>
        <trkpt lat="29.739044" lon="103.52934"><ele>656.9526</ele><time>2025-12-13T21:48:18.000Z</time></trkpt>
        <trkpt lat="29.739079" lon="103.529305"><ele>656.64905</ele><time>2025-12-13T21:48:22.000Z</time></trkpt>
        <trkpt lat="29.739119" lon="103.529269"><ele>656.8457</ele><time>2025-12-13T21:48:27.000Z</time></trkpt>
        <trkpt lat="29.739149" lon="103.52922"><ele>657.01337</ele><time>2025-12-13T21:48:33.000Z</time></trkpt>
        <trkpt lat="29.739169" lon="103.529173"><ele>658.1457</ele><time>2025-12-13T21:48:40.000Z</time></trkpt>
        <trkpt lat="29.739207" lon="103.529131"><ele>658.58466</ele><time>2025-12-13T21:48:46.000Z</time></trkpt>
        <trkpt lat="29.739251" lon="103.529112"><ele>660.04364</ele><time>2025-12-13T21:48:51.000Z</time></trkpt>
        <trkpt lat="29.739272" lon="103.529066"><ele>661.8054</ele><time>2025-12-13T21:49:00.000Z</time></trkpt>
        <trkpt lat="29.739288" lon="103.529005"><ele>663.82385</ele><time>2025-12-13T21:49:09.000Z</time></trkpt>
        <trkpt lat="29.73935" lon="103.529009"><ele>663.7795</ele><time>2025-12-13T21:49:14.000Z</time></trkpt>
        <trkpt lat="29.739394" lon="103.528992"><ele>664.5118</ele><time>2025-12-13T21:49:18.000Z</time></trkpt>
        <trkpt lat="29.739444" lon="103.529008"><ele>666.55396</ele><time>2025-12-13T21:49:22.000Z</time></trkpt>
        <trkpt lat="29.739463" lon="103.529056"><ele>668.09454</ele><time>2025-12-13T21:49:27.000Z</time></trkpt>
        <trkpt lat="29.739484" lon="103.529107"><ele>670.7209</ele><time>2025-12-13T21:49:34.000Z</time></trkpt>
        <trkpt lat="29.739442" lon="103.529141"><ele>675.1076</ele><time>2025-12-13T21:49:41.000Z</time></trkpt>
        <trkpt lat="29.739452" lon="103.529197"><ele>674.2088</ele><time>2025-12-13T21:49:45.000Z</time></trkpt>
        <trkpt lat="29.739473" lon="103.529254"><ele>673.47534</ele><time>2025-12-13T21:49:50.000Z</time></trkpt>
        <trkpt lat="29.739484" lon="103.529306"><ele>671.15173</ele><time>2025-12-13T21:49:58.000Z</time></trkpt>
        <trkpt lat="29.739501" lon="103.529357"><ele>669.144</ele><time>2025-12-13T21:50:04.000Z</time></trkpt>
        <trkpt lat="29.739535" lon="103.529397"><ele>666.49896</ele><time>2025-12-13T21:50:12.000Z</time></trkpt>
        <trkpt lat="29.73958" lon="103.529423"><ele>665.0846</ele><time>2025-12-13T21:50:44.000Z</time></trkpt>
        <trkpt lat="29.739621" lon="103.529458"><ele>665.95776</ele><time>2025-12-13T21:50:50.000Z</time></trkpt>
        <trkpt lat="29.739674" lon="103.529467"><ele>666.81274</ele><time>2025-12-13T21:51:10.000Z</time></trkpt>
        <trkpt lat="29.739716" lon="103.529507"><ele>666.6389</ele><time>2025-12-13T21:51:16.000Z</time></trkpt>
        <trkpt lat="29.739772" lon="103.5295"><ele>668.8998</ele><time>2025-12-13T21:51:24.000Z</time></trkpt>
        <trkpt lat="29.739818" lon="103.529507"><ele>668.6707</ele><time>2025-12-13T21:51:32.000Z</time></trkpt>
        <trkpt lat="29.739864" lon="103.529528"><ele>668.02167</ele><time>2025-12-13T21:51:43.000Z</time></trkpt>
        <trkpt lat="29.73991" lon="103.529547"><ele>667.6325</ele><time>2025-12-13T21:51:49.000Z</time></trkpt>
        <trkpt lat="29.739956" lon="103.529554"><ele>667.09595</ele><time>2025-12-13T21:51:55.000Z</time></trkpt>
        <trkpt lat="29.740006" lon="103.529538"><ele>669.2511</ele><time>2025-12-13T21:52:02.000Z</time></trkpt>
        <trkpt lat="29.740053" lon="103.529543"><ele>670.4756</ele><time>2025-12-13T21:52:11.000Z</time></trkpt>
        <trkpt lat="29.740091" lon="103.529514"><ele>670.299</ele><time>2025-12-13T21:52:19.000Z</time></trkpt>
        <trkpt lat="29.740136" lon="103.529511"><ele>669.4166</ele><time>2025-12-13T21:52:23.000Z</time></trkpt>
        <trkpt lat="29.74018" lon="103.529492"><ele>668.29504</ele><time>2025-12-13T21:52:29.000Z</time></trkpt>
        <trkpt lat="29.740225" lon="103.529497"><ele>666.2902</ele><time>2025-12-13T21:52:36.000Z</time></trkpt>
        <trkpt lat="29.74027" lon="103.52948"><ele>665.5195</ele><time>2025-12-13T21:53:05.000Z</time></trkpt>
        <trkpt lat="29.740303" lon="103.529437"><ele>664.7821</ele><time>2025-12-13T21:53:13.000Z</time></trkpt>
        <trkpt lat="29.740334" lon="103.529397"><ele>663.69604</ele><time>2025-12-13T21:53:21.000Z</time></trkpt>
        <trkpt lat="29.740376" lon="103.529364"><ele>663.35046</ele><time>2025-12-13T21:53:27.000Z</time></trkpt>
        <trkpt lat="29.740409" lon="103.529327"><ele>663.5186</ele><time>2025-12-13T21:53:32.000Z</time></trkpt>
        <trkpt lat="29.740453" lon="103.529294"><ele>662.0579</ele><time>2025-12-13T21:53:38.000Z</time></trkpt>
        <trkpt lat="29.740497" lon="103.529269"><ele>662.68066</ele><time>2025-12-13T21:53:43.000Z</time></trkpt>
        <trkpt lat="29.740527" lon="103.529223"><ele>663.06104</ele><time>2025-12-13T21:53:49.000Z</time></trkpt>
        <trkpt lat="29.740568" lon="103.529189"><ele>665.51514</ele><time>2025-12-13T21:54:03.000Z</time></trkpt>
        <trkpt lat="29.740593" lon="103.529139"><ele>667.87427</ele><time>2025-12-13T21:54:12.000Z</time></trkpt>
        <trkpt lat="29.740636" lon="103.529117"><ele>668.67365</ele><time>2025-12-13T21:54:22.000Z</time></trkpt>
        <trkpt lat="29.740662" lon="103.529074"><ele>668.0669</ele><time>2025-12-13T21:54:30.000Z</time></trkpt>
        <trkpt lat="29.740702" lon="103.529025"><ele>668.98584</ele><time>2025-12-13T21:54:38.000Z</time></trkpt>
        <trkpt lat="29.740711" lon="103.528969"><ele>670.8229</ele><time>2025-12-13T21:54:42.000Z</time></trkpt>
        <trkpt lat="29.740718" lon="103.52891"><ele>671.9534</ele><time>2025-12-13T21:54:53.000Z</time></trkpt>
        <trkpt lat="29.740754" lon="103.528878"><ele>671.90265</ele><time>2025-12-13T21:54:59.000Z</time></trkpt>
        <trkpt lat="29.740797" lon="103.528853"><ele>671.48883</ele><time>2025-12-13T21:55:04.000Z</time></trkpt>
        <trkpt lat="29.740837" lon="103.528809"><ele>671.6942</ele><time>2025-12-13T21:55:10.000Z</time></trkpt>
        <trkpt lat="29.740864" lon="103.52876"><ele>672.15753</ele><time>2025-12-13T21:55:20.000Z</time></trkpt>
        <trkpt lat="29.740899" lon="103.528721"><ele>671.5902</ele><time>2025-12-13T21:55:28.000Z</time></trkpt>
        <trkpt lat="29.74095" lon="103.528681"><ele>671.5493</ele><time>2025-12-13T21:55:38.000Z</time></trkpt>
        <trkpt lat="29.74094" lon="103.528623"><ele>671.3553</ele><time>2025-12-13T21:55:50.000Z</time></trkpt>
        <trkpt lat="29.740972" lon="103.52858"><ele>672.102</ele><time>2025-12-13T21:55:55.000Z</time></trkpt>
        <trkpt lat="29.740969" lon="103.528528"><ele>673.4681</ele><time>2025-12-13T21:56:01.000Z</time></trkpt>
        <trkpt lat="29.740969" lon="103.528471"><ele>673.6338</ele><time>2025-12-13T21:56:06.000Z</time></trkpt>
        <trkpt lat="29.741019" lon="103.528483"><ele>676.33093</ele><time>2025-12-13T21:56:15.000Z</time></trkpt>
        <trkpt lat="29.741064" lon="103.528473"><ele>678.7079</ele><time>2025-12-13T21:56:25.000Z</time></trkpt>
        <trkpt lat="29.741122" lon="103.52852"><ele>679.80176</ele><time>2025-12-13T21:56:40.000Z</time></trkpt>
        <trkpt lat="29.741113" lon="103.528571"><ele>678.22876</ele><time>2025-12-13T21:56:48.000Z</time></trkpt>
        <trkpt lat="29.741064" lon="103.528563"><ele>679.8822</ele><time>2025-12-13T21:57:07.000Z</time></trkpt>
        <trkpt lat="29.741131" lon="103.528557"><ele>679.92737</ele><time>2025-12-13T21:57:13.000Z</time></trkpt>
        <trkpt lat="29.741177" lon="103.528581"><ele>678.62164</ele><time>2025-12-13T21:57:20.000Z</time></trkpt>
        <trkpt lat="29.741173" lon="103.528637"><ele>678.43585</ele><time>2025-12-13T21:57:24.000Z</time></trkpt>
        <trkpt lat="29.741174" lon="103.52869"><ele>679.54596</ele><time>2025-12-13T21:57:31.000Z</time></trkpt>
        <trkpt lat="29.741163" lon="103.528751"><ele>678.6151</ele><time>2025-12-13T21:57:39.000Z</time></trkpt>
        <trkpt lat="29.741178" lon="103.528802"><ele>679.06366</ele><time>2025-12-13T21:57:49.000Z</time></trkpt>
        <trkpt lat="29.741174" lon="103.52886"><ele>679.4348</ele><time>2025-12-13T21:57:57.000Z</time></trkpt>
        <trkpt lat="29.741196" lon="103.528913"><ele>679.49976</ele><time>2025-12-13T21:58:05.000Z</time></trkpt>
        <trkpt lat="29.741214" lon="103.528961"><ele>680.026</ele><time>2025-12-13T21:58:09.000Z</time></trkpt>
        <trkpt lat="29.741237" lon="103.529011"><ele>681.33966</ele><time>2025-12-13T21:58:17.000Z</time></trkpt>
        <trkpt lat="29.74127" lon="103.529053"><ele>681.6172</ele><time>2025-12-13T21:58:27.000Z</time></trkpt>
        <trkpt lat="29.741295" lon="103.529103"><ele>683.5753</ele><time>2025-12-13T21:58:37.000Z</time></trkpt>
        <trkpt lat="29.741308" lon="103.529156"><ele>682.90796</ele><time>2025-12-13T21:59:08.000Z</time></trkpt>
        <trkpt lat="29.741326" lon="103.529207"><ele>684.11615</ele><time>2025-12-13T21:59:14.000Z</time></trkpt>
        <trkpt lat="29.741366" lon="103.529244"><ele>682.6064</ele><time>2025-12-13T21:59:22.000Z</time></trkpt>
        <trkpt lat="29.74142" lon="103.529227"><ele>681.4125</ele><time>2025-12-13T21:59:37.000Z</time></trkpt>
        <trkpt lat="29.741433" lon="103.529167"><ele>682.2414</ele><time>2025-12-13T21:59:44.000Z</time></trkpt>
        <trkpt lat="29.741482" lon="103.529149"><ele>685.922</ele><time>2025-12-13T22:00:01.000Z</time></trkpt>
        <trkpt lat="29.741531" lon="103.529109"><ele>686.6869</ele><time>2025-12-13T22:00:08.000Z</time></trkpt>
        <trkpt lat="29.741542" lon="103.529059"><ele>686.41815</ele><time>2025-12-13T22:00:13.000Z</time></trkpt>
        <trkpt lat="29.741585" lon="103.529026"><ele>687.39874</ele><time>2025-12-13T22:00:19.000Z</time></trkpt>
        <trkpt lat="29.74163" lon="103.529014"><ele>685.823</ele><time>2025-12-13T22:00:25.000Z</time></trkpt>
        <trkpt lat="29.74168" lon="103.529023"><ele>685.3565</ele><time>2025-12-13T22:00:31.000Z</time></trkpt>
        <trkpt lat="29.741723" lon="103.529041"><ele>686.21967</ele><time>2025-12-13T22:00:35.000Z</time></trkpt>
        <trkpt lat="29.741757" lon="103.52908"><ele>685.76404</ele><time>2025-12-13T22:00:40.000Z</time></trkpt>
        <trkpt lat="29.741764" lon="103.529133"><ele>686.8616</ele><time>2025-12-13T22:00:46.000Z</time></trkpt>
        <trkpt lat="29.741762" lon="103.529188"><ele>686.3576</ele><time>2025-12-13T22:00:52.000Z</time></trkpt>
        <trkpt lat="29.741809" lon="103.529166"><ele>686.6289</ele><time>2025-12-13T22:02:17.000Z</time></trkpt>
        <trkpt lat="29.741766" lon="103.529198"><ele>685.7985</ele><time>2025-12-13T22:02:31.000Z</time></trkpt>
        <trkpt lat="29.741806" lon="103.52923"><ele>685.56213</ele><time>2025-12-13T22:02:53.000Z</time></trkpt>
        <trkpt lat="29.741808" lon="103.5293"><ele>683.4871</ele><time>2025-12-13T22:04:38.000Z</time></trkpt>
        <trkpt lat="29.741824" lon="103.529356"><ele>683.6914</ele><time>2025-12-13T22:04:45.000Z</time></trkpt>
        <trkpt lat="29.741858" lon="103.529393"><ele>684.21124</ele><time>2025-12-13T22:04:54.000Z</time></trkpt>
        <trkpt lat="29.741905" lon="103.529421"><ele>684.2512</ele><time>2025-12-13T22:05:02.000Z</time></trkpt>
        <trkpt lat="29.741948" lon="103.529407"><ele>685.7677</ele><time>2025-12-13T22:05:09.000Z</time></trkpt>
        <trkpt lat="29.742003" lon="103.529418"><ele>686.28253</ele><time>2025-12-13T22:05:17.000Z</time></trkpt>
        <trkpt lat="29.742055" lon="103.529447"><ele>685.8658</ele><time>2025-12-13T22:05:26.000Z</time></trkpt>
        <trkpt lat="29.742099" lon="103.529475"><ele>688.5739</ele><time>2025-12-13T22:05:32.000Z</time></trkpt>
        <trkpt lat="29.742143" lon="103.52949"><ele>688.8848</ele><time>2025-12-13T22:05:37.000Z</time></trkpt>
        <trkpt lat="29.742185" lon="103.529519"><ele>688.0064</ele><time>2025-12-13T22:05:43.000Z</time></trkpt>
        <trkpt lat="29.74222" lon="103.529564"><ele>687.95593</ele><time>2025-12-13T22:05:49.000Z</time></trkpt>
        <trkpt lat="29.742228" lon="103.529616"><ele>689.04364</ele><time>2025-12-13T22:05:54.000Z</time></trkpt>
        <trkpt lat="29.742231" lon="103.529677"><ele>690.6899</ele><time>2025-12-13T22:05:58.000Z</time></trkpt>
        <trkpt lat="29.742239" lon="103.529731"><ele>690.7541</ele><time>2025-12-13T22:06:03.000Z</time></trkpt>
        <trkpt lat="29.742275" lon="103.529775"><ele>688.40045</ele><time>2025-12-13T22:06:10.000Z</time></trkpt>
        <trkpt lat="29.742321" lon="103.529785"><ele>687.8461</ele><time>2025-12-13T22:06:16.000Z</time></trkpt>
        <trkpt lat="29.74237" lon="103.529793"><ele>686.9725</ele><time>2025-12-13T22:06:22.000Z</time></trkpt>
        <trkpt lat="29.742417" lon="103.529808"><ele>687.2257</ele><time>2025-12-13T22:06:33.000Z</time></trkpt>
        <trkpt lat="29.742463" lon="103.529819"><ele>684.7389</ele><time>2025-12-13T22:06:39.000Z</time></trkpt>
        <trkpt lat="29.742505" lon="103.529843"><ele>684.2998</ele><time>2025-12-13T22:06:45.000Z</time></trkpt>
        <trkpt lat="29.74246" lon="103.529852"><ele>691.26794</ele><time>2025-12-13T22:07:02.000Z</time></trkpt>
        <trkpt lat="29.742412" lon="103.52984"><ele>691.6226</ele><time>2025-12-13T22:07:07.000Z</time></trkpt>
        <trkpt lat="29.742364" lon="103.529833"><ele>692.26196</ele><time>2025-12-13T22:07:11.000Z</time></trkpt>
        <trkpt lat="29.742317" lon="103.52981"><ele>690.51337</ele><time>2025-12-13T22:07:17.000Z</time></trkpt>
        <trkpt lat="29.742274" lon="103.529792"><ele>690.7496</ele><time>2025-12-13T22:07:22.000Z</time></trkpt>
        <trkpt lat="29.742226" lon="103.529763"><ele>690.6043</ele><time>2025-12-13T22:07:27.000Z</time></trkpt>
        <trkpt lat="29.742209" lon="103.529715"><ele>689.9911</ele><time>2025-12-13T22:07:32.000Z</time></trkpt>
        <trkpt lat="29.74221" lon="103.529661"><ele>690.65674</ele><time>2025-12-13T22:07:37.000Z</time></trkpt>
        <trkpt lat="29.742197" lon="103.529602"><ele>691.2479</ele><time>2025-12-13T22:07:43.000Z</time></trkpt>
        <trkpt lat="29.74216" lon="103.529558"><ele>691.5449</ele><time>2025-12-13T22:07:47.000Z</time></trkpt>
        <trkpt lat="29.742125" lon="103.529513"><ele>691.23645</ele><time>2025-12-13T22:07:52.000Z</time></trkpt>
        <trkpt lat="29.742086" lon="103.52948"><ele>690.6657</ele><time>2025-12-13T22:07:57.000Z</time></trkpt>
        <trkpt lat="29.742043" lon="103.529451"><ele>688.95026</ele><time>2025-12-13T22:08:03.000Z</time></trkpt>
        <trkpt lat="29.741997" lon="103.529429"><ele>689.3213</ele><time>2025-12-13T22:08:07.000Z</time></trkpt>
        <trkpt lat="29.741992" lon="103.529376"><ele>688.0701</ele><time>2025-12-13T22:08:12.000Z</time></trkpt>
        <trkpt lat="29.742032" lon="103.52935"><ele>687.19775</ele><time>2025-12-13T22:08:21.000Z</time></trkpt>
        <trkpt lat="29.742078" lon="103.529339"><ele>687.7237</ele><time>2025-12-13T22:08:38.000Z</time></trkpt>
        <trkpt lat="29.742118" lon="103.529313"><ele>689.62665</ele><time>2025-12-13T22:08:56.000Z</time></trkpt>
        <trkpt lat="29.742149" lon="103.529269"><ele>692.5809</ele><time>2025-12-13T22:09:26.000Z</time></trkpt>
        <trkpt lat="29.742114" lon="103.529235"><ele>694.3446</ele><time>2025-12-13T22:09:37.000Z</time></trkpt>
        <trkpt lat="29.742142" lon="103.529189"><ele>693.6578</ele><time>2025-12-13T22:09:48.000Z</time></trkpt>
        <trkpt lat="29.74214" lon="103.529133"><ele>694.87756</ele><time>2025-12-13T22:09:57.000Z</time></trkpt>
        <trkpt lat="29.74213" lon="103.529081"><ele>697.44214</ele><time>2025-12-13T22:10:06.000Z</time></trkpt>
        <trkpt lat="29.742084" lon="103.529059"><ele>698.1342</ele><time>2025-12-13T22:10:12.000Z</time></trkpt>
        <trkpt lat="29.74207" lon="103.529005"><ele>699.492</ele><time>2025-12-13T22:10:19.000Z</time></trkpt>
        <trkpt lat="29.74208" lon="103.528953"><ele>699.7163</ele><time>2025-12-13T22:10:36.000Z</time></trkpt>
        <trkpt lat="29.742069" lon="103.528901"><ele>700.1415</ele><time>2025-12-13T22:10:42.000Z</time></trkpt>
        <trkpt lat="29.742077" lon="103.528842"><ele>701.2102</ele><time>2025-12-13T22:10:52.000Z</time></trkpt>
        <trkpt lat="29.742118" lon="103.52882"><ele>702.1724</ele><time>2025-12-13T22:11:01.000Z</time></trkpt>
        <trkpt lat="29.742163" lon="103.528826"><ele>707.0905</ele><time>2025-12-13T22:11:06.000Z</time></trkpt>
        <trkpt lat="29.742196" lon="103.528777"><ele>706.1604</ele><time>2025-12-13T22:11:22.000Z</time></trkpt>
        <trkpt lat="29.742248" lon="103.528779"><ele>707.6955</ele><time>2025-12-13T22:11:27.000Z</time></trkpt>
        <trkpt lat="29.742295" lon="103.528761"><ele>710.44495</ele><time>2025-12-13T22:11:31.000Z</time></trkpt>
        <trkpt lat="29.742331" lon="103.528723"><ele>711.5402</ele><time>2025-12-13T22:11:38.000Z</time></trkpt>
        <trkpt lat="29.742324" lon="103.528672"><ele>711.8376</ele><time>2025-12-13T22:11:43.000Z</time></trkpt>
        <trkpt lat="29.742317" lon="103.52862"><ele>710.53906</ele><time>2025-12-13T22:11:52.000Z</time></trkpt>
        <trkpt lat="29.742321" lon="103.528567"><ele>711.74634</ele><time>2025-12-13T22:12:07.000Z</time></trkpt>
        <trkpt lat="29.742367" lon="103.528557"><ele>712.48175</ele><time>2025-12-13T22:12:12.000Z</time></trkpt>
        <trkpt lat="29.742413" lon="103.528525"><ele>713.14435</ele><time>2025-12-13T22:12:20.000Z</time></trkpt>
        <trkpt lat="29.742457" lon="103.528505"><ele>714.43085</ele><time>2025-12-13T22:12:25.000Z</time></trkpt>
        <trkpt lat="29.742487" lon="103.528457"><ele>715.402</ele><time>2025-12-13T22:12:33.000Z</time></trkpt>
        <trkpt lat="29.742535" lon="103.528437"><ele>715.43463</ele><time>2025-12-13T22:12:38.000Z</time></trkpt>
        <trkpt lat="29.742545" lon="103.528375"><ele>718.6622</ele><time>2025-12-13T22:12:57.000Z</time></trkpt>
        <trkpt lat="29.742589" lon="103.528359"><ele>719.7827</ele><time>2025-12-13T22:13:00.000Z</time></trkpt>
        <trkpt lat="29.742616" lon="103.528312"><ele>719.0125</ele><time>2025-12-13T22:13:07.000Z</time></trkpt>
        <trkpt lat="29.742666" lon="103.528256"><ele>718.3246</ele><time>2025-12-13T22:13:13.000Z</time></trkpt>
        <trkpt lat="29.742693" lon="103.528202"><ele>717.1342</ele><time>2025-12-13T22:13:18.000Z</time></trkpt>
        <trkpt lat="29.742723" lon="103.528155"><ele>716.4327</ele><time>2025-12-13T22:13:24.000Z</time></trkpt>
        <trkpt lat="29.742745" lon="103.528104"><ele>715.1978</ele><time>2025-12-13T22:13:29.000Z</time></trkpt>
        <trkpt lat="29.742788" lon="103.528063"><ele>715.0113</ele><time>2025-12-13T22:13:34.000Z</time></trkpt>
        <trkpt lat="29.742825" lon="103.528032"><ele>715.34985</ele><time>2025-12-13T22:13:38.000Z</time></trkpt>
        <trkpt lat="29.74287" lon="103.528009"><ele>714.7724</ele><time>2025-12-13T22:13:41.000Z</time></trkpt>
        <trkpt lat="29.742905" lon="103.527965"><ele>713.8025</ele><time>2025-12-13T22:13:46.000Z</time></trkpt>
        <trkpt lat="29.742907" lon="103.527904"><ele>712.4636</ele><time>2025-12-13T22:13:51.000Z</time></trkpt>
        <trkpt lat="29.742915" lon="103.527852"><ele>712.7884</ele><time>2025-12-13T22:13:54.000Z</time></trkpt>
        <trkpt lat="29.742918" lon="103.527801"><ele>711.67096</ele><time>2025-12-13T22:13:58.000Z</time></trkpt>
        <trkpt lat="29.742916" lon="103.527744"><ele>712.0961</ele><time>2025-12-13T22:14:01.000Z</time></trkpt>
        <trkpt lat="29.74293" lon="103.52769"><ele>712.65625</ele><time>2025-12-13T22:14:06.000Z</time></trkpt>
        <trkpt lat="29.742978" lon="103.527695"><ele>712.4932</ele><time>2025-12-13T22:14:13.000Z</time></trkpt>
        <trkpt lat="29.743039" lon="103.527655"><ele>713.9549</ele><time>2025-12-13T22:14:16.000Z</time></trkpt>
        <trkpt lat="29.743085" lon="103.527644"><ele>711.3107</ele><time>2025-12-13T22:14:21.000Z</time></trkpt>
        <trkpt lat="29.743133" lon="103.527616"><ele>710.4884</ele><time>2025-12-13T22:14:27.000Z</time></trkpt>
        <trkpt lat="29.74318" lon="103.52759"><ele>711.1151</ele><time>2025-12-13T22:14:31.000Z</time></trkpt>
        <trkpt lat="29.743214" lon="103.527556"><ele>711.32367</ele><time>2025-12-13T22:14:34.000Z</time></trkpt>
        <trkpt lat="29.743249" lon="103.527518"><ele>710.2307</ele><time>2025-12-13T22:14:38.000Z</time></trkpt>
        <trkpt lat="29.743281" lon="103.527472"><ele>706.487</ele><time>2025-12-13T22:14:47.000Z</time></trkpt>
        <trkpt lat="29.743327" lon="103.527439"><ele>705.5242</ele><time>2025-12-13T22:14:53.000Z</time></trkpt>
        <trkpt lat="29.743374" lon="103.527421"><ele>705.2796</ele><time>2025-12-13T22:14:57.000Z</time></trkpt>
        <trkpt lat="29.743429" lon="103.527412"><ele>707.88086</ele><time>2025-12-13T22:15:00.000Z</time></trkpt>
        <trkpt lat="29.743466" lon="103.527379"><ele>707.46704</ele><time>2025-12-13T22:15:04.000Z</time></trkpt>
        <trkpt lat="29.743486" lon="103.527315"><ele>704.7687</ele><time>2025-12-13T22:15:08.000Z</time></trkpt>
        <trkpt lat="29.74353" lon="103.527275"><ele>703.7975</ele><time>2025-12-13T22:15:12.000Z</time></trkpt>
        <trkpt lat="29.743562" lon="103.527233"><ele>703.236</ele><time>2025-12-13T22:15:17.000Z</time></trkpt>
        <trkpt lat="29.743615" lon="103.527203"><ele>702.23755</ele><time>2025-12-13T22:15:22.000Z</time></trkpt>
        <trkpt lat="29.743658" lon="103.527188"><ele>702.53754</ele><time>2025-12-13T22:15:27.000Z</time></trkpt>
        <trkpt lat="29.743705" lon="103.527187"><ele>702.5209</ele><time>2025-12-13T22:15:30.000Z</time></trkpt>
        <trkpt lat="29.74375" lon="103.527177"><ele>703.6448</ele><time>2025-12-13T22:15:36.000Z</time></trkpt>
        <trkpt lat="29.743794" lon="103.52715"><ele>704.1545</ele><time>2025-12-13T22:15:41.000Z</time></trkpt>
        <trkpt lat="29.743839" lon="103.527125"><ele>704.471</ele><time>2025-12-13T22:15:48.000Z</time></trkpt>
        <trkpt lat="29.743863" lon="103.527074"><ele>702.7026</ele><time>2025-12-13T22:17:58.000Z</time></trkpt>
        <trkpt lat="29.743877" lon="103.527022"><ele>700.1391</ele><time>2025-12-13T22:18:02.000Z</time></trkpt>
        <trkpt lat="29.7439" lon="103.526977"><ele>698.08734</ele><time>2025-12-13T22:18:06.000Z</time></trkpt>
        <trkpt lat="29.743939" lon="103.526951"><ele>697.5875</ele><time>2025-12-13T22:18:11.000Z</time></trkpt>
        <trkpt lat="29.743987" lon="103.526929"><ele>697.059</ele><time>2025-12-13T22:18:17.000Z</time></trkpt>
        <trkpt lat="29.744025" lon="103.526896"><ele>696.5348</ele><time>2025-12-13T22:18:22.000Z</time></trkpt>
        <trkpt lat="29.744057" lon="103.526856"><ele>696.5463</ele><time>2025-12-13T22:18:25.000Z</time></trkpt>
        <trkpt lat="29.744096" lon="103.526822"><ele>695.6532</ele><time>2025-12-13T22:18:30.000Z</time></trkpt>
        <trkpt lat="29.744111" lon="103.52676"><ele>695.398</ele><time>2025-12-13T22:18:34.000Z</time></trkpt>
        <trkpt lat="29.744108" lon="103.526705"><ele>695.9368</ele><time>2025-12-13T22:18:37.000Z</time></trkpt>
        <trkpt lat="29.744091" lon="103.526642"><ele>693.5902</ele><time>2025-12-13T22:18:42.000Z</time></trkpt>
        <trkpt lat="29.744062" lon="103.526589"><ele>695.35535</ele><time>2025-12-13T22:18:45.000Z</time></trkpt>
        <trkpt lat="29.744068" lon="103.526531"><ele>696.2112</ele><time>2025-12-13T22:18:50.000Z</time></trkpt>
        <trkpt lat="29.744072" lon="103.526473"><ele>695.4758</ele><time>2025-12-13T22:18:55.000Z</time></trkpt>
        <trkpt lat="29.74408" lon="103.526421"><ele>694.98444</ele><time>2025-12-13T22:18:59.000Z</time></trkpt>
        <trkpt lat="29.744085" lon="103.526362"><ele>693.527</ele><time>2025-12-13T22:19:03.000Z</time></trkpt>
        <trkpt lat="29.744083" lon="103.526299"><ele>692.037</ele><time>2025-12-13T22:19:07.000Z</time></trkpt>
        <trkpt lat="29.744076" lon="103.526247"><ele>691.5249</ele><time>2025-12-13T22:19:10.000Z</time></trkpt>
        <trkpt lat="29.7441" lon="103.526202"><ele>688.97705</ele><time>2025-12-13T22:19:14.000Z</time></trkpt>
        <trkpt lat="29.744068" lon="103.526161"><ele>689.32965</ele><time>2025-12-13T22:19:17.000Z</time></trkpt>
        <trkpt lat="29.74406" lon="103.526244"><ele>690.9251</ele><time>2025-12-13T22:19:37.000Z</time></trkpt>
        <trkpt lat="29.744101" lon="103.526223"><ele>688.41895</ele><time>2025-12-13T22:19:47.000Z</time></trkpt>
        <trkpt lat="29.744165" lon="103.526217"><ele>687.0406</ele><time>2025-12-13T22:19:50.000Z</time></trkpt>
        <trkpt lat="29.744219" lon="103.526224"><ele>686.52734</ele><time>2025-12-13T22:19:53.000Z</time></trkpt>
        <trkpt lat="29.744271" lon="103.526218"><ele>685.1991</ele><time>2025-12-13T22:19:57.000Z</time></trkpt>
        <trkpt lat="29.744318" lon="103.52621"><ele>685.18494</ele><time>2025-12-13T22:20:01.000Z</time></trkpt>
        <trkpt lat="29.744365" lon="103.526187"><ele>684.8738</ele><time>2025-12-13T22:20:05.000Z</time></trkpt>
        <trkpt lat="29.744407" lon="103.526139"><ele>684.89496</ele><time>2025-12-13T22:20:09.000Z</time></trkpt>
        <trkpt lat="29.744424" lon="103.526082"><ele>683.3572</ele><time>2025-12-13T22:20:14.000Z</time></trkpt>
        <trkpt lat="29.744438" lon="103.526027"><ele>682.40826</ele><time>2025-12-13T22:20:20.000Z</time></trkpt>
        <trkpt lat="29.74446" lon="103.525978"><ele>682.5893</ele><time>2025-12-13T22:20:26.000Z</time></trkpt>
        <trkpt lat="29.744489" lon="103.525933"><ele>683.549</ele><time>2025-12-13T22:20:34.000Z</time></trkpt>
        <trkpt lat="29.744506" lon="103.525883"><ele>682.64813</ele><time>2025-12-13T22:20:41.000Z</time></trkpt>
        <trkpt lat="29.744531" lon="103.525837"><ele>682.583</ele><time>2025-12-13T22:20:47.000Z</time></trkpt>
        <trkpt lat="29.744562" lon="103.525788"><ele>683.0798</ele><time>2025-12-13T22:20:53.000Z</time></trkpt>
        <trkpt lat="29.744594" lon="103.525745"><ele>683.09827</ele><time>2025-12-13T22:20:59.000Z</time></trkpt>
        <trkpt lat="29.744621" lon="103.525695"><ele>683.54156</ele><time>2025-12-13T22:21:05.000Z</time></trkpt>
        <trkpt lat="29.744646" lon="103.52565"><ele>683.31287</ele><time>2025-12-13T22:21:10.000Z</time></trkpt>
        <trkpt lat="29.74468" lon="103.525607"><ele>683.5363</ele><time>2025-12-13T22:21:15.000Z</time></trkpt>
        <trkpt lat="29.744716" lon="103.525566"><ele>685.7692</ele><time>2025-12-13T22:21:22.000Z</time></trkpt>
        <trkpt lat="29.744752" lon="103.525528"><ele>686.38684</ele><time>2025-12-13T22:21:30.000Z</time></trkpt>
        <trkpt lat="29.744784" lon="103.525485"><ele>688.25336</ele><time>2025-12-13T22:21:39.000Z</time></trkpt>
        <trkpt lat="29.744804" lon="103.525434"><ele>687.81665</ele><time>2025-12-13T22:21:47.000Z</time></trkpt>
        <trkpt lat="29.744823" lon="103.52538"><ele>689.0591</ele><time>2025-12-13T22:21:53.000Z</time></trkpt>
        <trkpt lat="29.744801" lon="103.525437"><ele>690.65607</ele><time>2025-12-13T22:22:28.000Z</time></trkpt>
        <trkpt lat="29.744781" lon="103.525484"><ele>689.0916</ele><time>2025-12-13T22:22:33.000Z</time></trkpt>
        <trkpt lat="29.744752" lon="103.525525"><ele>687.5582</ele><time>2025-12-13T22:22:39.000Z</time></trkpt>
        <trkpt lat="29.744712" lon="103.52557"><ele>686.8913</ele><time>2025-12-13T22:22:44.000Z</time></trkpt>
        <trkpt lat="29.744678" lon="103.52562"><ele>686.3339</ele><time>2025-12-13T22:22:49.000Z</time></trkpt>
        <trkpt lat="29.74465" lon="103.525675"><ele>685.74976</ele><time>2025-12-13T22:22:54.000Z</time></trkpt>
        <trkpt lat="29.744623" lon="103.525728"><ele>685.7686</ele><time>2025-12-13T22:22:59.000Z</time></trkpt>
        <trkpt lat="29.744596" lon="103.525777"><ele>685.5764</ele><time>2025-12-13T22:23:04.000Z</time></trkpt>
        <trkpt lat="29.744565" lon="103.525824"><ele>685.3638</ele><time>2025-12-13T22:23:09.000Z</time></trkpt>
        <trkpt lat="29.744533" lon="103.525874"><ele>685.024</ele><time>2025-12-13T22:23:14.000Z</time></trkpt>
        <trkpt lat="29.744505" lon="103.525925"><ele>684.9852</ele><time>2025-12-13T22:23:19.000Z</time></trkpt>
        <trkpt lat="29.744466" lon="103.525972"><ele>683.4623</ele><time>2025-12-13T22:23:24.000Z</time></trkpt>
        <trkpt lat="29.744443" lon="103.526017"><ele>683.0098</ele><time>2025-12-13T22:23:28.000Z</time></trkpt>
        <trkpt lat="29.744429" lon="103.526077"><ele>683.6457</ele><time>2025-12-13T22:23:32.000Z</time></trkpt>
        <trkpt lat="29.744403" lon="103.526134"><ele>683.5684</ele><time>2025-12-13T22:23:37.000Z</time></trkpt>
        <trkpt lat="29.744372" lon="103.526187"><ele>683.1238</ele><time>2025-12-13T22:23:43.000Z</time></trkpt>
        <trkpt lat="29.744327" lon="103.526213"><ele>683.2072</ele><time>2025-12-13T22:24:00.000Z</time></trkpt>
        <trkpt lat="29.744272" lon="103.52621"><ele>684.2409</ele><time>2025-12-13T22:24:05.000Z</time></trkpt>
        <trkpt lat="29.744224" lon="103.526205"><ele>685.7719</ele><time>2025-12-13T22:24:09.000Z</time></trkpt>
        <trkpt lat="29.744169" lon="103.526189"><ele>688.4808</ele><time>2025-12-13T22:24:15.000Z</time></trkpt>
        <trkpt lat="29.744125" lon="103.526212"><ele>688.60504</ele><time>2025-12-13T22:24:23.000Z</time></trkpt>
        <trkpt lat="29.744082" lon="103.526241"><ele>689.8215</ele><time>2025-12-13T22:24:31.000Z</time></trkpt>
        <trkpt lat="29.744067" lon="103.52629"><ele>690.868</ele><time>2025-12-13T22:24:39.000Z</time></trkpt>
        <trkpt lat="29.744068" lon="103.526344"><ele>692.5378</ele><time>2025-12-13T22:24:46.000Z</time></trkpt>
        <trkpt lat="29.744071" lon="103.526406"><ele>693.5855</ele><time>2025-12-13T22:25:25.000Z</time></trkpt>
        <trkpt lat="29.74407" lon="103.52646"><ele>694.23975</ele><time>2025-12-13T22:25:29.000Z</time></trkpt>
        <trkpt lat="29.744072" lon="103.526518"><ele>695.022</ele><time>2025-12-13T22:25:35.000Z</time></trkpt>
        <trkpt lat="29.74408" lon="103.526571"><ele>696.26245</ele><time>2025-12-13T22:25:41.000Z</time></trkpt>
        <trkpt lat="29.744095" lon="103.526627"><ele>696.8532</ele><time>2025-12-13T22:25:48.000Z</time></trkpt>
        <trkpt lat="29.744093" lon="103.526679"><ele>701.48846</ele><time>2025-12-13T22:26:07.000Z</time></trkpt>
        <trkpt lat="29.744068" lon="103.526765"><ele>701.97217</ele><time>2025-12-13T22:26:34.000Z</time></trkpt>
        <trkpt lat="29.744073" lon="103.526703"><ele>700.3866</ele><time>2025-12-13T22:26:38.000Z</time></trkpt>
        <trkpt lat="29.744063" lon="103.52665"><ele>699.7386</ele><time>2025-12-13T22:26:40.000Z</time></trkpt>
        <trkpt lat="29.744077" lon="103.526597"><ele>698.89874</ele><time>2025-12-13T22:26:43.000Z</time></trkpt>
        <trkpt lat="29.744061" lon="103.526541"><ele>698.536</ele><time>2025-12-13T22:26:47.000Z</time></trkpt>
        <trkpt lat="29.744046" lon="103.526491"><ele>697.37854</ele><time>2025-12-13T22:26:51.000Z</time></trkpt>
        <trkpt lat="29.744044" lon="103.526429"><ele>695.3926</ele><time>2025-12-13T22:26:56.000Z</time></trkpt>
        <trkpt lat="29.744034" lon="103.526367"><ele>694.1522</ele><time>2025-12-13T22:27:00.000Z</time></trkpt>
        <trkpt lat="29.744059" lon="103.52631"><ele>691.66003</ele><time>2025-12-13T22:27:06.000Z</time></trkpt>
        <trkpt lat="29.744083" lon="103.526262"><ele>690.4594</ele><time>2025-12-13T22:27:12.000Z</time></trkpt>
        <trkpt lat="29.744117" lon="103.526221"><ele>689.25464</ele><time>2025-12-13T22:27:21.000Z</time></trkpt>
        <trkpt lat="29.744161" lon="103.526198"><ele>687.5861</ele><time>2025-12-13T22:27:26.000Z</time></trkpt>
        <trkpt lat="29.74421" lon="103.5262"><ele>686.6905</ele><time>2025-12-13T22:27:30.000Z</time></trkpt>
        <trkpt lat="29.744266" lon="103.526209"><ele>684.8879</ele><time>2025-12-13T22:27:35.000Z</time></trkpt>
        <trkpt lat="29.744316" lon="103.526209"><ele>685.3887</ele><time>2025-12-13T22:27:40.000Z</time></trkpt>
        <trkpt lat="29.744364" lon="103.526191"><ele>684.4478</ele><time>2025-12-13T22:27:45.000Z</time></trkpt>
        <trkpt lat="29.74441" lon="103.526164"><ele>682.8989</ele><time>2025-12-13T22:27:51.000Z</time></trkpt>
        <trkpt lat="29.744457" lon="103.526175"><ele>682.862</ele><time>2025-12-13T22:28:15.000Z</time></trkpt>
        <trkpt lat="29.74441" lon="103.526162"><ele>684.35443</ele><time>2025-12-13T22:28:41.000Z</time></trkpt>
        <trkpt lat="29.74446" lon="103.526168"><ele>683.4167</ele><time>2025-12-13T22:28:51.000Z</time></trkpt>
        <trkpt lat="29.744508" lon="103.52615"><ele>684.2352</ele><time>2025-12-13T22:29:10.000Z</time></trkpt>
        <trkpt lat="29.744549" lon="103.526123"><ele>684.1917</ele><time>2025-12-13T22:29:18.000Z</time></trkpt>
        <trkpt lat="29.744596" lon="103.526111"><ele>683.68335</ele><time>2025-12-13T22:29:26.000Z</time></trkpt>
        <trkpt lat="29.744643" lon="103.526103"><ele>682.832</ele><time>2025-12-13T22:29:35.000Z</time></trkpt>
        <trkpt lat="29.744693" lon="103.526103"><ele>683.5592</ele><time>2025-12-13T22:29:53.000Z</time></trkpt>
        <trkpt lat="29.744724" lon="103.526147"><ele>685.2318</ele><time>2025-12-13T22:30:11.000Z</time></trkpt>
        <trkpt lat="29.744732" lon="103.526199"><ele>685.2187</ele><time>2025-12-13T22:30:17.000Z</time></trkpt>
        <trkpt lat="29.744739" lon="103.52626"><ele>684.17</ele><time>2025-12-13T22:30:24.000Z</time></trkpt>
        <trkpt lat="29.744742" lon="103.526324"><ele>684.78107</ele><time>2025-12-13T22:30:31.000Z</time></trkpt>
        <trkpt lat="29.744755" lon="103.526375"><ele>684.57837</ele><time>2025-12-13T22:30:38.000Z</time></trkpt>
        <trkpt lat="29.744777" lon="103.526423"><ele>684.3205</ele><time>2025-12-13T22:30:47.000Z</time></trkpt>
        <trkpt lat="29.744814" lon="103.526464"><ele>683.873</ele><time>2025-12-13T22:30:54.000Z</time></trkpt>
        <trkpt lat="29.74485" lon="103.526503"><ele>683.6728</ele><time>2025-12-13T22:31:02.000Z</time></trkpt>
        <trkpt lat="29.744869" lon="103.526555"><ele>684.6521</ele><time>2025-12-13T22:31:10.000Z</time></trkpt>
        <trkpt lat="29.744891" lon="103.526605"><ele>684.94086</ele><time>2025-12-13T22:31:17.000Z</time></trkpt>
        <trkpt lat="29.744905" lon="103.526655"><ele>684.0479</ele><time>2025-12-13T22:31:24.000Z</time></trkpt>
        <trkpt lat="29.7449" lon="103.52671"><ele>684.46484</ele><time>2025-12-13T22:31:33.000Z</time></trkpt>
        <trkpt lat="29.744877" lon="103.526761"><ele>684.8022</ele><time>2025-12-13T22:31:43.000Z</time></trkpt>
        <trkpt lat="29.744878" lon="103.52682"><ele>685.27875</ele><time>2025-12-13T22:31:51.000Z</time></trkpt>
        <trkpt lat="29.744904" lon="103.526863"><ele>687.84955</ele><time>2025-12-13T22:31:57.000Z</time></trkpt>
        <trkpt lat="29.744952" lon="103.526882"><ele>687.13696</ele><time>2025-12-13T22:32:02.000Z</time></trkpt>
        <trkpt lat="29.745001" lon="103.526858"><ele>686.9092</ele><time>2025-12-13T22:32:09.000Z</time></trkpt>
        <trkpt lat="29.745045" lon="103.52684"><ele>688.28937</ele><time>2025-12-13T22:32:15.000Z</time></trkpt>
        <trkpt lat="29.745091" lon="103.526833"><ele>689.12335</ele><time>2025-12-13T22:32:22.000Z</time></trkpt>
        <trkpt lat="29.745141" lon="103.526826"><ele>689.85944</ele><time>2025-12-13T22:32:29.000Z</time></trkpt>
        <trkpt lat="29.745188" lon="103.526843"><ele>690.5173</ele><time>2025-12-13T22:32:36.000Z</time></trkpt>
        <trkpt lat="29.745232" lon="103.526856"><ele>690.9108</ele><time>2025-12-13T22:32:45.000Z</time></trkpt>
        <trkpt lat="29.745281" lon="103.526868"><ele>689.9996</ele><time>2025-12-13T22:32:53.000Z</time></trkpt>
        <trkpt lat="29.745301" lon="103.526919"><ele>689.7901</ele><time>2025-12-13T22:32:58.000Z</time></trkpt>
        <trkpt lat="29.745344" lon="103.526939"><ele>689.72705</ele><time>2025-12-13T22:33:07.000Z</time></trkpt>
        <trkpt lat="29.74539" lon="103.526935"><ele>689.93835</ele><time>2025-12-13T22:33:13.000Z</time></trkpt>
        <trkpt lat="29.745424" lon="103.526902"><ele>694.2739</ele><time>2025-12-13T22:33:29.000Z</time></trkpt>
        <trkpt lat="29.745435" lon="103.526843"><ele>693.3006</ele><time>2025-12-13T22:33:47.000Z</time></trkpt>
        <trkpt lat="29.74543" lon="103.526778"><ele>692.06134</ele><time>2025-12-13T22:33:53.000Z</time></trkpt>
        <trkpt lat="29.745422" lon="103.526722"><ele>690.9557</ele><time>2025-12-13T22:33:58.000Z</time></trkpt>
        <trkpt lat="29.745431" lon="103.52667"><ele>688.6752</ele><time>2025-12-13T22:34:06.000Z</time></trkpt>
        <trkpt lat="29.745465" lon="103.526627"><ele>685.97144</ele><time>2025-12-13T22:34:11.000Z</time></trkpt>
        <trkpt lat="29.74551" lon="103.526581"><ele>686.6993</ele><time>2025-12-13T22:34:16.000Z</time></trkpt>
        <trkpt lat="29.745554" lon="103.52656"><ele>685.39594</ele><time>2025-12-13T22:34:24.000Z</time></trkpt>
        <trkpt lat="29.745599" lon="103.526546"><ele>684.308</ele><time>2025-12-13T22:34:30.000Z</time></trkpt>
        <trkpt lat="29.745643" lon="103.526535"><ele>683.1874</ele><time>2025-12-13T22:34:40.000Z</time></trkpt>
        <trkpt lat="29.745689" lon="103.526526"><ele>682.7276</ele><time>2025-12-13T22:34:59.000Z</time></trkpt>
        <trkpt lat="29.745736" lon="103.526511"><ele>683.69006</ele><time>2025-12-13T22:35:07.000Z</time></trkpt>
        <trkpt lat="29.745772" lon="103.526473"><ele>683.11005</ele><time>2025-12-13T22:35:15.000Z</time></trkpt>
        <trkpt lat="29.745807" lon="103.526432"><ele>682.9855</ele><time>2025-12-13T22:35:23.000Z</time></trkpt>
        <trkpt lat="29.745853" lon="103.526427"><ele>684.5466</ele><time>2025-12-13T22:35:48.000Z</time></trkpt>
        <trkpt lat="29.745892" lon="103.526395"><ele>686.51025</ele><time>2025-12-13T22:36:08.000Z</time></trkpt>
        <trkpt lat="29.745907" lon="103.526344"><ele>686.071</ele><time>2025-12-13T22:36:14.000Z</time></trkpt>
        <trkpt lat="29.745928" lon="103.526294"><ele>685.8984</ele><time>2025-12-13T22:36:21.000Z</time></trkpt>
        <trkpt lat="29.745971" lon="103.526272"><ele>684.9513</ele><time>2025-12-13T22:36:28.000Z</time></trkpt>
        <trkpt lat="29.746014" lon="103.526248"><ele>686.4684</ele><time>2025-12-13T22:36:34.000Z</time></trkpt>
        <trkpt lat="29.746061" lon="103.526234"><ele>685.38165</ele><time>2025-12-13T22:36:52.000Z</time></trkpt>
        <trkpt lat="29.746109" lon="103.526215"><ele>688.26843</ele><time>2025-12-13T22:37:18.000Z</time></trkpt>
        <trkpt lat="29.746157" lon="103.526186"><ele>688.86127</ele><time>2025-12-13T22:37:35.000Z</time></trkpt>
        <trkpt lat="29.746195" lon="103.526158"><ele>688.7078</ele><time>2025-12-13T22:37:43.000Z</time></trkpt>
        <trkpt lat="29.746234" lon="103.526123"><ele>688.54956</ele><time>2025-12-13T22:37:50.000Z</time></trkpt>
        <trkpt lat="29.746279" lon="103.526104"><ele>688.351</ele><time>2025-12-13T22:37:57.000Z</time></trkpt>
        <trkpt lat="29.746331" lon="103.526084"><ele>687.9718</ele><time>2025-12-13T22:38:03.000Z</time></trkpt>
        <trkpt lat="29.746379" lon="103.52607"><ele>687.126</ele><time>2025-12-13T22:38:09.000Z</time></trkpt>
        <trkpt lat="29.746423" lon="103.52606"><ele>686.2421</ele><time>2025-12-13T22:38:14.000Z</time></trkpt>
        <trkpt lat="29.746468" lon="103.526041"><ele>686.88617</ele><time>2025-12-13T22:38:20.000Z</time></trkpt>
        <trkpt lat="29.746518" lon="103.526053"><ele>686.1381</ele><time>2025-12-13T22:38:27.000Z</time></trkpt>
        <trkpt lat="29.746564" lon="103.526059"><ele>686.8039</ele><time>2025-12-13T22:38:32.000Z</time></trkpt>
        <trkpt lat="29.746609" lon="103.526034"><ele>687.94965</ele><time>2025-12-13T22:38:53.000Z</time></trkpt>
        <trkpt lat="29.746658" lon="103.526043"><ele>688.4169</ele><time>2025-12-13T22:38:59.000Z</time></trkpt>
        <trkpt lat="29.746708" lon="103.526038"><ele>688.68335</ele><time>2025-12-13T22:39:06.000Z</time></trkpt>
        <trkpt lat="29.746757" lon="103.526049"><ele>688.8325</ele><time>2025-12-13T22:39:14.000Z</time></trkpt>
        <trkpt lat="29.746807" lon="103.526043"><ele>689.6441</ele><time>2025-12-13T22:39:22.000Z</time></trkpt>
        <trkpt lat="29.746859" lon="103.526054"><ele>686.9973</ele><time>2025-12-13T22:40:22.000Z</time></trkpt>
        <trkpt lat="29.746902" lon="103.526077"><ele>687.46204</ele><time>2025-12-13T22:40:30.000Z</time></trkpt>
        <trkpt lat="29.74696" lon="103.526095"><ele>688.11005</ele><time>2025-12-13T22:40:41.000Z</time></trkpt>
        <trkpt lat="29.74701" lon="103.526079"><ele>687.40704</ele><time>2025-12-13T22:40:49.000Z</time></trkpt>
        <trkpt lat="29.747056" lon="103.526056"><ele>686.68896</ele><time>2025-12-13T22:40:58.000Z</time></trkpt>
        <trkpt lat="29.747094" lon="103.526093"><ele>688.8453</ele><time>2025-12-13T22:41:18.000Z</time></trkpt>
        <trkpt lat="29.747137" lon="103.526115"><ele>688.82446</ele><time>2025-12-13T22:42:07.000Z</time></trkpt>
        <trkpt lat="29.74713" lon="103.526172"><ele>693.341</ele><time>2025-12-13T22:42:44.000Z</time></trkpt>
        <trkpt lat="29.747154" lon="103.526219"><ele>693.4954</ele><time>2025-12-13T22:43:01.000Z</time></trkpt>
        <trkpt lat="29.747141" lon="103.526166"><ele>695.84033</ele><time>2025-12-13T22:44:18.000Z</time></trkpt>
        <trkpt lat="29.74714" lon="103.526112"><ele>693.4441</ele><time>2025-12-13T22:44:34.000Z</time></trkpt>
        <trkpt lat="29.747118" lon="103.526065"><ele>689.7606</ele><time>2025-12-13T22:45:10.000Z</time></trkpt>
        <trkpt lat="29.747088" lon="103.526106"><ele>691.3822</ele><time>2025-12-13T22:45:43.000Z</time></trkpt>
        <trkpt lat="29.747108" lon="103.526165"><ele>690.37573</ele><time>2025-12-13T22:46:09.000Z</time></trkpt>
        <trkpt lat="29.747061" lon="103.526162"><ele>690.5986</ele><time>2025-12-13T22:46:14.000Z</time></trkpt>
        <trkpt lat="29.747036" lon="103.526221"><ele>690.6109</ele><time>2025-12-13T22:46:16.000Z</time></trkpt>
        <trkpt lat="29.747066" lon="103.52618"><ele>688.36597</ele><time>2025-12-13T22:46:22.000Z</time></trkpt>
        <trkpt lat="29.747078" lon="103.526124"><ele>687.5608</ele><time>2025-12-13T22:46:28.000Z</time></trkpt>
        <trkpt lat="29.747081" lon="103.526072"><ele>687.1558</ele><time>2025-12-13T22:46:38.000Z</time></trkpt>
        <trkpt lat="29.747034" lon="103.526068"><ele>686.18854</ele><time>2025-12-13T22:46:49.000Z</time></trkpt>
        <trkpt lat="29.746994" lon="103.526103"><ele>686.49274</ele><time>2025-12-13T22:46:54.000Z</time></trkpt>
        <trkpt lat="29.74695" lon="103.526118"><ele>686.68536</ele><time>2025-12-13T22:47:00.000Z</time></trkpt>
        <trkpt lat="29.746905" lon="103.526108"><ele>685.27136</ele><time>2025-12-13T22:47:37.000Z</time></trkpt>
        <trkpt lat="29.74686" lon="103.526097"><ele>684.7362</ele><time>2025-12-13T22:47:47.000Z</time></trkpt>
        <trkpt lat="29.746813" lon="103.52607"><ele>684.1086</ele><time>2025-12-13T22:48:03.000Z</time></trkpt>
        <trkpt lat="29.746767" lon="103.526074"><ele>685.1972</ele><time>2025-12-13T22:48:13.000Z</time></trkpt>
        <trkpt lat="29.746721" lon="103.526091"><ele>685.06287</ele><time>2025-12-13T22:48:20.000Z</time></trkpt>
        <trkpt lat="29.746671" lon="103.526097"><ele>685.7177</ele><time>2025-12-13T22:48:25.000Z</time></trkpt>
        <trkpt lat="29.746618" lon="103.526104"><ele>685.9836</ele><time>2025-12-13T22:48:31.000Z</time></trkpt>
        <trkpt lat="29.746571" lon="103.526106"><ele>686.5531</ele><time>2025-12-13T22:48:39.000Z</time></trkpt>
        <trkpt lat="29.746523" lon="103.526096"><ele>685.11176</ele><time>2025-12-13T22:48:46.000Z</time></trkpt>
        <trkpt lat="29.746476" lon="103.526083"><ele>685.2723</ele><time>2025-12-13T22:48:55.000Z</time></trkpt>
        <trkpt lat="29.746425" lon="103.52608"><ele>686.997</ele><time>2025-12-13T22:49:04.000Z</time></trkpt>
        <trkpt lat="29.746372" lon="103.526096"><ele>686.4609</ele><time>2025-12-13T22:49:10.000Z</time></trkpt>
        <trkpt lat="29.74632" lon="103.52611"><ele>687.2682</ele><time>2025-12-13T22:49:15.000Z</time></trkpt>
        <trkpt lat="29.746269" lon="103.526121"><ele>686.99225</ele><time>2025-12-13T22:49:21.000Z</time></trkpt>
        <trkpt lat="29.746231" lon="103.526155"><ele>686.9783</ele><time>2025-12-13T22:49:26.000Z</time></trkpt>
        <trkpt lat="29.746191" lon="103.526182"><ele>687.286</ele><time>2025-12-13T22:49:33.000Z</time></trkpt>
        <trkpt lat="29.746152" lon="103.526222"><ele>686.0994</ele><time>2025-12-13T22:49:42.000Z</time></trkpt>
        <trkpt lat="29.746108" lon="103.526236"><ele>686.5713</ele><time>2025-12-13T22:49:54.000Z</time></trkpt>
        <trkpt lat="29.746067" lon="103.526208"><ele>687.53394</ele><time>2025-12-13T22:50:23.000Z</time></trkpt>
        <trkpt lat="29.746027" lon="103.526248"><ele>688.03394</ele><time>2025-12-13T22:50:35.000Z</time></trkpt>
        <trkpt lat="29.745984" lon="103.526276"><ele>685.4314</ele><time>2025-12-13T22:50:46.000Z</time></trkpt>
        <trkpt lat="29.745944" lon="103.526304"><ele>684.41705</ele><time>2025-12-13T22:50:50.000Z</time></trkpt>
        <trkpt lat="29.745922" lon="103.526352"><ele>683.52075</ele><time>2025-12-13T22:50:55.000Z</time></trkpt>
        <trkpt lat="29.745904" lon="103.5264"><ele>684.9686</ele><time>2025-12-13T22:50:59.000Z</time></trkpt>
        <trkpt lat="29.745896" lon="103.526456"><ele>684.9791</ele><time>2025-12-13T22:51:04.000Z</time></trkpt>
        <trkpt lat="29.745869" lon="103.5265"><ele>684.62634</ele><time>2025-12-13T22:51:10.000Z</time></trkpt>
        <trkpt lat="29.745846" lon="103.526548"><ele>684.3448</ele><time>2025-12-13T22:51:17.000Z</time></trkpt>
        <trkpt lat="29.745804" lon="103.526579"><ele>684.2619</ele><time>2025-12-13T22:51:24.000Z</time></trkpt>
        <trkpt lat="29.74575" lon="103.526593"><ele>683.9771</ele><time>2025-12-13T22:51:31.000Z</time></trkpt>
        <trkpt lat="29.745702" lon="103.526578"><ele>683.5427</ele><time>2025-12-13T22:51:39.000Z</time></trkpt>
        <trkpt lat="29.745654" lon="103.526584"><ele>681.8872</ele><time>2025-12-13T22:51:45.000Z</time></trkpt>
        <trkpt lat="29.745594" lon="103.526585"><ele>680.9781</ele><time>2025-12-13T22:51:54.000Z</time></trkpt>
        <trkpt lat="29.745552" lon="103.526603"><ele>681.64703</ele><time>2025-12-13T22:51:59.000Z</time></trkpt>
        <trkpt lat="29.745507" lon="103.526635"><ele>681.76013</ele><time>2025-12-13T22:52:05.000Z</time></trkpt>
        <trkpt lat="29.745468" lon="103.526668"><ele>681.1916</ele><time>2025-12-13T22:52:10.000Z</time></trkpt>
        <trkpt lat="29.745436" lon="103.526706"><ele>683.1505</ele><time>2025-12-13T22:52:20.000Z</time></trkpt>
        <trkpt lat="29.745442" lon="103.526759"><ele>684.01337</ele><time>2025-12-13T22:52:28.000Z</time></trkpt>
        <trkpt lat="29.745439" lon="103.526814"><ele>686.02155</ele><time>2025-12-13T22:52:36.000Z</time></trkpt>
        <trkpt lat="29.745438" lon="103.52687"><ele>688.0763</ele><time>2025-12-13T22:52:45.000Z</time></trkpt>
        <trkpt lat="29.745412" lon="103.526919"><ele>692.13464</ele><time>2025-12-13T22:52:54.000Z</time></trkpt>
        <trkpt lat="29.745365" lon="103.526939"><ele>693.6649</ele><time>2025-12-13T22:53:05.000Z</time></trkpt>
        <trkpt lat="29.745318" lon="103.526946"><ele>693.5707</ele><time>2025-12-13T22:53:11.000Z</time></trkpt>
        <trkpt lat="29.74528" lon="103.526906"><ele>693.2633</ele><time>2025-12-13T22:53:19.000Z</time></trkpt>
        <trkpt lat="29.745243" lon="103.526873"><ele>692.2954</ele><time>2025-12-13T22:53:28.000Z</time></trkpt>
        <trkpt lat="29.745192" lon="103.526864"><ele>693.8956</ele><time>2025-12-13T22:54:07.000Z</time></trkpt>
        <trkpt lat="29.745145" lon="103.52685"><ele>693.1183</ele><time>2025-12-13T22:54:11.000Z</time></trkpt>
        <trkpt lat="29.745097" lon="103.52686"><ele>692.4237</ele><time>2025-12-13T22:54:15.000Z</time></trkpt>
        <trkpt lat="29.745052" lon="103.526871"><ele>690.533</ele><time>2025-12-13T22:54:20.000Z</time></trkpt>
        <trkpt lat="29.744993" lon="103.526865"><ele>689.4281</ele><time>2025-12-13T22:54:25.000Z</time></trkpt>
        <trkpt lat="29.74495" lon="103.526894"><ele>688.6182</ele><time>2025-12-13T22:54:29.000Z</time></trkpt>
        <trkpt lat="29.744906" lon="103.526872"><ele>687.5292</ele><time>2025-12-13T22:54:33.000Z</time></trkpt>
        <trkpt lat="29.744876" lon="103.526824"><ele>687.9238</ele><time>2025-12-13T22:54:37.000Z</time></trkpt>
        <trkpt lat="29.744867" lon="103.526771"><ele>689.5017</ele><time>2025-12-13T22:54:41.000Z</time></trkpt>
        <trkpt lat="29.744875" lon="103.52672"><ele>690.2019</ele><time>2025-12-13T22:54:45.000Z</time></trkpt>
        <trkpt lat="29.744915" lon="103.526692"><ele>688.88824</ele><time>2025-12-13T22:55:06.000Z</time></trkpt>
        <trkpt lat="29.744921" lon="103.526641"><ele>689.92725</ele><time>2025-12-13T22:55:12.000Z</time></trkpt>
        <trkpt lat="29.744903" lon="103.52659"><ele>688.41876</ele><time>2025-12-13T22:55:19.000Z</time></trkpt>
        <trkpt lat="29.744886" lon="103.526539"><ele>686.8038</ele><time>2025-12-13T22:55:24.000Z</time></trkpt>
        <trkpt lat="29.744854" lon="103.526495"><ele>684.53613</ele><time>2025-12-13T22:55:29.000Z</time></trkpt>
        <trkpt lat="29.744825" lon="103.526454"><ele>684.4488</ele><time>2025-12-13T22:55:33.000Z</time></trkpt>
        <trkpt lat="29.744786" lon="103.526422"><ele>684.4701</ele><time>2025-12-13T22:55:40.000Z</time></trkpt>
        <trkpt lat="29.744763" lon="103.526368"><ele>684.1453</ele><time>2025-12-13T22:55:46.000Z</time></trkpt>
        <trkpt lat="29.744739" lon="103.526322"><ele>684.19336</ele><time>2025-12-13T22:55:51.000Z</time></trkpt>
        <trkpt lat="29.744728" lon="103.526263"><ele>683.74084</ele><time>2025-12-13T22:55:57.000Z</time></trkpt>
        <trkpt lat="29.744716" lon="103.526206"><ele>683.1295</ele><time>2025-12-13T22:56:02.000Z</time></trkpt>
        <trkpt lat="29.744708" lon="103.526146"><ele>683.80035</ele><time>2025-12-13T22:56:07.000Z</time></trkpt>
        <trkpt lat="29.744712" lon="103.526086"><ele>684.04956</ele><time>2025-12-13T22:56:11.000Z</time></trkpt>
        <trkpt lat="29.744708" lon="103.526031"><ele>683.7911</ele><time>2025-12-13T22:56:15.000Z</time></trkpt>
        <trkpt lat="29.744708" lon="103.525976"><ele>683.64575</ele><time>2025-12-13T22:56:24.000Z</time></trkpt>
        <trkpt lat="29.744707" lon="103.525922"><ele>684.83856</ele><time>2025-12-13T22:56:30.000Z</time></trkpt>
        <trkpt lat="29.744705" lon="103.525864"><ele>685.0802</ele><time>2025-12-13T22:56:36.000Z</time></trkpt>
        <trkpt lat="29.744698" lon="103.525812"><ele>685.53815</ele><time>2025-12-13T22:56:41.000Z</time></trkpt>
        <trkpt lat="29.744745" lon="103.525819"><ele>684.1773</ele><time>2025-12-13T22:57:37.000Z</time></trkpt>
        <trkpt lat="29.74479" lon="103.525835"><ele>682.12494</ele><time>2025-12-13T22:58:01.000Z</time></trkpt>
        <trkpt lat="29.744833" lon="103.525862"><ele>678.0258</ele><time>2025-12-13T22:58:49.000Z</time></trkpt>
        <trkpt lat="29.744879" lon="103.525896"><ele>678.00854</ele><time>2025-12-13T22:58:58.000Z</time></trkpt>
        <trkpt lat="29.744921" lon="103.525917"><ele>678.8045</ele><time>2025-12-13T22:59:05.000Z</time></trkpt>
        <trkpt lat="29.744965" lon="103.525935"><ele>678.4596</ele><time>2025-12-13T22:59:10.000Z</time></trkpt>
        <trkpt lat="29.745" lon="103.52597"><ele>678.813</ele><time>2025-12-13T22:59:15.000Z</time></trkpt>
        <trkpt lat="29.745012" lon="103.526021"><ele>678.15375</ele><time>2025-12-13T22:59:23.000Z</time></trkpt>
        <trkpt lat="29.745051" lon="103.526053"><ele>678.593</ele><time>2025-12-13T22:59:28.000Z</time></trkpt>
        <trkpt lat="29.745093" lon="103.526085"><ele>679.6722</ele><time>2025-12-13T22:59:35.000Z</time></trkpt>
        <trkpt lat="29.745135" lon="103.526109"><ele>679.7225</ele><time>2025-12-13T22:59:44.000Z</time></trkpt>
        <trkpt lat="29.745179" lon="103.526135"><ele>679.50684</ele><time>2025-12-13T22:59:53.000Z</time></trkpt>
        <trkpt lat="29.7452" lon="103.526182"><ele>678.6039</ele><time>2025-12-13T23:00:23.000Z</time></trkpt>
        <trkpt lat="29.745238" lon="103.526211"><ele>679.3251</ele><time>2025-12-13T23:00:29.000Z</time></trkpt>
        <trkpt lat="29.74528" lon="103.526248"><ele>683.099</ele><time>2025-12-13T23:01:01.000Z</time></trkpt>
        <trkpt lat="29.745328" lon="103.526248"><ele>682.6617</ele><time>2025-12-13T23:01:10.000Z</time></trkpt>
        <trkpt lat="29.745381" lon="103.52625"><ele>681.23413</ele><time>2025-12-13T23:01:17.000Z</time></trkpt>
        <trkpt lat="29.745429" lon="103.526242"><ele>682.5111</ele><time>2025-12-13T23:01:24.000Z</time></trkpt>
        <trkpt lat="29.745476" lon="103.52622"><ele>682.8608</ele><time>2025-12-13T23:01:31.000Z</time></trkpt>
        <trkpt lat="29.74552" lon="103.526201"><ele>684.0585</ele><time>2025-12-13T23:01:37.000Z</time></trkpt>
        <trkpt lat="29.745547" lon="103.526157"><ele>684.9768</ele><time>2025-12-13T23:01:46.000Z</time></trkpt>
        <trkpt lat="29.745579" lon="103.526107"><ele>689.3301</ele><time>2025-12-13T23:01:58.000Z</time></trkpt>
        <trkpt lat="29.745531" lon="103.526099"><ele>689.1699</ele><time>2025-12-13T23:02:20.000Z</time></trkpt>
        <trkpt lat="29.745576" lon="103.526098"><ele>687.4276</ele><time>2025-12-13T23:02:53.000Z</time></trkpt>
        <trkpt lat="29.745574" lon="103.526044"><ele>689.8645</ele><time>2025-12-13T23:03:20.000Z</time></trkpt>
        <trkpt lat="29.745578" lon="103.525988"><ele>692.29486</ele><time>2025-12-13T23:03:31.000Z</time></trkpt>
        <trkpt lat="29.74562" lon="103.525954"><ele>693.9905</ele><time>2025-12-13T23:03:40.000Z</time></trkpt>
        <trkpt lat="29.745656" lon="103.525919"><ele>695.7608</ele><time>2025-12-13T23:03:47.000Z</time></trkpt>
        <trkpt lat="29.74561" lon="103.525929"><ele>697.7216</ele><time>2025-12-13T23:04:09.000Z</time></trkpt>
        <trkpt lat="29.745566" lon="103.525905"><ele>700.00745</ele><time>2025-12-13T23:04:30.000Z</time></trkpt>
        <trkpt lat="29.745529" lon="103.525872"><ele>699.19104</ele><time>2025-12-13T23:04:48.000Z</time></trkpt>
        <trkpt lat="29.745494" lon="103.525835"><ele>701.8831</ele><time>2025-12-13T23:05:00.000Z</time></trkpt>
        <trkpt lat="29.745481" lon="103.525784"><ele>706.52844</ele><time>2025-12-13T23:05:36.000Z</time></trkpt>
        <trkpt lat="29.745519" lon="103.525757"><ele>706.79645</ele><time>2025-12-13T23:05:58.000Z</time></trkpt>
        <trkpt lat="29.745549" lon="103.525717"><ele>706.8839</ele><time>2025-12-13T23:06:11.000Z</time></trkpt>
        <trkpt lat="29.745591" lon="103.52569"><ele>707.17114</ele><time>2025-12-13T23:06:21.000Z</time></trkpt>
        <trkpt lat="29.745634" lon="103.525673"><ele>704.5046</ele><time>2025-12-13T23:06:31.000Z</time></trkpt>
        <trkpt lat="29.74566" lon="103.525629"><ele>706.1537</ele><time>2025-12-13T23:06:48.000Z</time></trkpt>
        <trkpt lat="29.745681" lon="103.525583"><ele>705.7492</ele><time>2025-12-13T23:07:03.000Z</time></trkpt>
        <trkpt lat="29.745715" lon="103.525548"><ele>707.675</ele><time>2025-12-13T23:08:39.000Z</time></trkpt>
        <trkpt lat="29.745732" lon="103.525494"><ele>707.3387</ele><time>2025-12-13T23:09:24.000Z</time></trkpt>
        <trkpt lat="29.745745" lon="103.525443"><ele>708.0621</ele><time>2025-12-13T23:09:31.000Z</time></trkpt>
        <trkpt lat="29.745761" lon="103.525393"><ele>709.26483</ele><time>2025-12-13T23:09:40.000Z</time></trkpt>
        <trkpt lat="29.745787" lon="103.525346"><ele>710.5808</ele><time>2025-12-13T23:09:49.000Z</time></trkpt>
        <trkpt lat="29.745815" lon="103.525301"><ele>712.1999</ele><time>2025-12-13T23:09:58.000Z</time></trkpt>
        <trkpt lat="29.745855" lon="103.525274"><ele>713.8916</ele><time>2025-12-13T23:10:05.000Z</time></trkpt>
        <trkpt lat="29.745891" lon="103.525238"><ele>714.65985</ele><time>2025-12-13T23:10:12.000Z</time></trkpt>
        <trkpt lat="29.745933" lon="103.525208"><ele>714.9361</ele><time>2025-12-13T23:10:18.000Z</time></trkpt>
        <trkpt lat="29.745973" lon="103.525176"><ele>715.2806</ele><time>2025-12-13T23:10:26.000Z</time></trkpt>
        <trkpt lat="29.746008" lon="103.525136"><ele>716.61005</ele><time>2025-12-13T23:10:34.000Z</time></trkpt>
        <trkpt lat="29.746051" lon="103.52512"><ele>716.8357</ele><time>2025-12-13T23:10:48.000Z</time></trkpt>
        <trkpt lat="29.746098" lon="103.525092"><ele>718.265</ele><time>2025-12-13T23:10:58.000Z</time></trkpt>
        <trkpt lat="29.746144" lon="103.525076"><ele>718.7515</ele><time>2025-12-13T23:11:06.000Z</time></trkpt>
        <trkpt lat="29.746184" lon="103.525048"><ele>721.16516</ele><time>2025-12-13T23:11:23.000Z</time></trkpt>
        <trkpt lat="29.746216" lon="103.525007"><ele>724.2447</ele><time>2025-12-13T23:11:47.000Z</time></trkpt>
        <trkpt lat="29.746261" lon="103.524993"><ele>724.0655</ele><time>2025-12-13T23:11:52.000Z</time></trkpt>
        <trkpt lat="29.746308" lon="103.524994"><ele>724.4748</ele><time>2025-12-13T23:11:59.000Z</time></trkpt>
        <trkpt lat="29.74636" lon="103.524974"><ele>726.6897</ele><time>2025-12-13T23:12:05.000Z</time></trkpt>
        <trkpt lat="29.746399" lon="103.524937"><ele>727.2851</ele><time>2025-12-13T23:12:11.000Z</time></trkpt>
        <trkpt lat="29.746439" lon="103.524911"><ele>726.7584</ele><time>2025-12-13T23:12:17.000Z</time></trkpt>
        <trkpt lat="29.746463" lon="103.524861"><ele>726.6403</ele><time>2025-12-13T23:12:23.000Z</time></trkpt>
        <trkpt lat="29.74647" lon="103.524802"><ele>726.34814</ele><time>2025-12-13T23:12:27.000Z</time></trkpt>
        <trkpt lat="29.746487" lon="103.524748"><ele>727.4548</ele><time>2025-12-13T23:12:31.000Z</time></trkpt>
        <trkpt lat="29.746502" lon="103.524688"><ele>730.1183</ele><time>2025-12-13T23:12:38.000Z</time></trkpt>
        <trkpt lat="29.746528" lon="103.524643"><ele>730.9684</ele><time>2025-12-13T23:12:45.000Z</time></trkpt>
        <trkpt lat="29.746548" lon="103.524595"><ele>730.7996</ele><time>2025-12-13T23:12:52.000Z</time></trkpt>
        <trkpt lat="29.746569" lon="103.524539"><ele>731.52246</ele><time>2025-12-13T23:13:00.000Z</time></trkpt>
        <trkpt lat="29.746583" lon="103.52448"><ele>731.3455</ele><time>2025-12-13T23:13:06.000Z</time></trkpt>
        <trkpt lat="29.746587" lon="103.524429"><ele>732.7891</ele><time>2025-12-13T23:13:14.000Z</time></trkpt>
        <trkpt lat="29.746596" lon="103.524372"><ele>734.23926</ele><time>2025-12-13T23:13:21.000Z</time></trkpt>
        <trkpt lat="29.746649" lon="103.52438"><ele>734.1507</ele><time>2025-12-13T23:13:34.000Z</time></trkpt>
        <trkpt lat="29.74667" lon="103.524327"><ele>734.7027</ele><time>2025-12-13T23:13:41.000Z</time></trkpt>
        <trkpt lat="29.746701" lon="103.524281"><ele>737.8315</ele><time>2025-12-13T23:13:48.000Z</time></trkpt>
        <trkpt lat="29.746719" lon="103.524226"><ele>741.01666</ele><time>2025-12-13T23:13:56.000Z</time></trkpt>
        <trkpt lat="29.746747" lon="103.524169"><ele>742.7584</ele><time>2025-12-13T23:14:10.000Z</time></trkpt>
        <trkpt lat="29.746784" lon="103.524127"><ele>743.6327</ele><time>2025-12-13T23:14:16.000Z</time></trkpt>
        <trkpt lat="29.746807" lon="103.524071"><ele>744.5169</ele><time>2025-12-13T23:14:26.000Z</time></trkpt>
        <trkpt lat="29.746827" lon="103.524021"><ele>744.8042</ele><time>2025-12-13T23:14:30.000Z</time></trkpt>
        <trkpt lat="29.746853" lon="103.523977"><ele>745.8236</ele><time>2025-12-13T23:14:35.000Z</time></trkpt>
        <trkpt lat="29.746873" lon="103.523927"><ele>747.7666</ele><time>2025-12-13T23:14:48.000Z</time></trkpt>
        <trkpt lat="29.746899" lon="103.523872"><ele>748.0679</ele><time>2025-12-13T23:15:01.000Z</time></trkpt>
        <trkpt lat="29.746948" lon="103.523867"><ele>747.6435</ele><time>2025-12-13T23:15:12.000Z</time></trkpt>
        <trkpt lat="29.74697" lon="103.523821"><ele>749.42957</ele><time>2025-12-13T23:15:23.000Z</time></trkpt>
        <trkpt lat="29.747021" lon="103.523824"><ele>752.25214</ele><time>2025-12-13T23:15:33.000Z</time></trkpt>
        <trkpt lat="29.747064" lon="103.523846"><ele>754.2768</ele><time>2025-12-13T23:15:40.000Z</time></trkpt>
        <trkpt lat="29.747116" lon="103.523849"><ele>753.59485</ele><time>2025-12-13T23:15:51.000Z</time></trkpt>
        <trkpt lat="29.74717" lon="103.52386"><ele>754.3462</ele><time>2025-12-13T23:16:03.000Z</time></trkpt>
        <trkpt lat="29.747217" lon="103.523848"><ele>754.1249</ele><time>2025-12-13T23:16:09.000Z</time></trkpt>
        <trkpt lat="29.74727" lon="103.523853"><ele>754.8871</ele><time>2025-12-13T23:16:15.000Z</time></trkpt>
        <trkpt lat="29.747324" lon="103.523847"><ele>755.8989</ele><time>2025-12-13T23:16:21.000Z</time></trkpt>
        <trkpt lat="29.747378" lon="103.523848"><ele>757.25745</ele><time>2025-12-13T23:16:28.000Z</time></trkpt>
        <trkpt lat="29.747426" lon="103.523838"><ele>758.1416</ele><time>2025-12-13T23:16:33.000Z</time></trkpt>
        <trkpt lat="29.747477" lon="103.523815"><ele>758.2491</ele><time>2025-12-13T23:16:52.000Z</time></trkpt>
        <trkpt lat="29.747516" lon="103.523788"><ele>757.9555</ele><time>2025-12-13T23:16:57.000Z</time></trkpt>
        <trkpt lat="29.747538" lon="103.52374"><ele>757.467</ele><time>2025-12-13T23:17:01.000Z</time></trkpt>
        <trkpt lat="29.747586" lon="103.523725"><ele>756.97095</ele><time>2025-12-13T23:17:08.000Z</time></trkpt>
        <trkpt lat="29.747639" lon="103.523731"><ele>756.80664</ele><time>2025-12-13T23:17:13.000Z</time></trkpt>
        <trkpt lat="29.747685" lon="103.523743"><ele>756.9194</ele><time>2025-12-13T23:17:16.000Z</time></trkpt>
        <trkpt lat="29.747735" lon="103.523725"><ele>756.37836</ele><time>2025-12-13T23:17:23.000Z</time></trkpt>
        <trkpt lat="29.747789" lon="103.52372"><ele>756.48724</ele><time>2025-12-13T23:17:27.000Z</time></trkpt>
        <trkpt lat="29.747831" lon="103.523699"><ele>756.0709</ele><time>2025-12-13T23:17:33.000Z</time></trkpt>
        <trkpt lat="29.747878" lon="103.5237"><ele>754.839</ele><time>2025-12-13T23:17:37.000Z</time></trkpt>
        <trkpt lat="29.747932" lon="103.52371"><ele>754.89307</ele><time>2025-12-13T23:17:41.000Z</time></trkpt>
        <trkpt lat="29.74798" lon="103.523701"><ele>753.8441</ele><time>2025-12-13T23:17:48.000Z</time></trkpt>
        <trkpt lat="29.748014" lon="103.52366"><ele>753.73846</ele><time>2025-12-13T23:17:52.000Z</time></trkpt>
        <trkpt lat="29.748051" lon="103.523694"><ele>751.32306</ele><time>2025-12-13T23:18:17.000Z</time></trkpt>
        <trkpt lat="29.748097" lon="103.52372"><ele>750.75244</ele><time>2025-12-13T23:18:23.000Z</time></trkpt>
        <trkpt lat="29.748142" lon="103.523751"><ele>751.22687</ele><time>2025-12-13T23:18:30.000Z</time></trkpt>
        <trkpt lat="29.748189" lon="103.52377"><ele>751.3187</ele><time>2025-12-13T23:18:35.000Z</time></trkpt>
        <trkpt lat="29.748238" lon="103.523787"><ele>750.9018</ele><time>2025-12-13T23:18:44.000Z</time></trkpt>
        <trkpt lat="29.748285" lon="103.523767"><ele>751.9903</ele><time>2025-12-13T23:18:50.000Z</time></trkpt>
        <trkpt lat="29.748328" lon="103.523741"><ele>752.52594</ele><time>2025-12-13T23:18:56.000Z</time></trkpt>
        <trkpt lat="29.74838" lon="103.523741"><ele>753.5497</ele><time>2025-12-13T23:19:03.000Z</time></trkpt>
        <trkpt lat="29.748419" lon="103.523771"><ele>754.38916</ele><time>2025-12-13T23:19:10.000Z</time></trkpt>
        <trkpt lat="29.748439" lon="103.523817"><ele>755.50854</ele><time>2025-12-13T23:19:26.000Z</time></trkpt>
        <trkpt lat="29.748484" lon="103.523827"><ele>757.5739</ele><time>2025-12-13T23:19:47.000Z</time></trkpt>
        <trkpt lat="29.748529" lon="103.523839"><ele>756.3409</ele><time>2025-12-13T23:19:54.000Z</time></trkpt>
        <trkpt lat="29.748577" lon="103.523821"><ele>755.3709</ele><time>2025-12-13T23:20:02.000Z</time></trkpt>
        <trkpt lat="29.748621" lon="103.523802"><ele>754.13605</ele><time>2025-12-13T23:20:09.000Z</time></trkpt>
        <trkpt lat="29.748679" lon="103.523815"><ele>756.6582</ele><time>2025-12-13T23:20:14.000Z</time></trkpt>
        <trkpt lat="29.748721" lon="103.523847"><ele>757.9261</ele><time>2025-12-13T23:20:19.000Z</time></trkpt>
        <trkpt lat="29.748768" lon="103.523886"><ele>759.0049</ele><time>2025-12-13T23:20:24.000Z</time></trkpt>
        <trkpt lat="29.748808" lon="103.523929"><ele>758.16785</ele><time>2025-12-13T23:20:28.000Z</time></trkpt>
        <trkpt lat="29.748849" lon="103.523965"><ele>757.495</ele><time>2025-12-13T23:20:33.000Z</time></trkpt>
        <trkpt lat="29.748897" lon="103.523977"><ele>756.26324</ele><time>2025-12-13T23:20:37.000Z</time></trkpt>
        <trkpt lat="29.748947" lon="103.523988"><ele>758.2527</ele><time>2025-12-13T23:21:01.000Z</time></trkpt>
        <trkpt lat="29.748984" lon="103.524024"><ele>759.4227</ele><time>2025-12-13T23:21:06.000Z</time></trkpt>
        <trkpt lat="29.749032" lon="103.524044"><ele>759.40564</ele><time>2025-12-13T23:21:12.000Z</time></trkpt>
        <trkpt lat="29.749071" lon="103.524075"><ele>758.4184</ele><time>2025-12-13T23:21:18.000Z</time></trkpt>
        <trkpt lat="29.749116" lon="103.524063"><ele>758.7578</ele><time>2025-12-13T23:21:24.000Z</time></trkpt>
        <trkpt lat="29.749164" lon="103.524043"><ele>758.97034</ele><time>2025-12-13T23:21:30.000Z</time></trkpt>
        <trkpt lat="29.749208" lon="103.524014"><ele>756.5106</ele><time>2025-12-13T23:21:39.000Z</time></trkpt>
        <trkpt lat="29.74925" lon="103.523979"><ele>756.9856</ele><time>2025-12-13T23:21:44.000Z</time></trkpt>
        <trkpt lat="29.749296" lon="103.523972"><ele>755.9918</ele><time>2025-12-13T23:21:48.000Z</time></trkpt>
        <trkpt lat="29.749349" lon="103.523981"><ele>754.6506</ele><time>2025-12-13T23:21:53.000Z</time></trkpt>
        <trkpt lat="29.749395" lon="103.524019"><ele>752.6298</ele><time>2025-12-13T23:21:57.000Z</time></trkpt>
        <trkpt lat="29.749446" lon="103.524022"><ele>751.91077</ele><time>2025-12-13T23:22:01.000Z</time></trkpt>
        <trkpt lat="29.749478" lon="103.523984"><ele>753.11163</ele><time>2025-12-13T23:22:08.000Z</time></trkpt>
        <trkpt lat="29.749512" lon="103.523949"><ele>752.2025</ele><time>2025-12-13T23:22:14.000Z</time></trkpt>
        <trkpt lat="29.749554" lon="103.523918"><ele>752.13666</ele><time>2025-12-13T23:22:20.000Z</time></trkpt>
        <trkpt lat="29.749607" lon="103.523921"><ele>751.7531</ele><time>2025-12-13T23:22:26.000Z</time></trkpt>
        <trkpt lat="29.749651" lon="103.523943"><ele>750.6982</ele><time>2025-12-13T23:22:30.000Z</time></trkpt>
        <trkpt lat="29.749698" lon="103.52397"><ele>750.04517</ele><time>2025-12-13T23:22:35.000Z</time></trkpt>
        <trkpt lat="29.749737" lon="103.52392"><ele>750.0496</ele><time>2025-12-13T23:22:40.000Z</time></trkpt>
        <trkpt lat="29.749757" lon="103.523861"><ele>749.1375</ele><time>2025-12-13T23:22:45.000Z</time></trkpt>
        <trkpt lat="29.749779" lon="103.523802"><ele>749.54266</ele><time>2025-12-13T23:22:49.000Z</time></trkpt>
        <trkpt lat="29.749803" lon="103.523757"><ele>747.7366</ele><time>2025-12-13T23:22:55.000Z</time></trkpt>
        <trkpt lat="29.749825" lon="103.52371"><ele>747.68</ele><time>2025-12-13T23:23:01.000Z</time></trkpt>
        <trkpt lat="29.749853" lon="103.523669"><ele>744.72534</ele><time>2025-12-13T23:23:09.000Z</time></trkpt>
        <trkpt lat="29.749902" lon="103.52366"><ele>742.6883</ele><time>2025-12-13T23:23:15.000Z</time></trkpt>
        <trkpt lat="29.749943" lon="103.523684"><ele>740.3096</ele><time>2025-12-13T23:23:23.000Z</time></trkpt>
        <trkpt lat="29.74998" lon="103.523722"><ele>739.32574</ele><time>2025-12-13T23:23:29.000Z</time></trkpt>
        <trkpt lat="29.750025" lon="103.523744"><ele>737.655</ele><time>2025-12-13T23:23:51.000Z</time></trkpt>
        <trkpt lat="29.750067" lon="103.523711"><ele>738.7335</ele><time>2025-12-13T23:23:56.000Z</time></trkpt>
        <trkpt lat="29.750115" lon="103.523699"><ele>739.5295</ele><time>2025-12-13T23:24:02.000Z</time></trkpt>
        <trkpt lat="29.750159" lon="103.523681"><ele>739.2957</ele><time>2025-12-13T23:24:08.000Z</time></trkpt>
        <trkpt lat="29.750205" lon="103.523662"><ele>739.69055</ele><time>2025-12-13T23:24:12.000Z</time></trkpt>
        <trkpt lat="29.750243" lon="103.52363"><ele>740.4776</ele><time>2025-12-13T23:24:18.000Z</time></trkpt>
        <trkpt lat="29.750243" lon="103.523574"><ele>740.818</ele><time>2025-12-13T23:24:23.000Z</time></trkpt>
        <trkpt lat="29.75022" lon="103.52352"><ele>741.9692</ele><time>2025-12-13T23:24:46.000Z</time></trkpt>
        <trkpt lat="29.750244" lon="103.52347"><ele>740.5184</ele><time>2025-12-13T23:24:53.000Z</time></trkpt>
        <trkpt lat="29.750283" lon="103.523431"><ele>740.02924</ele><time>2025-12-13T23:24:59.000Z</time></trkpt>
        <trkpt lat="29.750293" lon="103.523356"><ele>738.91974</ele><time>2025-12-13T23:26:16.000Z</time></trkpt>
        <trkpt lat="29.750268" lon="103.523365"><ele>734.19666</ele><time>2025-12-13T23:26:35.000Z</time></trkpt>
        <trkpt lat="29.750288" lon="103.523345"><ele>736.50366</ele><time>2025-12-13T23:26:46.000Z</time></trkpt>
        <trkpt lat="29.750334" lon="103.523339"><ele>735.28046</ele><time>2025-12-13T23:26:53.000Z</time></trkpt>
        <trkpt lat="29.750378" lon="103.523323"><ele>736.4041</ele><time>2025-12-13T23:27:03.000Z</time></trkpt>
        <trkpt lat="29.750407" lon="103.523283"><ele>735.20215</ele><time>2025-12-13T23:27:11.000Z</time></trkpt>
        <trkpt lat="29.750364" lon="103.523259"><ele>735.0153</ele><time>2025-12-13T23:27:24.000Z</time></trkpt>
        <trkpt lat="29.750356" lon="103.523206"><ele>734.15265</ele><time>2025-12-13T23:27:32.000Z</time></trkpt>
        <trkpt lat="29.75034" lon="103.523154"><ele>735.9779</ele><time>2025-12-13T23:27:39.000Z</time></trkpt>
        <trkpt lat="29.750358" lon="103.523103"><ele>735.5078</ele><time>2025-12-13T23:27:52.000Z</time></trkpt>
        <trkpt lat="29.750311" lon="103.523111"><ele>730.31256</ele><time>2025-12-13T23:28:30.000Z</time></trkpt>
        <trkpt lat="29.750348" lon="103.52308"><ele>726.63214</ele><time>2025-12-13T23:28:58.000Z</time></trkpt>
        <trkpt lat="29.750353" lon="103.523026"><ele>727.833</ele><time>2025-12-13T23:29:08.000Z</time></trkpt>
        <trkpt lat="29.750324" lon="103.523065"><ele>729.8289</ele><time>2025-12-13T23:30:10.000Z</time></trkpt>
        <trkpt lat="29.750317" lon="103.523006"><ele>728.0522</ele><time>2025-12-13T23:30:26.000Z</time></trkpt>
        <trkpt lat="29.750294" lon="103.522962"><ele>726.3577</ele><time>2025-12-13T23:31:11.000Z</time></trkpt>
        <trkpt lat="29.75028" lon="103.523014"><ele>725.0101</ele><time>2025-12-13T23:31:22.000Z</time></trkpt>
        <trkpt lat="29.750293" lon="103.522962"><ele>726.9221</ele><time>2025-12-13T23:31:56.000Z</time></trkpt>
        <trkpt lat="29.750334" lon="103.522983"><ele>726.7281</ele><time>2025-12-13T23:32:09.000Z</time></trkpt>
        <trkpt lat="29.750366" lon="103.523028"><ele>726.7844</ele><time>2025-12-13T23:32:18.000Z</time></trkpt>
        <trkpt lat="29.750346" lon="103.523075"><ele>728.7506</ele><time>2025-12-13T23:32:33.000Z</time></trkpt>
        <trkpt lat="29.750359" lon="103.523129"><ele>730.79736</ele><time>2025-12-13T23:32:43.000Z</time></trkpt>
        <trkpt lat="29.750346" lon="103.523186"><ele>733.84607</ele><time>2025-12-13T23:33:22.000Z</time></trkpt>
        <trkpt lat="29.750359" lon="103.523238"><ele>732.19775</ele><time>2025-12-13T23:33:32.000Z</time></trkpt>
        <trkpt lat="29.750374" lon="103.523293"><ele>731.5672</ele><time>2025-12-13T23:33:38.000Z</time></trkpt>
        <trkpt lat="29.750392" lon="103.523344"><ele>733.41705</ele><time>2025-12-13T23:33:44.000Z</time></trkpt>
        <trkpt lat="29.75042" lon="103.523388"><ele>734.1317</ele><time>2025-12-13T23:33:50.000Z</time></trkpt>
        <trkpt lat="29.750378" lon="103.523369"><ele>738.6147</ele><time>2025-12-13T23:35:15.000Z</time></trkpt>
        <trkpt lat="29.750329" lon="103.523386"><ele>738.6323</ele><time>2025-12-13T23:35:29.000Z</time></trkpt>
        <trkpt lat="29.750357" lon="103.523339"><ele>736.15393</ele><time>2025-12-13T23:35:47.000Z</time></trkpt>
        <trkpt lat="29.750397" lon="103.523308"><ele>736.95917</ele><time>2025-12-13T23:35:54.000Z</time></trkpt>
        <trkpt lat="29.750406" lon="103.523379"><ele>737.13043</ele><time>2025-12-13T23:36:27.000Z</time></trkpt>
        <trkpt lat="29.750366" lon="103.523338"><ele>738.56366</ele><time>2025-12-13T23:36:48.000Z</time></trkpt>
        <trkpt lat="29.750358" lon="103.523219"><ele>735.99304</ele><time>2025-12-13T23:36:59.000Z</time></trkpt>
        <trkpt lat="29.750341" lon="103.523167"><ele>737.45514</ele><time>2025-12-13T23:37:02.000Z</time></trkpt>
        <trkpt lat="29.750344" lon="103.523111"><ele>735.0572</ele><time>2025-12-13T23:37:08.000Z</time></trkpt>
        <trkpt lat="29.750374" lon="103.523153"><ele>731.6972</ele><time>2025-12-13T23:37:30.000Z</time></trkpt>
        <trkpt lat="29.750422" lon="103.523159"><ele>731.26794</ele><time>2025-12-13T23:37:40.000Z</time></trkpt>
        <trkpt lat="29.750375" lon="103.523151"><ele>734.6884</ele><time>2025-12-13T23:37:56.000Z</time></trkpt>
        <trkpt lat="29.750373" lon="103.523098"><ele>730.42255</ele><time>2025-12-13T23:38:13.000Z</time></trkpt>
        <trkpt lat="29.750338" lon="103.523057"><ele>728.62006</ele><time>2025-12-13T23:38:28.000Z</time></trkpt>
        <trkpt lat="29.750345" lon="103.52311"><ele>729.0235</ele><time>2025-12-13T23:38:36.000Z</time></trkpt>
        <trkpt lat="29.750387" lon="103.523018"><ele>731.8343</ele><time>2025-12-13T23:38:58.000Z</time></trkpt>
        <trkpt lat="29.75037" lon="103.523002"><ele>731.7556</ele><time>2025-12-13T23:39:03.000Z</time></trkpt>
        <trkpt lat="29.750329" lon="103.522976"><ele>726.0828</ele><time>2025-12-13T23:39:21.000Z</time></trkpt>
        <trkpt lat="29.750325" lon="103.522924"><ele>722.67944</ele><time>2025-12-13T23:40:13.000Z</time></trkpt>
        <trkpt lat="29.750273" lon="103.522911"><ele>722.0912</ele><time>2025-12-13T23:40:32.000Z</time></trkpt>
        <trkpt lat="29.750237" lon="103.522876"><ele>720.5562</ele><time>2025-12-13T23:40:46.000Z</time></trkpt>
        <trkpt lat="29.750266" lon="103.522836"><ele>717.43054</ele><time>2025-12-13T23:41:00.000Z</time></trkpt>
        <trkpt lat="29.750237" lon="103.522794"><ele>715.6647</ele><time>2025-12-13T23:41:07.000Z</time></trkpt>
        <trkpt lat="29.750224" lon="103.522744"><ele>716.08563</ele><time>2025-12-13T23:41:14.000Z</time></trkpt>
        <trkpt lat="29.750258" lon="103.522782"><ele>710.9672</ele><time>2025-12-13T23:41:48.000Z</time></trkpt>
        <trkpt lat="29.750226" lon="103.522735"><ele>712.3734</ele><time>2025-12-13T23:42:02.000Z</time></trkpt>
        <trkpt lat="29.750181" lon="103.522755"><ele>712.26886</ele><time>2025-12-13T23:42:07.000Z</time></trkpt>
        <trkpt lat="29.75014" lon="103.522724"><ele>709.8098</ele><time>2025-12-13T23:42:17.000Z</time></trkpt>
        <trkpt lat="29.750124" lon="103.522667"><ele>708.431</ele><time>2025-12-13T23:42:31.000Z</time></trkpt>
        <trkpt lat="29.750092" lon="103.52263"><ele>708.63947</ele><time>2025-12-13T23:42:39.000Z</time></trkpt>
        <trkpt lat="29.750046" lon="103.522664"><ele>712.3221</ele><time>2025-12-13T23:43:04.000Z</time></trkpt>
        <trkpt lat="29.750042" lon="103.522609"><ele>701.82495</ele><time>2025-12-13T23:43:24.000Z</time></trkpt>
        <trkpt lat="29.750024" lon="103.522557"><ele>699.5475</ele><time>2025-12-13T23:43:34.000Z</time></trkpt>
        <trkpt lat="29.749983" lon="103.522523"><ele>697.3628</ele><time>2025-12-13T23:43:45.000Z</time></trkpt>
        <trkpt lat="29.749943" lon="103.522552"><ele>696.5186</ele><time>2025-12-13T23:43:50.000Z</time></trkpt>
        <trkpt lat="29.749961" lon="103.522603"><ele>694.7517</ele><time>2025-12-13T23:43:59.000Z</time></trkpt>
        <trkpt lat="29.749939" lon="103.52255"><ele>693.78876</ele><time>2025-12-13T23:44:06.000Z</time></trkpt>
        <trkpt lat="29.749944" lon="103.522495"><ele>692.7904</ele><time>2025-12-13T23:44:10.000Z</time></trkpt>
        <trkpt lat="29.749939" lon="103.522427"><ele>690.29266</ele><time>2025-12-13T23:44:17.000Z</time></trkpt>
        <trkpt lat="29.7499" lon="103.522455"><ele>688.86273</ele><time>2025-12-13T23:44:23.000Z</time></trkpt>
        <trkpt lat="29.749887" lon="103.522529"><ele>687.7549</ele><time>2025-12-13T23:44:27.000Z</time></trkpt>
        <trkpt lat="29.749875" lon="103.522473"><ele>686.5215</ele><time>2025-12-13T23:44:40.000Z</time></trkpt>
        <trkpt lat="29.749891" lon="103.522422"><ele>685.1963</ele><time>2025-12-13T23:44:44.000Z</time></trkpt>
        <trkpt lat="29.74991" lon="103.522372"><ele>684.1769</ele><time>2025-12-13T23:44:56.000Z</time></trkpt>
        <trkpt lat="29.749958" lon="103.522336"><ele>682.88715</ele><time>2025-12-13T23:45:09.000Z</time></trkpt>
        <trkpt lat="29.750008" lon="103.52233"><ele>682.2588</ele><time>2025-12-13T23:45:15.000Z</time></trkpt>
        <trkpt lat="29.750024" lon="103.522275"><ele>681.75104</ele><time>2025-12-13T23:45:29.000Z</time></trkpt>
        <trkpt lat="29.749978" lon="103.522272"><ele>681.3691</ele><time>2025-12-13T23:45:37.000Z</time></trkpt>
        <trkpt lat="29.749937" lon="103.522239"><ele>680.84033</ele><time>2025-12-13T23:45:44.000Z</time></trkpt>
        <trkpt lat="29.749897" lon="103.522268"><ele>679.9083</ele><time>2025-12-13T23:45:49.000Z</time></trkpt>
        <trkpt lat="29.749853" lon="103.522302"><ele>678.69604</ele><time>2025-12-13T23:45:55.000Z</time></trkpt>
        <trkpt lat="29.749807" lon="103.522314"><ele>678.2854</ele><time>2025-12-13T23:46:07.000Z</time></trkpt>
        <trkpt lat="29.749796" lon="103.522259"><ele>675.3215</ele><time>2025-12-13T23:46:26.000Z</time></trkpt>
        <trkpt lat="29.749793" lon="103.522205"><ele>674.60364</ele><time>2025-12-13T23:46:33.000Z</time></trkpt>
        <trkpt lat="29.749745" lon="103.522174"><ele>674.637</ele><time>2025-12-13T23:46:43.000Z</time></trkpt>
        <trkpt lat="29.749688" lon="103.522165"><ele>673.63055</ele><time>2025-12-13T23:46:50.000Z</time></trkpt>
        <trkpt lat="29.74967" lon="103.522107"><ele>673.49786</ele><time>2025-12-13T23:46:57.000Z</time></trkpt>
        <trkpt lat="29.749667" lon="103.522053"><ele>673.8025</ele><time>2025-12-13T23:47:01.000Z</time></trkpt>
        <trkpt lat="29.749652" lon="103.522"><ele>673.692</ele><time>2025-12-13T23:47:06.000Z</time></trkpt>
        <trkpt lat="29.749681" lon="103.521955"><ele>672.32074</ele><time>2025-12-13T23:47:12.000Z</time></trkpt>
        <trkpt lat="29.749727" lon="103.521937"><ele>672.06726</ele><time>2025-12-13T23:47:16.000Z</time></trkpt>
        <trkpt lat="29.749778" lon="103.521912"><ele>670.0912</ele><time>2025-12-13T23:47:20.000Z</time></trkpt>
        <trkpt lat="29.749813" lon="103.521866"><ele>669.84375</ele><time>2025-12-13T23:47:25.000Z</time></trkpt>
        <trkpt lat="29.749842" lon="103.521825"><ele>669.9577</ele><time>2025-12-13T23:47:30.000Z</time></trkpt>
        <trkpt lat="29.749876" lon="103.521781"><ele>669.7317</ele><time>2025-12-13T23:47:35.000Z</time></trkpt>
        <trkpt lat="29.749887" lon="103.521721"><ele>670.6391</ele><time>2025-12-13T23:47:39.000Z</time></trkpt>
        <trkpt lat="29.749947" lon="103.521704"><ele>671.6964</ele><time>2025-12-13T23:47:45.000Z</time></trkpt>
        <trkpt lat="29.74999" lon="103.521673"><ele>672.2086</ele><time>2025-12-13T23:47:51.000Z</time></trkpt>
        <trkpt lat="29.750026" lon="103.521635"><ele>672.4221</ele><time>2025-12-13T23:47:55.000Z</time></trkpt>
        <trkpt lat="29.750068" lon="103.5216"><ele>671.479</ele><time>2025-12-13T23:48:01.000Z</time></trkpt>
        <trkpt lat="29.750114" lon="103.521571"><ele>672.2747</ele><time>2025-12-13T23:48:07.000Z</time></trkpt>
        <trkpt lat="29.750157" lon="103.521544"><ele>672.4139</ele><time>2025-12-13T23:48:12.000Z</time></trkpt>
        <trkpt lat="29.750199" lon="103.521513"><ele>673.5913</ele><time>2025-12-13T23:48:19.000Z</time></trkpt>
        <trkpt lat="29.750245" lon="103.521496"><ele>673.56213</ele><time>2025-12-13T23:48:26.000Z</time></trkpt>
        <trkpt lat="29.750295" lon="103.521485"><ele>673.62634</ele><time>2025-12-13T23:48:32.000Z</time></trkpt>
        <trkpt lat="29.750333" lon="103.521442"><ele>673.7527</ele><time>2025-12-13T23:48:38.000Z</time></trkpt>
        <trkpt lat="29.750375" lon="103.521421"><ele>673.8426</ele><time>2025-12-13T23:48:43.000Z</time></trkpt>
        <trkpt lat="29.750426" lon="103.521396"><ele>675.02374</ele><time>2025-12-13T23:48:48.000Z</time></trkpt>
        <trkpt lat="29.750473" lon="103.521359"><ele>675.8154</ele><time>2025-12-13T23:48:53.000Z</time></trkpt>
        <trkpt lat="29.750519" lon="103.521345"><ele>676.52026</ele><time>2025-12-13T23:48:57.000Z</time></trkpt>
        <trkpt lat="29.750566" lon="103.521347"><ele>677.5802</ele><time>2025-12-13T23:49:01.000Z</time></trkpt>
        <trkpt lat="29.750618" lon="103.521336"><ele>677.90717</ele><time>2025-12-13T23:49:05.000Z</time></trkpt>
        <trkpt lat="29.750674" lon="103.521374"><ele>680.9881</ele><time>2025-12-13T23:49:08.000Z</time></trkpt>
        <trkpt lat="29.750695" lon="103.521429"><ele>679.94714</ele><time>2025-12-13T23:49:12.000Z</time></trkpt>
        <trkpt lat="29.750735" lon="103.521492"><ele>681.1259</ele><time>2025-12-13T23:49:16.000Z</time></trkpt>
        <trkpt lat="29.750786" lon="103.521494"><ele>680.2535</ele><time>2025-12-13T23:49:19.000Z</time></trkpt>
        <trkpt lat="29.750824" lon="103.521448"><ele>680.5938</ele><time>2025-12-13T23:49:22.000Z</time></trkpt>
        <trkpt lat="29.750867" lon="103.521417"><ele>681.0015</ele><time>2025-12-13T23:49:26.000Z</time></trkpt>
        <trkpt lat="29.750917" lon="103.521393"><ele>680.59644</ele><time>2025-12-13T23:49:31.000Z</time></trkpt>
        <trkpt lat="29.750957" lon="103.521365"><ele>682.0311</ele><time>2025-12-13T23:49:38.000Z</time></trkpt>
        <trkpt lat="29.750983" lon="103.52132"><ele>683.43066</ele><time>2025-12-13T23:49:45.000Z</time></trkpt>
        <trkpt lat="29.751029" lon="103.521307"><ele>682.5769</ele><time>2025-12-13T23:49:53.000Z</time></trkpt>
        <trkpt lat="29.751079" lon="103.521297"><ele>683.29944</ele><time>2025-12-13T23:49:58.000Z</time></trkpt>
        <trkpt lat="29.751131" lon="103.52128"><ele>684.21423</ele><time>2025-12-13T23:50:03.000Z</time></trkpt>
        <trkpt lat="29.75118" lon="103.521278"><ele>684.84827</ele><time>2025-12-13T23:50:07.000Z</time></trkpt>
        <trkpt lat="29.751228" lon="103.521309"><ele>684.9229</ele><time>2025-12-13T23:50:11.000Z</time></trkpt>
        <trkpt lat="29.751254" lon="103.521364"><ele>683.72186</ele><time>2025-12-13T23:50:15.000Z</time></trkpt>
        <trkpt lat="29.751279" lon="103.52142"><ele>682.6576</ele><time>2025-12-13T23:50:20.000Z</time></trkpt>
        <trkpt lat="29.751321" lon="103.521467"><ele>681.50226</ele><time>2025-12-13T23:50:25.000Z</time></trkpt>
        <trkpt lat="29.751362" lon="103.521503"><ele>680.31726</ele><time>2025-12-13T23:50:30.000Z</time></trkpt>
        <trkpt lat="29.751403" lon="103.521528"><ele>679.8637</ele><time>2025-12-13T23:50:35.000Z</time></trkpt>
        <trkpt lat="29.751457" lon="103.521527"><ele>679.63885</ele><time>2025-12-13T23:50:40.000Z</time></trkpt>
        <trkpt lat="29.751483" lon="103.52148"><ele>680.3286</ele><time>2025-12-13T23:50:44.000Z</time></trkpt>
        <trkpt lat="29.75152" lon="103.521445"><ele>681.33356</ele><time>2025-12-13T23:50:50.000Z</time></trkpt>
        <trkpt lat="29.751569" lon="103.521441"><ele>682.01373</ele><time>2025-12-13T23:50:54.000Z</time></trkpt>
        <trkpt lat="29.75162" lon="103.521443"><ele>682.24927</ele><time>2025-12-13T23:51:00.000Z</time></trkpt>
        <trkpt lat="29.751659" lon="103.521474"><ele>682.57715</ele><time>2025-12-13T23:51:05.000Z</time></trkpt>
        <trkpt lat="29.751704" lon="103.521512"><ele>682.7863</ele><time>2025-12-13T23:51:11.000Z</time></trkpt>
        <trkpt lat="29.751752" lon="103.521536"><ele>683.48566</ele><time>2025-12-13T23:51:17.000Z</time></trkpt>
        <trkpt lat="29.751805" lon="103.521543"><ele>685.97815</ele><time>2025-12-13T23:51:35.000Z</time></trkpt>
        <trkpt lat="29.751852" lon="103.521513"><ele>686.5006</ele><time>2025-12-13T23:51:43.000Z</time></trkpt>
        <trkpt lat="29.751908" lon="103.521525"><ele>687.2254</ele><time>2025-12-13T23:51:50.000Z</time></trkpt>
        <trkpt lat="29.751953" lon="103.52153"><ele>687.76776</ele><time>2025-12-13T23:51:57.000Z</time></trkpt>
        <trkpt lat="29.751999" lon="103.521542"><ele>687.86176</ele><time>2025-12-13T23:52:04.000Z</time></trkpt>
        <trkpt lat="29.752041" lon="103.521567"><ele>686.5097</ele><time>2025-12-13T23:52:13.000Z</time></trkpt>
        <trkpt lat="29.752089" lon="103.52157"><ele>686.47363</ele><time>2025-12-13T23:52:18.000Z</time></trkpt>
        <trkpt lat="29.752137" lon="103.521574"><ele>687.05884</ele><time>2025-12-13T23:52:23.000Z</time></trkpt>
        <trkpt lat="29.752185" lon="103.521579"><ele>687.7388</ele><time>2025-12-13T23:52:29.000Z</time></trkpt>
        <trkpt lat="29.752227" lon="103.521553"><ele>687.98267</ele><time>2025-12-13T23:52:34.000Z</time></trkpt>
        <trkpt lat="29.752274" lon="103.521562"><ele>686.0621</ele><time>2025-12-13T23:53:02.000Z</time></trkpt>
        <trkpt lat="29.752316" lon="103.521542"><ele>686.71796</ele><time>2025-12-13T23:53:08.000Z</time></trkpt>
        <trkpt lat="29.752351" lon="103.521577"><ele>685.24567</ele><time>2025-12-13T23:53:15.000Z</time></trkpt>
        <trkpt lat="29.752384" lon="103.521614"><ele>677.3322</ele><time>2025-12-13T23:53:34.000Z</time></trkpt>
        <trkpt lat="29.752433" lon="103.521639"><ele>671.39453</ele><time>2025-12-13T23:53:50.000Z</time></trkpt>
        <trkpt lat="29.752437" lon="103.521728"><ele>670.8114</ele><time>2025-12-13T23:53:55.000Z</time></trkpt>
        <trkpt lat="29.752422" lon="103.521785"><ele>670.7632</ele><time>2025-12-13T23:53:59.000Z</time></trkpt>
        <trkpt lat="29.752377" lon="103.521825"><ele>668.2202</ele><time>2025-12-13T23:54:10.000Z</time></trkpt>
        <trkpt lat="29.752357" lon="103.521872"><ele>669.034</ele><time>2025-12-13T23:54:20.000Z</time></trkpt>
        <trkpt lat="29.752399" lon="103.52192"><ele>670.18945</ele><time>2025-12-13T23:54:26.000Z</time></trkpt>
        <trkpt lat="29.752347" lon="103.52192"><ele>671.117</ele><time>2025-12-13T23:54:34.000Z</time></trkpt>
        <trkpt lat="29.752385" lon="103.521869"><ele>668.9569</ele><time>2025-12-13T23:54:45.000Z</time></trkpt>
        <trkpt lat="29.752272" lon="103.521831"><ele>670.39185</ele><time>2025-12-13T23:54:51.000Z</time></trkpt>
        <trkpt lat="29.752401" lon="103.521868"><ele>670.9528</ele><time>2025-12-13T23:54:55.000Z</time></trkpt>
        <trkpt lat="29.752367" lon="103.521845"><ele>670.3748</ele><time>2025-12-13T23:54:59.000Z</time></trkpt>
        <trkpt lat="29.752423" lon="103.521842"><ele>670.5678</ele><time>2025-12-13T23:55:00.000Z</time></trkpt>
        <trkpt lat="29.752482" lon="103.521824"><ele>670.70233</ele><time>2025-12-13T23:55:01.000Z</time></trkpt>
        <trkpt lat="29.75255" lon="103.521797"><ele>669.98926</ele><time>2025-12-13T23:55:02.000Z</time></trkpt>
        <trkpt lat="29.752432" lon="103.521822"><ele>668.414</ele><time>2025-12-13T23:55:12.000Z</time></trkpt>
        <trkpt lat="29.752451" lon="103.52183"><ele>667.5755</ele><time>2025-12-13T23:55:15.000Z</time></trkpt>
        <trkpt lat="29.752426" lon="103.521913"><ele>667.3824</ele><time>2025-12-13T23:55:19.000Z</time></trkpt>
        <trkpt lat="29.752279" lon="103.522113"><ele>668.4959</ele><time>2025-12-13T23:55:23.000Z</time></trkpt>
        <trkpt lat="29.752377" lon="103.521962"><ele>661.55237</ele><time>2025-12-13T23:55:50.000Z</time></trkpt>
        <trkpt lat="29.752426" lon="103.521944"><ele>660.02563</ele><time>2025-12-13T23:55:56.000Z</time></trkpt>
        <trkpt lat="29.752475" lon="103.521958"><ele>659.9657</ele><time>2025-12-13T23:56:00.000Z</time></trkpt>
        <trkpt lat="29.752519" lon="103.521926"><ele>658.0251</ele><time>2025-12-13T23:56:10.000Z</time></trkpt>
        <trkpt lat="29.752558" lon="103.521882"><ele>648.08417</ele><time>2025-12-13T23:56:36.000Z</time></trkpt>
        <trkpt lat="29.752587" lon="103.52183"><ele>650.8865</ele><time>2025-12-13T23:56:51.000Z</time></trkpt>
        <trkpt lat="29.752503" lon="103.521783"><ele>650.0785</ele><time>2025-12-13T23:56:59.000Z</time></trkpt>
        <trkpt lat="29.752547" lon="103.521809"><ele>650.9018</ele><time>2025-12-13T23:57:00.000Z</time></trkpt>
        <trkpt lat="29.752587" lon="103.521778"><ele>644.6847</ele><time>2025-12-13T23:57:20.000Z</time></trkpt>
        <trkpt lat="29.752624" lon="103.52174"><ele>642.7346</ele><time>2025-12-13T23:57:45.000Z</time></trkpt>
        <trkpt lat="29.752669" lon="103.521752"><ele>644.562</ele><time>2025-12-13T23:57:52.000Z</time></trkpt>
        <trkpt lat="29.752722" lon="103.521742"><ele>639.9539</ele><time>2025-12-13T23:58:09.000Z</time></trkpt>
        <trkpt lat="29.752767" lon="103.521752"><ele>636.54675</ele><time>2025-12-13T23:58:18.000Z</time></trkpt>
        <trkpt lat="29.752804" lon="103.521717"><ele>635.6849</ele><time>2025-12-13T23:58:28.000Z</time></trkpt>
        <trkpt lat="29.75282" lon="103.521666"><ele>633.2888</ele><time>2025-12-13T23:58:36.000Z</time></trkpt>
        <trkpt lat="29.752835" lon="103.521716"><ele>625.57245</ele><time>2025-12-13T23:58:55.000Z</time></trkpt>
        <trkpt lat="29.752875" lon="103.521751"><ele>620.9005</ele><time>2025-12-13T23:59:06.000Z</time></trkpt>
        <trkpt lat="29.752926" lon="103.521762"><ele>617.4888</ele><time>2025-12-13T23:59:19.000Z</time></trkpt>
        <trkpt lat="29.75297" lon="103.521799"><ele>613.2282</ele><time>2025-12-13T23:59:33.000Z</time></trkpt>
        <trkpt lat="29.753011" lon="103.521822"><ele>613.7469</ele><time>2025-12-13T23:59:42.000Z</time></trkpt>
        <trkpt lat="29.753059" lon="103.521843"><ele>614.1136</ele><time>2025-12-13T23:59:57.000Z</time></trkpt>
        <trkpt lat="29.753107" lon="103.521854"><ele>607.2298</ele><time>2025-12-14T00:00:18.000Z</time></trkpt>
        <trkpt lat="29.75315" lon="103.521875"><ele>604.0817</ele><time>2025-12-14T00:00:37.000Z</time></trkpt>
        <trkpt lat="29.753196" lon="103.521873"><ele>602.85394</ele><time>2025-12-14T00:00:47.000Z</time></trkpt>
        <trkpt lat="29.753242" lon="103.521886"><ele>600.92084</ele><time>2025-12-14T00:00:55.000Z</time></trkpt>
        <trkpt lat="29.753287" lon="103.521867"><ele>597.5669</ele><time>2025-12-14T00:01:10.000Z</time></trkpt>
        <trkpt lat="29.753328" lon="103.521897"><ele>596.5883</ele><time>2025-12-14T00:01:28.000Z</time></trkpt>
        <trkpt lat="29.753375" lon="103.521923"><ele>593.4498</ele><time>2025-12-14T00:01:38.000Z</time></trkpt>
        <trkpt lat="29.753427" lon="103.521935"><ele>591.0828</ele><time>2025-12-14T00:01:57.000Z</time></trkpt>
        <trkpt lat="29.753477" lon="103.521947"><ele>589.4692</ele><time>2025-12-14T00:02:06.000Z</time></trkpt>
        <trkpt lat="29.753526" lon="103.521957"><ele>588.82025</ele><time>2025-12-14T00:02:18.000Z</time></trkpt>
        <trkpt lat="29.753567" lon="103.521977"><ele>586.11725</ele><time>2025-12-14T00:02:34.000Z</time></trkpt>
        <trkpt lat="29.753615" lon="103.521993"><ele>584.6571</ele><time>2025-12-14T00:02:47.000Z</time></trkpt>
        <trkpt lat="29.753655" lon="103.522019"><ele>582.0853</ele><time>2025-12-14T00:03:00.000Z</time></trkpt>
        <trkpt lat="29.753703" lon="103.522033"><ele>579.7054</ele><time>2025-12-14T00:03:07.000Z</time></trkpt>
        <trkpt lat="29.753746" lon="103.522064"><ele>578.5581</ele><time>2025-12-14T00:03:16.000Z</time></trkpt>
        <trkpt lat="29.753787" lon="103.522092"><ele>578.8372</ele><time>2025-12-14T00:03:26.000Z</time></trkpt>
        <trkpt lat="29.75383" lon="103.522123"><ele>577.84045</ele><time>2025-12-14T00:03:33.000Z</time></trkpt>
        <trkpt lat="29.753872" lon="103.522142"><ele>575.4992</ele><time>2025-12-14T00:03:41.000Z</time></trkpt>
        <trkpt lat="29.753921" lon="103.522143"><ele>574.68805</ele><time>2025-12-14T00:03:46.000Z</time></trkpt>
        <trkpt lat="29.753964" lon="103.522125"><ele>572.05005</ele><time>2025-12-14T00:03:59.000Z</time></trkpt>
        <trkpt lat="29.754008" lon="103.522109"><ele>571.39606</ele><time>2025-12-14T00:04:10.000Z</time></trkpt>
        <trkpt lat="29.754042" lon="103.522144"><ele>571.10266</ele><time>2025-12-14T00:04:15.000Z</time></trkpt>
        <trkpt lat="29.754075" lon="103.522179"><ele>570.82056</ele><time>2025-12-14T00:04:22.000Z</time></trkpt>
        <trkpt lat="29.754126" lon="103.522172"><ele>570.7439</ele><time>2025-12-14T00:04:26.000Z</time></trkpt>
        <trkpt lat="29.754101" lon="103.522221"><ele>572.23627</ele><time>2025-12-14T00:05:27.000Z</time></trkpt>
        <trkpt lat="29.754098" lon="103.522283"><ele>570.67926</ele><time>2025-12-14T00:05:38.000Z</time></trkpt>
        <trkpt lat="29.754091" lon="103.522337"><ele>568.8757</ele><time>2025-12-14T00:05:43.000Z</time></trkpt>
        <trkpt lat="29.754094" lon="103.522395"><ele>567.11316</ele><time>2025-12-14T00:05:49.000Z</time></trkpt>
        <trkpt lat="29.754096" lon="103.522449"><ele>565.7875</ele><time>2025-12-14T00:05:55.000Z</time></trkpt>
        <trkpt lat="29.75411" lon="103.52251"><ele>564.77295</ele><time>2025-12-14T00:06:01.000Z</time></trkpt>
        <trkpt lat="29.754121" lon="103.522565"><ele>564.21704</ele><time>2025-12-14T00:06:06.000Z</time></trkpt>
        <trkpt lat="29.754138" lon="103.52262"><ele>565.6013</ele><time>2025-12-14T00:06:19.000Z</time></trkpt>
        <trkpt lat="29.754135" lon="103.522679"><ele>565.6283</ele><time>2025-12-14T00:06:26.000Z</time></trkpt>
        <trkpt lat="29.75412" lon="103.522734"><ele>564.68097</ele><time>2025-12-14T00:06:31.000Z</time></trkpt>
        <trkpt lat="29.754109" lon="103.52279"><ele>564.3269</ele><time>2025-12-14T00:06:35.000Z</time></trkpt>
        <trkpt lat="29.754111" lon="103.522842"><ele>562.503</ele><time>2025-12-14T00:06:40.000Z</time></trkpt>
        <trkpt lat="29.754101" lon="103.522905"><ele>561.6206</ele><time>2025-12-14T00:06:45.000Z</time></trkpt>
        <trkpt lat="29.7541" lon="103.52296"><ele>562.1936</ele><time>2025-12-14T00:06:49.000Z</time></trkpt>
        <trkpt lat="29.754092" lon="103.523021"><ele>561.5033</ele><time>2025-12-14T00:06:54.000Z</time></trkpt>
        <trkpt lat="29.754082" lon="103.523082"><ele>560.002</ele><time>2025-12-14T00:07:00.000Z</time></trkpt>
        <trkpt lat="29.754089" lon="103.523135"><ele>558.83624</ele><time>2025-12-14T00:07:05.000Z</time></trkpt>
        <trkpt lat="29.754101" lon="103.523192"><ele>558.8307</ele><time>2025-12-14T00:07:10.000Z</time></trkpt>
        <trkpt lat="29.754133" lon="103.523237"><ele>558.8268</ele><time>2025-12-14T00:07:15.000Z</time></trkpt>
        <trkpt lat="29.754155" lon="103.523289"><ele>558.6784</ele><time>2025-12-14T00:07:26.000Z</time></trkpt>
        <trkpt lat="29.754202" lon="103.523333"><ele>557.47156</ele><time>2025-12-14T00:08:23.000Z</time></trkpt>
        <trkpt lat="29.754256" lon="103.523445"><ele>556.7002</ele><time>2025-12-14T00:08:27.000Z</time></trkpt>
        <trkpt lat="29.754294" lon="103.523539"><ele>556.18884</ele><time>2025-12-14T00:08:29.000Z</time></trkpt>
        <trkpt lat="29.754426" lon="103.523731"><ele>552.0261</ele><time>2025-12-14T00:08:32.000Z</time></trkpt>
        <trkpt lat="29.754465" lon="103.523786"><ele>552.1966</ele><time>2025-12-14T00:08:33.000Z</time></trkpt>
        <trkpt lat="29.754489" lon="103.523843"><ele>551.5995</ele><time>2025-12-14T00:08:34.000Z</time></trkpt>
        <trkpt lat="29.754505" lon="103.5239"><ele>550.98157</ele><time>2025-12-14T00:08:35.000Z</time></trkpt>
        <trkpt lat="29.754527" lon="103.523963"><ele>550.69543</ele><time>2025-12-14T00:08:36.000Z</time></trkpt>
        <trkpt lat="29.754548" lon="103.524024"><ele>550.0828</ele><time>2025-12-14T00:08:37.000Z</time></trkpt>
        <trkpt lat="29.75456" lon="103.524079"><ele>549.32623</ele><time>2025-12-14T00:08:38.000Z</time></trkpt>
        <trkpt lat="29.754562" lon="103.524138"><ele>548.57874</ele><time>2025-12-14T00:08:39.000Z</time></trkpt>
        <trkpt lat="29.754571" lon="103.52425"><ele>545.9669</ele><time>2025-12-14T00:08:41.000Z</time></trkpt>
        <trkpt lat="29.754567" lon="103.52431"><ele>545.0334</ele><time>2025-12-14T00:08:42.000Z</time></trkpt>
        <trkpt lat="29.754539" lon="103.52443"><ele>543.97</ele><time>2025-12-14T00:08:44.000Z</time></trkpt>
        <trkpt lat="29.754498" lon="103.524785"><ele>542.3733</ele><time>2025-12-14T00:08:51.000Z</time></trkpt>
        <trkpt lat="29.754432" lon="103.524864"><ele>541.4549</ele><time>2025-12-14T00:08:53.000Z</time></trkpt>
        <trkpt lat="29.754416" lon="103.52493"><ele>541.3854</ele><time>2025-12-14T00:08:55.000Z</time></trkpt>
        <trkpt lat="29.754372" lon="103.524988"><ele>541.2639</ele><time>2025-12-14T00:08:57.000Z</time></trkpt>
        <trkpt lat="29.754377" lon="103.525058"><ele>541.4914</ele><time>2025-12-14T00:08:59.000Z</time></trkpt>
        <trkpt lat="29.754396" lon="103.525129"><ele>541.1309</ele><time>2025-12-14T00:09:01.000Z</time></trkpt>
        <trkpt lat="29.754421" lon="103.525204"><ele>540.1767</ele><time>2025-12-14T00:09:03.000Z</time></trkpt>
        <trkpt lat="29.754411" lon="103.525278"><ele>539.4094</ele><time>2025-12-14T00:09:05.000Z</time></trkpt>
        <trkpt lat="29.754396" lon="103.525331"><ele>539.05133</ele><time>2025-12-14T00:09:06.000Z</time></trkpt>
        <trkpt lat="29.754381" lon="103.525397"><ele>538.24524</ele><time>2025-12-14T00:09:07.000Z</time></trkpt>
        <trkpt lat="29.754366" lon="103.525467"><ele>537.1423</ele><time>2025-12-14T00:09:08.000Z</time></trkpt>
        <trkpt lat="29.754339" lon="103.52554"><ele>536.1487</ele><time>2025-12-14T00:09:09.000Z</time></trkpt>
        <trkpt lat="29.754322" lon="103.525597"><ele>535.5495</ele><time>2025-12-14T00:09:10.000Z</time></trkpt>
        <trkpt lat="29.754311" lon="103.52565"><ele>534.53156</ele><time>2025-12-14T00:09:11.000Z</time></trkpt>
        <trkpt lat="29.754295" lon="103.525702"><ele>534.48883</ele><time>2025-12-14T00:09:12.000Z</time></trkpt>
        <trkpt lat="29.754317" lon="103.525801"><ele>533.0766</ele><time>2025-12-14T00:09:14.000Z</time></trkpt>
        <trkpt lat="29.754345" lon="103.525879"><ele>532.6404</ele><time>2025-12-14T00:09:16.000Z</time></trkpt>
        <trkpt lat="29.754397" lon="103.525939"><ele>531.9648</ele><time>2025-12-14T00:09:18.000Z</time></trkpt>
        <trkpt lat="29.754448" lon="103.526055"><ele>528.46576</ele><time>2025-12-14T00:09:20.000Z</time></trkpt>
        <trkpt lat="29.754427" lon="103.526146"><ele>527.3408</ele><time>2025-12-14T00:09:21.000Z</time></trkpt>
        <trkpt lat="29.754428" lon="103.526279"><ele>527.1878</ele><time>2025-12-14T00:09:22.000Z</time></trkpt>
        <trkpt lat="29.754391" lon="103.526326"><ele>526.51807</ele><time>2025-12-14T00:09:23.000Z</time></trkpt>
        <trkpt lat="29.754401" lon="103.526405"><ele>526.7371</ele><time>2025-12-14T00:09:24.000Z</time></trkpt>
        <trkpt lat="29.754417" lon="103.526464"><ele>526.3939</ele><time>2025-12-14T00:09:25.000Z</time></trkpt>
        <trkpt lat="29.754389" lon="103.526575"><ele>525.02344</ele><time>2025-12-14T00:09:27.000Z</time></trkpt>
        <trkpt lat="29.754393" lon="103.526631"><ele>524.9522</ele><time>2025-12-14T00:09:28.000Z</time></trkpt>
        <trkpt lat="29.754377" lon="103.526688"><ele>524.7536</ele><time>2025-12-14T00:09:29.000Z</time></trkpt>
        <trkpt lat="29.754374" lon="103.526788"><ele>523.9733</ele><time>2025-12-14T00:09:31.000Z</time></trkpt>
        <trkpt lat="29.754347" lon="103.526845"><ele>522.97015</ele><time>2025-12-14T00:09:32.000Z</time></trkpt>
        <trkpt lat="29.754337" lon="103.526908"><ele>522.15155</ele><time>2025-12-14T00:09:33.000Z</time></trkpt>
        <trkpt lat="29.754325" lon="103.526983"><ele>521.2332</ele><time>2025-12-14T00:09:34.000Z</time></trkpt>
        <trkpt lat="29.754329" lon="103.527065"><ele>520.3897</ele><time>2025-12-14T00:09:35.000Z</time></trkpt>
        <trkpt lat="29.754335" lon="103.527137"><ele>519.95905</ele><time>2025-12-14T00:09:36.000Z</time></trkpt>
        <trkpt lat="29.75434" lon="103.527189"><ele>520.21063</ele><time>2025-12-14T00:09:37.000Z</time></trkpt>
        <trkpt lat="29.754351" lon="103.527246"><ele>520.5928</ele><time>2025-12-14T00:09:38.000Z</time></trkpt>
        <trkpt lat="29.75442" lon="103.52734"><ele>520.7798</ele><time>2025-12-14T00:09:41.000Z</time></trkpt>
        <trkpt lat="29.754445" lon="103.52739"><ele>520.3771</ele><time>2025-12-14T00:09:42.000Z</time></trkpt>
        <trkpt lat="29.754487" lon="103.527443"><ele>518.8365</ele><time>2025-12-14T00:09:44.000Z</time></trkpt>
        <trkpt lat="29.754563" lon="103.527454"><ele>517.48126</ele><time>2025-12-14T00:09:46.000Z</time></trkpt>
        <trkpt lat="29.754611" lon="103.527461"><ele>516.6126</ele><time>2025-12-14T00:09:47.000Z</time></trkpt>
        <trkpt lat="29.75467" lon="103.527495"><ele>515.0487</ele><time>2025-12-14T00:09:49.000Z</time></trkpt>
        <trkpt lat="29.754737" lon="103.527524"><ele>513.55817</ele><time>2025-12-14T00:09:51.000Z</time></trkpt>
        <trkpt lat="29.754805" lon="103.527614"><ele>510.83572</ele><time>2025-12-14T00:09:53.000Z</time></trkpt>
        <trkpt lat="29.754805" lon="103.52775"><ele>509.61163</ele><time>2025-12-14T00:09:55.000Z</time></trkpt>
        <trkpt lat="29.754784" lon="103.527802"><ele>509.46216</ele><time>2025-12-14T00:09:56.000Z</time></trkpt>
        <trkpt lat="29.754775" lon="103.52791"><ele>508.5618</ele><time>2025-12-14T00:09:58.000Z</time></trkpt>
        <trkpt lat="29.754755" lon="103.528003"><ele>507.5642</ele><time>2025-12-14T00:10:00.000Z</time></trkpt>
        <trkpt lat="29.754678" lon="103.528124"><ele>504.54285</ele><time>2025-12-14T00:10:04.000Z</time></trkpt>
        <trkpt lat="29.754648" lon="103.528189"><ele>502.59302</ele><time>2025-12-14T00:10:07.000Z</time></trkpt>
        <trkpt lat="29.754626" lon="103.52824"><ele>501.95923</ele><time>2025-12-14T00:10:09.000Z</time></trkpt>
        <trkpt lat="29.754435" lon="103.528545"><ele>497.8409</ele><time>2025-12-14T00:10:17.000Z</time></trkpt>
        <trkpt lat="29.754523" lon="103.528881"><ele>494.40683</ele><time>2025-12-14T00:10:23.000Z</time></trkpt>
        <trkpt lat="29.754565" lon="103.528925"><ele>493.67224</ele><time>2025-12-14T00:10:24.000Z</time></trkpt>
        <trkpt lat="29.754595" lon="103.528977"><ele>492.55402</ele><time>2025-12-14T00:10:25.000Z</time></trkpt>
        <trkpt lat="29.75465" lon="103.529078"><ele>490.90726</ele><time>2025-12-14T00:10:27.000Z</time></trkpt>
        <trkpt lat="29.754684" lon="103.529146"><ele>490.29877</ele><time>2025-12-14T00:10:28.000Z</time></trkpt>
        <trkpt lat="29.754762" lon="103.529311"><ele>489.35797</ele><time>2025-12-14T00:10:30.000Z</time></trkpt>
        <trkpt lat="29.754785" lon="103.529376"><ele>488.0095</ele><time>2025-12-14T00:10:31.000Z</time></trkpt>
        <trkpt lat="29.754818" lon="103.529429"><ele>486.9294</ele><time>2025-12-14T00:10:32.000Z</time></trkpt>
        <trkpt lat="29.75493" lon="103.52954"><ele>484.26508</ele><time>2025-12-14T00:10:35.000Z</time></trkpt>
        <trkpt lat="29.754952" lon="103.529595"><ele>483.56552</ele><time>2025-12-14T00:10:36.000Z</time></trkpt>
        <trkpt lat="29.75495" lon="103.529693"><ele>482.61298</ele><time>2025-12-14T00:10:37.000Z</time></trkpt>
        <trkpt lat="29.754931" lon="103.529748"><ele>482.49454</ele><time>2025-12-14T00:10:38.000Z</time></trkpt>
        <trkpt lat="29.754921" lon="103.529801"><ele>481.93536</ele><time>2025-12-14T00:10:39.000Z</time></trkpt>
        <trkpt lat="29.754879" lon="103.52987"><ele>481.01193</ele><time>2025-12-14T00:10:40.000Z</time></trkpt>
        <trkpt lat="29.754866" lon="103.529927"><ele>479.88797</ele><time>2025-12-14T00:10:41.000Z</time></trkpt>
        <trkpt lat="29.754852" lon="103.53001"><ele>479.2081</ele><time>2025-12-14T00:10:42.000Z</time></trkpt>
        <trkpt lat="29.75485" lon="103.530084"><ele>478.6533</ele><time>2025-12-14T00:10:43.000Z</time></trkpt>
        <trkpt lat="29.754846" lon="103.530159"><ele>477.63397</ele><time>2025-12-14T00:10:44.000Z</time></trkpt>
        <trkpt lat="29.754795" lon="103.530238"><ele>476.63208</ele><time>2025-12-14T00:10:45.000Z</time></trkpt>
        <trkpt lat="29.754786" lon="103.530324"><ele>476.3053</ele><time>2025-12-14T00:10:46.000Z</time></trkpt>
        <trkpt lat="29.754792" lon="103.530398"><ele>474.62207</ele><time>2025-12-14T00:10:47.000Z</time></trkpt>
        <trkpt lat="29.754786" lon="103.530458"><ele>474.10132</ele><time>2025-12-14T00:10:48.000Z</time></trkpt>
        <trkpt lat="29.754746" lon="103.530512"><ele>472.29794</ele><time>2025-12-14T00:10:49.000Z</time></trkpt>
        <trkpt lat="29.754728" lon="103.53057"><ele>471.20438</ele><time>2025-12-14T00:10:50.000Z</time></trkpt>
        <trkpt lat="29.754717" lon="103.530624"><ele>470.61874</ele><time>2025-12-14T00:10:51.000Z</time></trkpt>
        <trkpt lat="29.7547" lon="103.530679"><ele>469.44907</ele><time>2025-12-14T00:10:52.000Z</time></trkpt>
        <trkpt lat="29.754691" lon="103.530735"><ele>468.18515</ele><time>2025-12-14T00:10:53.000Z</time></trkpt>
        <trkpt lat="29.754678" lon="103.530807"><ele>467.1895</ele><time>2025-12-14T00:10:54.000Z</time></trkpt>
        <trkpt lat="29.754657" lon="103.53088"><ele>466.85544</ele><time>2025-12-14T00:10:55.000Z</time></trkpt>
        <trkpt lat="29.754624" lon="103.530954"><ele>466.1052</ele><time>2025-12-14T00:10:56.000Z</time></trkpt>
        <trkpt lat="29.75463" lon="103.531028"><ele>465.74295</ele><time>2025-12-14T00:10:57.000Z</time></trkpt>
        <trkpt lat="29.754659" lon="103.531105"><ele>464.74362</ele><time>2025-12-14T00:10:58.000Z</time></trkpt>
        <trkpt lat="29.754649" lon="103.531173"><ele>463.35428</ele><time>2025-12-14T00:10:59.000Z</time></trkpt>
        <trkpt lat="29.754616" lon="103.53123"><ele>461.4974</ele><time>2025-12-14T00:11:00.000Z</time></trkpt>
        <trkpt lat="29.754596" lon="103.53129"><ele>459.68643</ele><time>2025-12-14T00:11:01.000Z</time></trkpt>
        <trkpt lat="29.754563" lon="103.531369"><ele>458.26456</ele><time>2025-12-14T00:11:02.000Z</time></trkpt>
        <trkpt lat="29.754556" lon="103.531446"><ele>457.64227</ele><time>2025-12-14T00:11:03.000Z</time></trkpt>
        <trkpt lat="29.754538" lon="103.531516"><ele>456.54147</ele><time>2025-12-14T00:11:04.000Z</time></trkpt>
        <trkpt lat="29.754542" lon="103.531592"><ele>455.35654</ele><time>2025-12-14T00:11:05.000Z</time></trkpt>
        <trkpt lat="29.754524" lon="103.531662"><ele>454.66632</ele><time>2025-12-14T00:11:06.000Z</time></trkpt>
        <trkpt lat="29.754517" lon="103.53174"><ele>454.15005</ele><time>2025-12-14T00:11:07.000Z</time></trkpt>
        <trkpt lat="29.75448" lon="103.531813"><ele>453.27527</ele><time>2025-12-14T00:11:08.000Z</time></trkpt>
        <trkpt lat="29.754471" lon="103.531888"><ele>452.20807</ele><time>2025-12-14T00:11:09.000Z</time></trkpt>
        <trkpt lat="29.754452" lon="103.531959"><ele>450.75363</ele><time>2025-12-14T00:11:10.000Z</time></trkpt>
        <trkpt lat="29.754501" lon="103.532018"><ele>449.86084</ele><time>2025-12-14T00:11:11.000Z</time></trkpt>
        <trkpt lat="29.754523" lon="103.532078"><ele>449.32855</ele><time>2025-12-14T00:11:12.000Z</time></trkpt>
        <trkpt lat="29.754563" lon="103.532166"><ele>447.3844</ele><time>2025-12-14T00:11:14.000Z</time></trkpt>
        <trkpt lat="29.754597" lon="103.532234"><ele>445.50757</ele><time>2025-12-14T00:11:16.000Z</time></trkpt>
        <trkpt lat="29.7546" lon="103.532313"><ele>443.85617</ele><time>2025-12-14T00:11:18.000Z</time></trkpt>
        <trkpt lat="29.754575" lon="103.532357"><ele>442.6676</ele><time>2025-12-14T00:11:19.000Z</time></trkpt>
        <trkpt lat="29.754539" lon="103.532403"><ele>440.91156</ele><time>2025-12-14T00:11:20.000Z</time></trkpt>
        <trkpt lat="29.754511" lon="103.532447"><ele>439.8958</ele><time>2025-12-14T00:11:21.000Z</time></trkpt>
        <trkpt lat="29.754485" lon="103.532546"><ele>437.727</ele><time>2025-12-14T00:11:23.000Z</time></trkpt>
        <trkpt lat="29.754446" lon="103.532613"><ele>435.70697</ele><time>2025-12-14T00:11:24.000Z</time></trkpt>
        <trkpt lat="29.754522" lon="103.532703"><ele>433.8979</ele><time>2025-12-14T00:11:26.000Z</time></trkpt>
        <trkpt lat="29.75453" lon="103.532759"><ele>430.53674</ele><time>2025-12-14T00:11:28.000Z</time></trkpt>
        <trkpt lat="29.754574" lon="103.532837"><ele>428.70834</ele><time>2025-12-14T00:11:30.000Z</time></trkpt>
        <trkpt lat="29.754618" lon="103.532879"><ele>428.24054</ele><time>2025-12-14T00:11:32.000Z</time></trkpt>
        <trkpt lat="29.754656" lon="103.532912"><ele>427.64532</ele><time>2025-12-14T00:11:37.000Z</time></trkpt>
        <trkpt lat="29.75468" lon="103.532961"><ele>428.06042</ele><time>2025-12-14T00:11:40.000Z</time></trkpt>
        <trkpt lat="29.754648" lon="103.533138"><ele>428.28476</ele><time>2025-12-14T00:11:44.000Z</time></trkpt>
        <trkpt lat="29.754619" lon="103.53323"><ele>428.5533</ele><time>2025-12-14T00:11:47.000Z</time></trkpt>
        <trkpt lat="29.754593" lon="103.533279"><ele>428.7204</ele><time>2025-12-14T00:11:48.000Z</time></trkpt>
        <trkpt lat="29.754563" lon="103.533323"><ele>428.75424</ele><time>2025-12-14T00:11:49.000Z</time></trkpt>
        <trkpt lat="29.754538" lon="103.533373"><ele>428.30637</ele><time>2025-12-14T00:11:50.000Z</time></trkpt>
        <trkpt lat="29.754498" lon="103.53343"><ele>428.10712</ele><time>2025-12-14T00:11:51.000Z</time></trkpt>
        <trkpt lat="29.754465" lon="103.533497"><ele>428.05374</ele><time>2025-12-14T00:11:52.000Z</time></trkpt>
        <trkpt lat="29.754441" lon="103.533561"><ele>427.9115</ele><time>2025-12-14T00:11:53.000Z</time></trkpt>
        <trkpt lat="29.75443" lon="103.533635"><ele>428.32388</ele><time>2025-12-14T00:11:54.000Z</time></trkpt>
        <trkpt lat="29.754418" lon="103.533702"><ele>428.19217</ele><time>2025-12-14T00:11:55.000Z</time></trkpt>
        <trkpt lat="29.754422" lon="103.533783"><ele>428.7021</ele><time>2025-12-14T00:11:56.000Z</time></trkpt>
        <trkpt lat="29.754417" lon="103.533851"><ele>428.52637</ele><time>2025-12-14T00:11:57.000Z</time></trkpt>
        <trkpt lat="29.754405" lon="103.533912"><ele>428.03903</ele><time>2025-12-14T00:11:58.000Z</time></trkpt>
        <trkpt lat="29.754421" lon="103.533983"><ele>428.0647</ele><time>2025-12-14T00:11:59.000Z</time></trkpt>
        <trkpt lat="29.754413" lon="103.534054"><ele>428.26376</ele><time>2025-12-14T00:12:00.000Z</time></trkpt>
        <trkpt lat="29.754401" lon="103.534114"><ele>427.91913</ele><time>2025-12-14T00:12:01.000Z</time></trkpt>
        <trkpt lat="29.754364" lon="103.534262"><ele>428.591</ele><time>2025-12-14T00:12:03.000Z</time></trkpt>
        <trkpt lat="29.754348" lon="103.53433"><ele>428.0894</ele><time>2025-12-14T00:12:04.000Z</time></trkpt>
        <trkpt lat="29.754336" lon="103.534399"><ele>427.6571</ele><time>2025-12-14T00:12:05.000Z</time></trkpt>
        <trkpt lat="29.754323" lon="103.534465"><ele>427.54874</ele><time>2025-12-14T00:12:06.000Z</time></trkpt>
        <trkpt lat="29.754301" lon="103.534538"><ele>427.4788</ele><time>2025-12-14T00:12:07.000Z</time></trkpt>
        <trkpt lat="29.754228" lon="103.534696"><ele>426.9236</ele><time>2025-12-14T00:12:09.000Z</time></trkpt>
        <trkpt lat="29.754199" lon="103.534767"><ele>427.2005</ele><time>2025-12-14T00:12:10.000Z</time></trkpt>
        <trkpt lat="29.754166" lon="103.534838"><ele>427.55072</ele><time>2025-12-14T00:12:11.000Z</time></trkpt>
        <trkpt lat="29.754122" lon="103.53492"><ele>427.09186</ele><time>2025-12-14T00:12:12.000Z</time></trkpt>
        <trkpt lat="29.75407" lon="103.535001"><ele>426.92316</ele><time>2025-12-14T00:12:13.000Z</time></trkpt>
        <trkpt lat="29.754001" lon="103.535155"><ele>426.9921</ele><time>2025-12-14T00:12:15.000Z</time></trkpt>
        <trkpt lat="29.753962" lon="103.535237"><ele>426.5707</ele><time>2025-12-14T00:12:16.000Z</time></trkpt>
        <trkpt lat="29.753928" lon="103.535311"><ele>427.31</ele><time>2025-12-14T00:12:17.000Z</time></trkpt>
        <trkpt lat="29.753886" lon="103.535401"><ele>427.04242</ele><time>2025-12-14T00:12:18.000Z</time></trkpt>
        <trkpt lat="29.753856" lon="103.535485"><ele>426.80475</ele><time>2025-12-14T00:12:19.000Z</time></trkpt>
        <trkpt lat="29.75382" lon="103.535568"><ele>426.53552</ele><time>2025-12-14T00:12:20.000Z</time></trkpt>
        <trkpt lat="29.753779" lon="103.535641"><ele>426.5103</ele><time>2025-12-14T00:12:21.000Z</time></trkpt>
        <trkpt lat="29.753734" lon="103.53572"><ele>426.28964</ele><time>2025-12-14T00:12:22.000Z</time></trkpt>
        <trkpt lat="29.753708" lon="103.535807"><ele>426.72314</ele><time>2025-12-14T00:12:23.000Z</time></trkpt>
        <trkpt lat="29.753666" lon="103.535879"><ele>426.15533</ele><time>2025-12-14T00:12:24.000Z</time></trkpt>
        <trkpt lat="29.753638" lon="103.535949"><ele>426.10507</ele><time>2025-12-14T00:12:25.000Z</time></trkpt>
        <trkpt lat="29.753609" lon="103.536019"><ele>426.18134</ele><time>2025-12-14T00:12:26.000Z</time></trkpt>
        <trkpt lat="29.753527" lon="103.536123"><ele>425.7483</ele><time>2025-12-14T00:12:28.000Z</time></trkpt>
        <trkpt lat="29.753484" lon="103.536182"><ele>425.66644</ele><time>2025-12-14T00:12:29.000Z</time></trkpt>
        <trkpt lat="29.753429" lon="103.536236"><ele>425.90842</ele><time>2025-12-14T00:12:30.000Z</time></trkpt>
        <trkpt lat="29.753384" lon="103.536291"><ele>426.0937</ele><time>2025-12-14T00:12:31.000Z</time></trkpt>
        <trkpt lat="29.753342" lon="103.536351"><ele>425.80792</ele><time>2025-12-14T00:12:32.000Z</time></trkpt>
        <trkpt lat="29.753306" lon="103.536418"><ele>426.30978</ele><time>2025-12-14T00:12:33.000Z</time></trkpt>
        <trkpt lat="29.753271" lon="103.536469"><ele>426.71265</ele><time>2025-12-14T00:12:34.000Z</time></trkpt>
        <trkpt lat="29.753234" lon="103.536535"><ele>426.62073</ele><time>2025-12-14T00:12:35.000Z</time></trkpt>
        <trkpt lat="29.75319" lon="103.536599"><ele>426.22992</ele><time>2025-12-14T00:12:36.000Z</time></trkpt>
        <trkpt lat="29.753149" lon="103.53666"><ele>426.08157</ele><time>2025-12-14T00:12:37.000Z</time></trkpt>
        <trkpt lat="29.753069" lon="103.536756"><ele>426.6521</ele><time>2025-12-14T00:12:39.000Z</time></trkpt>
        <trkpt lat="29.75303" lon="103.536803"><ele>426.84433</ele><time>2025-12-14T00:12:40.000Z</time></trkpt>
        <trkpt lat="29.752997" lon="103.536847"><ele>426.53262</ele><time>2025-12-14T00:12:41.000Z</time></trkpt>
        <trkpt lat="29.752916" lon="103.537095"><ele>429.6581</ele><time>2025-12-14T00:13:13.000Z</time></trkpt>
        <trkpt lat="29.752857" lon="103.537168"><ele>428.18298</ele><time>2025-12-14T00:13:15.000Z</time></trkpt>
        <trkpt lat="29.752785" lon="103.537277"><ele>427.23795</ele><time>2025-12-14T00:13:17.000Z</time></trkpt>
        <trkpt lat="29.752742" lon="103.537329"><ele>425.6006</ele><time>2025-12-14T00:13:18.000Z</time></trkpt>
        <trkpt lat="29.752692" lon="103.537365"><ele>424.10907</ele><time>2025-12-14T00:13:19.000Z</time></trkpt>
        <trkpt lat="29.752603" lon="103.537493"><ele>421.98483</ele><time>2025-12-14T00:13:21.000Z</time></trkpt>
        <trkpt lat="29.752566" lon="103.537551"><ele>420.8341</ele><time>2025-12-14T00:13:22.000Z</time></trkpt>
        <trkpt lat="29.752534" lon="103.537613"><ele>419.97156</ele><time>2025-12-14T00:13:23.000Z</time></trkpt>
        <trkpt lat="29.752493" lon="103.537715"><ele>418.86337</ele><time>2025-12-14T00:13:25.000Z</time></trkpt>
        <trkpt lat="29.752473" lon="103.537763"><ele>417.563</ele><time>2025-12-14T00:13:26.000Z</time></trkpt>
        <trkpt lat="29.752451" lon="103.537824"><ele>417.34705</ele><time>2025-12-14T00:13:27.000Z</time></trkpt>
        <trkpt lat="29.752429" lon="103.53788"><ele>417.1725</ele><time>2025-12-14T00:13:28.000Z</time></trkpt>
        <trkpt lat="29.752398" lon="103.537959"><ele>416.32275</ele><time>2025-12-14T00:13:30.000Z</time></trkpt>
        <trkpt lat="29.752354" lon="103.538001"><ele>416.42465</ele><time>2025-12-14T00:13:31.000Z</time></trkpt>
        <trkpt lat="29.752233" lon="103.538219"><ele>417.65997</ele><time>2025-12-14T00:13:51.000Z</time></trkpt>
        <trkpt lat="29.752163" lon="103.53831"><ele>417.5098</ele><time>2025-12-14T00:13:54.000Z</time></trkpt>
        <trkpt lat="29.752114" lon="103.53836"><ele>416.2852</ele><time>2025-12-14T00:13:55.000Z</time></trkpt>
        <trkpt lat="29.752079" lon="103.538418"><ele>416.62848</ele><time>2025-12-14T00:13:56.000Z</time></trkpt>
        <trkpt lat="29.752042" lon="103.53847"><ele>416.59848</ele><time>2025-12-14T00:13:57.000Z</time></trkpt>
        <trkpt lat="29.752009" lon="103.538532"><ele>416.78674</ele><time>2025-12-14T00:13:58.000Z</time></trkpt>
        <trkpt lat="29.751968" lon="103.538602"><ele>417.01123</ele><time>2025-12-14T00:13:59.000Z</time></trkpt>
        <trkpt lat="29.751927" lon="103.538669"><ele>417.14648</ele><time>2025-12-14T00:14:00.000Z</time></trkpt>
        <trkpt lat="29.751877" lon="103.538742"><ele>417.00854</ele><time>2025-12-14T00:14:01.000Z</time></trkpt>
        <trkpt lat="29.751833" lon="103.538819"><ele>417.2439</ele><time>2025-12-14T00:14:02.000Z</time></trkpt>
        <trkpt lat="29.751704" lon="103.53898"><ele>416.70282</ele><time>2025-12-14T00:14:04.000Z</time></trkpt>
        <trkpt lat="29.751659" lon="103.539061"><ele>416.54752</ele><time>2025-12-14T00:14:05.000Z</time></trkpt>
        <trkpt lat="29.751601" lon="103.539144"><ele>416.47632</ele><time>2025-12-14T00:14:06.000Z</time></trkpt>
        <trkpt lat="29.751544" lon="103.539232"><ele>416.22574</ele><time>2025-12-14T00:14:07.000Z</time></trkpt>
        <trkpt lat="29.751468" lon="103.539298"><ele>416.42593</ele><time>2025-12-14T00:14:08.000Z</time></trkpt>
        <trkpt lat="29.751408" lon="103.539375"><ele>416.47427</ele><time>2025-12-14T00:14:09.000Z</time></trkpt>
        <trkpt lat="29.751333" lon="103.539467"><ele>416.07996</ele><time>2025-12-14T00:14:10.000Z</time></trkpt>
        <trkpt lat="29.751262" lon="103.539543"><ele>416.12152</ele><time>2025-12-14T00:14:11.000Z</time></trkpt>
        <trkpt lat="29.751202" lon="103.539627"><ele>415.75867</ele><time>2025-12-14T00:14:12.000Z</time></trkpt>
        <trkpt lat="29.751163" lon="103.5397"><ele>415.79446</ele><time>2025-12-14T00:14:13.000Z</time></trkpt>
        <trkpt lat="29.751071" lon="103.539887"><ele>416.381</ele><time>2025-12-14T00:14:15.000Z</time></trkpt>
        <trkpt lat="29.75103" lon="103.539974"><ele>415.74</ele><time>2025-12-14T00:14:16.000Z</time></trkpt>
        <trkpt lat="29.750972" lon="103.540051"><ele>415.4146</ele><time>2025-12-14T00:14:17.000Z</time></trkpt>
        <trkpt lat="29.750937" lon="103.540121"><ele>415.2535</ele><time>2025-12-14T00:14:18.000Z</time></trkpt>
        <trkpt lat="29.750607" lon="103.540345"><ele>414.69357</ele><time>2025-12-14T00:14:23.000Z</time></trkpt>
        <trkpt lat="29.750539" lon="103.540404"><ele>415.3475</ele><time>2025-12-14T00:14:24.000Z</time></trkpt>
        <trkpt lat="29.750466" lon="103.540483"><ele>415.69205</ele><time>2025-12-14T00:14:25.000Z</time></trkpt>
        <trkpt lat="29.75041" lon="103.540568"><ele>415.75275</ele><time>2025-12-14T00:14:26.000Z</time></trkpt>
        <trkpt lat="29.750346" lon="103.540642"><ele>415.38516</ele><time>2025-12-14T00:14:27.000Z</time></trkpt>
        <trkpt lat="29.75029" lon="103.540727"><ele>415.3057</ele><time>2025-12-14T00:14:28.000Z</time></trkpt>
        <trkpt lat="29.750214" lon="103.540807"><ele>415.4698</ele><time>2025-12-14T00:14:29.000Z</time></trkpt>
        <trkpt lat="29.750134" lon="103.540892"><ele>415.73764</ele><time>2025-12-14T00:14:30.000Z</time></trkpt>
        <trkpt lat="29.750068" lon="103.540974"><ele>415.8319</ele><time>2025-12-14T00:14:31.000Z</time></trkpt>
        <trkpt lat="29.749996" lon="103.541062"><ele>415.77048</ele><time>2025-12-14T00:14:32.000Z</time></trkpt>
        <trkpt lat="29.749912" lon="103.541143"><ele>415.50583</ele><time>2025-12-14T00:14:33.000Z</time></trkpt>
        <trkpt lat="29.749829" lon="103.54121"><ele>416.12347</ele><time>2025-12-14T00:14:34.000Z</time></trkpt>
        <trkpt lat="29.749729" lon="103.541273"><ele>415.60342</ele><time>2025-12-14T00:14:35.000Z</time></trkpt>
        <trkpt lat="29.74964" lon="103.54133"><ele>415.48907</ele><time>2025-12-14T00:14:36.000Z</time></trkpt>
        <trkpt lat="29.749556" lon="103.541401"><ele>415.68558</ele><time>2025-12-14T00:14:37.000Z</time></trkpt>
        <trkpt lat="29.74946" lon="103.541472"><ele>416.28845</ele><time>2025-12-14T00:14:38.000Z</time></trkpt>
        <trkpt lat="29.749374" lon="103.541536"><ele>416.20755</ele><time>2025-12-14T00:14:39.000Z</time></trkpt>
        <trkpt lat="29.749291" lon="103.541606"><ele>416.25537</ele><time>2025-12-14T00:14:40.000Z</time></trkpt>
        <trkpt lat="29.74921" lon="103.541667"><ele>415.61792</ele><time>2025-12-14T00:14:41.000Z</time></trkpt>
        <trkpt lat="29.749133" lon="103.541729"><ele>415.91165</ele><time>2025-12-14T00:14:42.000Z</time></trkpt>
        <trkpt lat="29.749053" lon="103.541797"><ele>415.27527</ele><time>2025-12-14T00:14:43.000Z</time></trkpt>
        <trkpt lat="29.748988" lon="103.541874"><ele>416.16455</ele><time>2025-12-14T00:14:44.000Z</time></trkpt>
        <trkpt lat="29.748918" lon="103.541952"><ele>416.45612</ele><time>2025-12-14T00:14:45.000Z</time></trkpt>
        <trkpt lat="29.748838" lon="103.54203"><ele>416.60385</ele><time>2025-12-14T00:14:46.000Z</time></trkpt>
        <trkpt lat="29.74877" lon="103.542111"><ele>417.46646</ele><time>2025-12-14T00:14:47.000Z</time></trkpt>
        <trkpt lat="29.748694" lon="103.542199"><ele>417.38687</ele><time>2025-12-14T00:14:48.000Z</time></trkpt>
        <trkpt lat="29.748621" lon="103.542285"><ele>417.1855</ele><time>2025-12-14T00:14:49.000Z</time></trkpt>
        <trkpt lat="29.748554" lon="103.542373"><ele>417.5071</ele><time>2025-12-14T00:14:49.000Z</time></trkpt>
        <trkpt lat="29.748489" lon="103.542462"><ele>417.18896</ele><time>2025-12-14T00:14:50.000Z</time></trkpt>
        <trkpt lat="29.74842" lon="103.542551"><ele>416.1786</ele><time>2025-12-14T00:14:51.000Z</time></trkpt>
        <trkpt lat="29.748345" lon="103.542634"><ele>416.53622</ele><time>2025-12-14T00:14:52.000Z</time></trkpt>
        <trkpt lat="29.748273" lon="103.542713"><ele>416.3254</ele><time>2025-12-14T00:14:53.000Z</time></trkpt>
        <trkpt lat="29.748204" lon="103.542797"><ele>415.95227</ele><time>2025-12-14T00:14:54.000Z</time></trkpt>
        <trkpt lat="29.748141" lon="103.542885"><ele>416.04593</ele><time>2025-12-14T00:14:55.000Z</time></trkpt>
        <trkpt lat="29.748082" lon="103.542978"><ele>415.4377</ele><time>2025-12-14T00:14:56.000Z</time></trkpt>
        <trkpt lat="29.74802" lon="103.543063"><ele>416.52765</ele><time>2025-12-14T00:14:57.000Z</time></trkpt>
        <trkpt lat="29.747959" lon="103.543154"><ele>416.51282</ele><time>2025-12-14T00:14:58.000Z</time></trkpt>
        <trkpt lat="29.747899" lon="103.543247"><ele>417.05533</ele><time>2025-12-14T00:14:59.000Z</time></trkpt>
        <trkpt lat="29.747837" lon="103.543344"><ele>417.25137</ele><time>2025-12-14T00:15:00.000Z</time></trkpt>
        <trkpt lat="29.747756" lon="103.543434"><ele>417.11667</ele><time>2025-12-14T00:15:01.000Z</time></trkpt>
        <trkpt lat="29.747687" lon="103.543528"><ele>417.01614</ele><time>2025-12-14T00:15:02.000Z</time></trkpt>
        <trkpt lat="29.747621" lon="103.543628"><ele>417.3208</ele><time>2025-12-14T00:15:03.000Z</time></trkpt>
        <trkpt lat="29.747547" lon="103.543731"><ele>417.0719</ele><time>2025-12-14T00:15:04.000Z</time></trkpt>
        <trkpt lat="29.747465" lon="103.54383"><ele>417.08472</ele><time>2025-12-14T00:15:05.000Z</time></trkpt>
        <trkpt lat="29.747387" lon="103.543924"><ele>417.52298</ele><time>2025-12-14T00:15:06.000Z</time></trkpt>
        <trkpt lat="29.747302" lon="103.544011"><ele>417.26926</ele><time>2025-12-14T00:15:07.000Z</time></trkpt>
        <trkpt lat="29.747225" lon="103.544103"><ele>416.9963</ele><time>2025-12-14T00:15:08.000Z</time></trkpt>
        <trkpt lat="29.747152" lon="103.54419"><ele>416.75195</ele><time>2025-12-14T00:15:09.000Z</time></trkpt>
        <trkpt lat="29.747075" lon="103.544268"><ele>417.03033</ele><time>2025-12-14T00:15:10.000Z</time></trkpt>
        <trkpt lat="29.747" lon="103.54435"><ele>417.1454</ele><time>2025-12-14T00:15:11.000Z</time></trkpt>
        <trkpt lat="29.74693" lon="103.544428"><ele>416.8559</ele><time>2025-12-14T00:15:12.000Z</time></trkpt>
        <trkpt lat="29.746852" lon="103.544497"><ele>416.22147</ele><time>2025-12-14T00:15:13.000Z</time></trkpt>
        <trkpt lat="29.746777" lon="103.544564"><ele>415.9457</ele><time>2025-12-14T00:15:14.000Z</time></trkpt>
        <trkpt lat="29.746694" lon="103.544634"><ele>415.79718</ele><time>2025-12-14T00:15:15.000Z</time></trkpt>
        <trkpt lat="29.74662" lon="103.544684"><ele>415.9715</ele><time>2025-12-14T00:15:16.000Z</time></trkpt>
        <trkpt lat="29.746539" lon="103.544729"><ele>416.00156</ele><time>2025-12-14T00:15:17.000Z</time></trkpt>
        <trkpt lat="29.746458" lon="103.544787"><ele>416.01608</ele><time>2025-12-14T00:15:18.000Z</time></trkpt>
        <trkpt lat="29.746365" lon="103.544837"><ele>416.05997</ele><time>2025-12-14T00:15:19.000Z</time></trkpt>
        <trkpt lat="29.746278" lon="103.544901"><ele>416.45636</ele><time>2025-12-14T00:15:20.000Z</time></trkpt>
        <trkpt lat="29.746192" lon="103.544959"><ele>416.34625</ele><time>2025-12-14T00:15:21.000Z</time></trkpt>
        <trkpt lat="29.746111" lon="103.545028"><ele>416.6325</ele><time>2025-12-14T00:15:22.000Z</time></trkpt>
        <trkpt lat="29.74601" lon="103.545076"><ele>416.0151</ele><time>2025-12-14T00:15:23.000Z</time></trkpt>
        <trkpt lat="29.745911" lon="103.545128"><ele>415.9676</ele><time>2025-12-14T00:15:24.000Z</time></trkpt>
        <trkpt lat="29.745799" lon="103.545125"><ele>416.1328</ele><time>2025-12-14T00:15:25.000Z</time></trkpt>
        <trkpt lat="29.745702" lon="103.545174"><ele>416.26318</ele><time>2025-12-14T00:15:26.000Z</time></trkpt>
        <trkpt lat="29.745604" lon="103.545224"><ele>415.582</ele><time>2025-12-14T00:15:27.000Z</time></trkpt>
        <trkpt lat="29.745498" lon="103.545281"><ele>415.38705</ele><time>2025-12-14T00:15:28.000Z</time></trkpt>
        <trkpt lat="29.745405" lon="103.545341"><ele>415.8926</ele><time>2025-12-14T00:15:29.000Z</time></trkpt>
        <trkpt lat="29.745308" lon="103.545397"><ele>416.18555</ele><time>2025-12-14T00:15:30.000Z</time></trkpt>
        <trkpt lat="29.745203" lon="103.54546"><ele>415.98132</ele><time>2025-12-14T00:15:31.000Z</time></trkpt>
        <trkpt lat="29.745087" lon="103.545504"><ele>416.21393</ele><time>2025-12-14T00:15:32.000Z</time></trkpt>
        <trkpt lat="29.744982" lon="103.545564"><ele>415.88608</ele><time>2025-12-14T00:15:33.000Z</time></trkpt>
        <trkpt lat="29.744879" lon="103.54561"><ele>416.2602</ele><time>2025-12-14T00:15:34.000Z</time></trkpt>
        <trkpt lat="29.744781" lon="103.545656"><ele>416.26627</ele><time>2025-12-14T00:15:35.000Z</time></trkpt>
        <trkpt lat="29.744674" lon="103.545701"><ele>417.27097</ele><time>2025-12-14T00:15:36.000Z</time></trkpt>
        <trkpt lat="29.744573" lon="103.545728"><ele>417.22522</ele><time>2025-12-14T00:15:37.000Z</time></trkpt>
        <trkpt lat="29.74448" lon="103.545759"><ele>418.37524</ele><time>2025-12-14T00:15:38.000Z</time></trkpt>
        <trkpt lat="29.7444" lon="103.545786"><ele>418.73715</ele><time>2025-12-14T00:15:39.000Z</time></trkpt>
        <trkpt lat="29.744314" lon="103.54581"><ele>419.1332</ele><time>2025-12-14T00:15:40.000Z</time></trkpt>
        <trkpt lat="29.744229" lon="103.545839"><ele>420.04993</ele><time>2025-12-14T00:15:41.000Z</time></trkpt>
        <trkpt lat="29.744152" lon="103.545864"><ele>421.10696</ele><time>2025-12-14T00:15:42.000Z</time></trkpt>
        <trkpt lat="29.744086" lon="103.545892"><ele>420.5765</ele><time>2025-12-14T00:15:43.000Z</time></trkpt>
        <trkpt lat="29.744032" lon="103.545934"><ele>420.44547</ele><time>2025-12-14T00:15:44.000Z</time></trkpt>
        <trkpt lat="29.743965" lon="103.545959"><ele>420.31238</ele><time>2025-12-14T00:15:45.000Z</time></trkpt>
        <trkpt lat="29.74391" lon="103.546007"><ele>420.3538</ele><time>2025-12-14T00:15:46.000Z</time></trkpt>
        <trkpt lat="29.743859" lon="103.546072"><ele>420.65833</ele><time>2025-12-14T00:15:47.000Z</time></trkpt>
        <trkpt lat="29.743797" lon="103.546131"><ele>420.9395</ele><time>2025-12-14T00:15:48.000Z</time></trkpt>
        <trkpt lat="29.743722" lon="103.546173"><ele>421.06525</ele><time>2025-12-14T00:15:49.000Z</time></trkpt>
        <trkpt lat="29.743672" lon="103.546238"><ele>420.86203</ele><time>2025-12-14T00:15:50.000Z</time></trkpt>
        <trkpt lat="29.743614" lon="103.546277"><ele>420.3933</ele><time>2025-12-14T00:15:51.000Z</time></trkpt>
        <trkpt lat="29.743554" lon="103.546323"><ele>419.9784</ele><time>2025-12-14T00:15:52.000Z</time></trkpt>
        <trkpt lat="29.743499" lon="103.546368"><ele>419.61212</ele><time>2025-12-14T00:15:53.000Z</time></trkpt>
        <trkpt lat="29.743446" lon="103.546412"><ele>419.38162</ele><time>2025-12-14T00:15:54.000Z</time></trkpt>
        <trkpt lat="29.743399" lon="103.546454"><ele>419.31668</ele><time>2025-12-14T00:15:55.000Z</time></trkpt>
        <trkpt lat="29.743345" lon="103.546514"><ele>419.36667</ele><time>2025-12-14T00:15:56.000Z</time></trkpt>
        <trkpt lat="29.74329" lon="103.546572"><ele>419.32446</ele><time>2025-12-14T00:15:57.000Z</time></trkpt>
        <trkpt lat="29.743229" lon="103.546631"><ele>419.4433</ele><time>2025-12-14T00:15:58.000Z</time></trkpt>
        <trkpt lat="29.743155" lon="103.546677"><ele>419.11096</ele><time>2025-12-14T00:15:59.000Z</time></trkpt>
        <trkpt lat="29.743087" lon="103.546738"><ele>419.41486</ele><time>2025-12-14T00:16:00.000Z</time></trkpt>
        <trkpt lat="29.743017" lon="103.546804"><ele>419.4046</ele><time>2025-12-14T00:16:01.000Z</time></trkpt>
        <trkpt lat="29.742947" lon="103.546869"><ele>419.4647</ele><time>2025-12-14T00:16:02.000Z</time></trkpt>
        <trkpt lat="29.742876" lon="103.546937"><ele>419.32156</ele><time>2025-12-14T00:16:03.000Z</time></trkpt>
        <trkpt lat="29.742806" lon="103.547004"><ele>419.31256</ele><time>2025-12-14T00:16:04.000Z</time></trkpt>
        <trkpt lat="29.742734" lon="103.547071"><ele>419.092</ele><time>2025-12-14T00:16:05.000Z</time></trkpt>
        <trkpt lat="29.742658" lon="103.547122"><ele>418.4907</ele><time>2025-12-14T00:16:06.000Z</time></trkpt>
        <trkpt lat="29.742589" lon="103.547183"><ele>418.36273</ele><time>2025-12-14T00:16:07.000Z</time></trkpt>
        <trkpt lat="29.742521" lon="103.547246"><ele>418.1358</ele><time>2025-12-14T00:16:08.000Z</time></trkpt>
        <trkpt lat="29.742456" lon="103.547308"><ele>418.37643</ele><time>2025-12-14T00:16:09.000Z</time></trkpt>
        <trkpt lat="29.742387" lon="103.547368"><ele>418.75082</ele><time>2025-12-14T00:16:10.000Z</time></trkpt>
        <trkpt lat="29.742318" lon="103.547424"><ele>418.81458</ele><time>2025-12-14T00:16:11.000Z</time></trkpt>
        <trkpt lat="29.742247" lon="103.547481"><ele>418.65414</ele><time>2025-12-14T00:16:12.000Z</time></trkpt>
        <trkpt lat="29.742176" lon="103.547549"><ele>418.733</ele><time>2025-12-14T00:16:13.000Z</time></trkpt>
        <trkpt lat="29.742107" lon="103.547615"><ele>418.66718</ele><time>2025-12-14T00:16:14.000Z</time></trkpt>
        <trkpt lat="29.742035" lon="103.547682"><ele>418.73175</ele><time>2025-12-14T00:16:15.000Z</time></trkpt>
        <trkpt lat="29.741967" lon="103.547747"><ele>418.8877</ele><time>2025-12-14T00:16:16.000Z</time></trkpt>
        <trkpt lat="29.741899" lon="103.547809"><ele>418.91684</ele><time>2025-12-14T00:16:17.000Z</time></trkpt>
        <trkpt lat="29.741833" lon="103.547871"><ele>419.01254</ele><time>2025-12-14T00:16:18.000Z</time></trkpt>
        <trkpt lat="29.741761" lon="103.547941"><ele>419.22186</ele><time>2025-12-14T00:16:19.000Z</time></trkpt>
        <trkpt lat="29.741689" lon="103.548014"><ele>419.1445</ele><time>2025-12-14T00:16:20.000Z</time></trkpt>
        <trkpt lat="29.741613" lon="103.548085"><ele>419.0067</ele><time>2025-12-14T00:16:21.000Z</time></trkpt>
        <trkpt lat="29.741537" lon="103.548153"><ele>418.95386</ele><time>2025-12-14T00:16:22.000Z</time></trkpt>
        <trkpt lat="29.741458" lon="103.548228"><ele>418.85767</ele><time>2025-12-14T00:16:23.000Z</time></trkpt>
        <trkpt lat="29.741377" lon="103.548307"><ele>419.1885</ele><time>2025-12-14T00:16:24.000Z</time></trkpt>
        <trkpt lat="29.741296" lon="103.54839"><ele>419.3981</ele><time>2025-12-14T00:16:25.000Z</time></trkpt>
        <trkpt lat="29.741214" lon="103.548472"><ele>419.50363</ele><time>2025-12-14T00:16:26.000Z</time></trkpt>
        <trkpt lat="29.74113" lon="103.548557"><ele>419.43497</ele><time>2025-12-14T00:16:27.000Z</time></trkpt>
        <trkpt lat="29.741038" lon="103.548633"><ele>419.3766</ele><time>2025-12-14T00:16:28.000Z</time></trkpt>
        <trkpt lat="29.740961" lon="103.548705"><ele>419.1278</ele><time>2025-12-14T00:16:29.000Z</time></trkpt>
        <trkpt lat="29.740909" lon="103.548756"><ele>418.81003</ele><time>2025-12-14T00:16:30.000Z</time></trkpt>
        <trkpt lat="29.740854" lon="103.548805"><ele>418.28912</ele><time>2025-12-14T00:16:32.000Z</time></trkpt>
        <trkpt lat="29.740801" lon="103.548827"><ele>418.3891</ele><time>2025-12-14T00:16:34.000Z</time></trkpt>
        <trkpt lat="29.74076" lon="103.548863"><ele>417.71362</ele><time>2025-12-14T00:16:36.000Z</time></trkpt>
        <trkpt lat="29.740719" lon="103.5489"><ele>417.05237</ele><time>2025-12-14T00:16:38.000Z</time></trkpt>
        <trkpt lat="29.740644" lon="103.548861"><ele>416.4668</ele><time>2025-12-14T00:16:40.000Z</time></trkpt>
        <trkpt lat="29.740615" lon="103.548702"><ele>416.54004</ele><time>2025-12-14T00:16:42.000Z</time></trkpt>
        <trkpt lat="29.740632" lon="103.548626"><ele>416.69946</ele><time>2025-12-14T00:16:43.000Z</time></trkpt>
        <trkpt lat="29.740636" lon="103.548542"><ele>416.89923</ele><time>2025-12-14T00:16:44.000Z</time></trkpt>
        <trkpt lat="29.740647" lon="103.54845"><ele>416.9139</ele><time>2025-12-14T00:16:45.000Z</time></trkpt>
        <trkpt lat="29.740656" lon="103.548356"><ele>416.50842</ele><time>2025-12-14T00:16:46.000Z</time></trkpt>
        <trkpt lat="29.740663" lon="103.548261"><ele>416.52347</ele><time>2025-12-14T00:16:47.000Z</time></trkpt>
        <trkpt lat="29.740669" lon="103.548164"><ele>416.5494</ele><time>2025-12-14T00:16:48.000Z</time></trkpt>
        <trkpt lat="29.740678" lon="103.548068"><ele>416.63687</ele><time>2025-12-14T00:16:49.000Z</time></trkpt>
        <trkpt lat="29.74069" lon="103.547969"><ele>416.69952</ele><time>2025-12-14T00:16:50.000Z</time></trkpt>
        <trkpt lat="29.740699" lon="103.54787"><ele>416.8514</ele><time>2025-12-14T00:16:51.000Z</time></trkpt>
        <trkpt lat="29.740709" lon="103.547776"><ele>416.71005</ele><time>2025-12-14T00:16:52.000Z</time></trkpt>
        <trkpt lat="29.740721" lon="103.547684"><ele>416.55255</ele><time>2025-12-14T00:16:53.000Z</time></trkpt>
        <trkpt lat="29.740737" lon="103.547596"><ele>416.48337</ele><time>2025-12-14T00:16:54.000Z</time></trkpt>
        <trkpt lat="29.740743" lon="103.547503"><ele>416.65375</ele><time>2025-12-14T00:16:55.000Z</time></trkpt>
        <trkpt lat="29.740751" lon="103.547408"><ele>416.5391</ele><time>2025-12-14T00:16:56.000Z</time></trkpt>
        <trkpt lat="29.740758" lon="103.54732"><ele>416.6291</ele><time>2025-12-14T00:16:57.000Z</time></trkpt>
        <trkpt lat="29.740767" lon="103.547239"><ele>416.17044</ele><time>2025-12-14T00:16:58.000Z</time></trkpt>
        <trkpt lat="29.740747" lon="103.547184"><ele>416.1919</ele><time>2025-12-14T00:16:59.000Z</time></trkpt>
        <trkpt lat="29.740738" lon="103.547119"><ele>415.58035</ele><time>2025-12-14T00:17:01.000Z</time></trkpt>
        <trkpt lat="29.740693" lon="103.547106"><ele>415.26157</ele><time>2025-12-14T00:17:03.000Z</time></trkpt>
        <trkpt lat="29.740644" lon="103.547083"><ele>415.38016</ele><time>2025-12-14T00:17:04.000Z</time></trkpt>
        <trkpt lat="29.740583" lon="103.547086"><ele>415.78848</ele><time>2025-12-14T00:17:05.000Z</time></trkpt>
        <trkpt lat="29.740519" lon="103.547095"><ele>415.88434</ele><time>2025-12-14T00:17:06.000Z</time></trkpt>
        <trkpt lat="29.740457" lon="103.547097"><ele>415.97382</ele><time>2025-12-14T00:17:07.000Z</time></trkpt>
        <trkpt lat="29.740386" lon="103.547085"><ele>415.7196</ele><time>2025-12-14T00:17:08.000Z</time></trkpt>
        <trkpt lat="29.740315" lon="103.547105"><ele>415.8442</ele><time>2025-12-14T00:17:09.000Z</time></trkpt>
        <trkpt lat="29.74024" lon="103.547095"><ele>416.03622</ele><time>2025-12-14T00:17:10.000Z</time></trkpt>
        <trkpt lat="29.740165" lon="103.547091"><ele>416.2889</ele><time>2025-12-14T00:17:11.000Z</time></trkpt>
        <trkpt lat="29.74009" lon="103.54709"><ele>415.98956</ele><time>2025-12-14T00:17:12.000Z</time></trkpt>
        <trkpt lat="29.74001" lon="103.547092"><ele>415.95767</ele><time>2025-12-14T00:17:13.000Z</time></trkpt>
        <trkpt lat="29.739933" lon="103.547093"><ele>415.77368</ele><time>2025-12-14T00:17:14.000Z</time></trkpt>
        <trkpt lat="29.739852" lon="103.547093"><ele>415.52036</ele><time>2025-12-14T00:17:15.000Z</time></trkpt>
        <trkpt lat="29.739776" lon="103.547094"><ele>415.54642</ele><time>2025-12-14T00:17:16.000Z</time></trkpt>
        <trkpt lat="29.739702" lon="103.547088"><ele>415.24976</ele><time>2025-12-14T00:17:17.000Z</time></trkpt>
        <trkpt lat="29.739628" lon="103.547085"><ele>415.00015</ele><time>2025-12-14T00:17:18.000Z</time></trkpt>
        <trkpt lat="29.739557" lon="103.547107"><ele>415.01257</ele><time>2025-12-14T00:17:19.000Z</time></trkpt>
        <trkpt lat="29.739483" lon="103.54711"><ele>414.76743</ele><time>2025-12-14T00:17:20.000Z</time></trkpt>
        <trkpt lat="29.739412" lon="103.547097"><ele>414.60425</ele><time>2025-12-14T00:17:21.000Z</time></trkpt>
        <trkpt lat="29.739338" lon="103.547111"><ele>414.69055</ele><time>2025-12-14T00:17:22.000Z</time></trkpt>
        <trkpt lat="29.739265" lon="103.547115"><ele>414.81543</ele><time>2025-12-14T00:17:23.000Z</time></trkpt>
        <trkpt lat="29.739193" lon="103.547116"><ele>414.88464</ele><time>2025-12-14T00:17:24.000Z</time></trkpt>
        <trkpt lat="29.739119" lon="103.547121"><ele>415.32993</ele><time>2025-12-14T00:17:25.000Z</time></trkpt>
        <trkpt lat="29.739043" lon="103.547132"><ele>415.58575</ele><time>2025-12-14T00:17:26.000Z</time></trkpt>
        <trkpt lat="29.738969" lon="103.547143"><ele>415.32657</ele><time>2025-12-14T00:17:27.000Z</time></trkpt>
        <trkpt lat="29.738896" lon="103.547158"><ele>415.1493</ele><time>2025-12-14T00:17:28.000Z</time></trkpt>
        <trkpt lat="29.73882" lon="103.547174"><ele>415.31516</ele><time>2025-12-14T00:17:29.000Z</time></trkpt>
        <trkpt lat="29.738743" lon="103.547186"><ele>415.52264</ele><time>2025-12-14T00:17:30.000Z</time></trkpt>
        <trkpt lat="29.738668" lon="103.5472"><ele>415.8012</ele><time>2025-12-14T00:17:31.000Z</time></trkpt>
        <trkpt lat="29.738594" lon="103.547214"><ele>415.9295</ele><time>2025-12-14T00:17:32.000Z</time></trkpt>
        <trkpt lat="29.738523" lon="103.547224"><ele>415.61142</ele><time>2025-12-14T00:17:33.000Z</time></trkpt>
        <trkpt lat="29.738453" lon="103.54723"><ele>415.59262</ele><time>2025-12-14T00:17:34.000Z</time></trkpt>
        <trkpt lat="29.738384" lon="103.547237"><ele>415.4827</ele><time>2025-12-14T00:17:35.000Z</time></trkpt>
        <trkpt lat="29.738316" lon="103.547243"><ele>415.44986</ele><time>2025-12-14T00:17:36.000Z</time></trkpt>
        <trkpt lat="29.738251" lon="103.547251"><ele>415.50198</ele><time>2025-12-14T00:17:37.000Z</time></trkpt>
        <trkpt lat="29.738183" lon="103.547261"><ele>415.6233</ele><time>2025-12-14T00:17:38.000Z</time></trkpt>
        <trkpt lat="29.738116" lon="103.547273"><ele>415.94415</ele><time>2025-12-14T00:17:39.000Z</time></trkpt>
        <trkpt lat="29.738043" lon="103.547284"><ele>415.93506</ele><time>2025-12-14T00:17:40.000Z</time></trkpt>
        <trkpt lat="29.737968" lon="103.547296"><ele>416.10376</ele><time>2025-12-14T00:17:41.000Z</time></trkpt>
        <trkpt lat="29.737888" lon="103.547309"><ele>416.12546</ele><time>2025-12-14T00:17:42.000Z</time></trkpt>
        <trkpt lat="29.737806" lon="103.547321"><ele>416.3234</ele><time>2025-12-14T00:17:43.000Z</time></trkpt>
        <trkpt lat="29.737722" lon="103.547335"><ele>416.55383</ele><time>2025-12-14T00:17:44.000Z</time></trkpt>
        <trkpt lat="29.73764" lon="103.547352"><ele>416.6879</ele><time>2025-12-14T00:17:45.000Z</time></trkpt>
        <trkpt lat="29.73756" lon="103.547368"><ele>416.43082</ele><time>2025-12-14T00:17:46.000Z</time></trkpt>
        <trkpt lat="29.737473" lon="103.547396"><ele>416.48593</ele><time>2025-12-14T00:17:47.000Z</time></trkpt>
        <trkpt lat="29.737384" lon="103.547426"><ele>416.37244</ele><time>2025-12-14T00:17:48.000Z</time></trkpt>
        <trkpt lat="29.737292" lon="103.547455"><ele>416.51096</ele><time>2025-12-14T00:17:49.000Z</time></trkpt>
        <trkpt lat="29.737197" lon="103.547482"><ele>416.3357</ele><time>2025-12-14T00:17:50.000Z</time></trkpt>
        <trkpt lat="29.7371" lon="103.547513"><ele>416.12738</ele><time>2025-12-14T00:17:51.000Z</time></trkpt>
        <trkpt lat="29.737005" lon="103.547551"><ele>415.31738</ele><time>2025-12-14T00:17:52.000Z</time></trkpt>
        <trkpt lat="29.736908" lon="103.54758"><ele>415.48053</ele><time>2025-12-14T00:17:53.000Z</time></trkpt>
        <trkpt lat="29.736815" lon="103.547614"><ele>415.29803</ele><time>2025-12-14T00:17:54.000Z</time></trkpt>
        <trkpt lat="29.736725" lon="103.547648"><ele>415.4886</ele><time>2025-12-14T00:17:55.000Z</time></trkpt>
        <trkpt lat="29.736643" lon="103.547681"><ele>415.37396</ele><time>2025-12-14T00:17:56.000Z</time></trkpt>
        <trkpt lat="29.736572" lon="103.547722"><ele>414.90924</ele><time>2025-12-14T00:17:57.000Z</time></trkpt>
        <trkpt lat="29.736498" lon="103.547768"><ele>415.1558</ele><time>2025-12-14T00:17:58.000Z</time></trkpt>
        <trkpt lat="29.736423" lon="103.547815"><ele>414.76053</ele><time>2025-12-14T00:17:59.000Z</time></trkpt>
        <trkpt lat="29.736355" lon="103.547859"><ele>414.6981</ele><time>2025-12-14T00:18:00.000Z</time></trkpt>
        <trkpt lat="29.736286" lon="103.547905"><ele>414.4558</ele><time>2025-12-14T00:18:01.000Z</time></trkpt>
        <trkpt lat="29.736215" lon="103.547955"><ele>414.22906</ele><time>2025-12-14T00:18:02.000Z</time></trkpt>
        <trkpt lat="29.736142" lon="103.548005"><ele>414.29037</ele><time>2025-12-14T00:18:03.000Z</time></trkpt>
        <trkpt lat="29.736069" lon="103.548056"><ele>414.31738</ele><time>2025-12-14T00:18:04.000Z</time></trkpt>
        <trkpt lat="29.735996" lon="103.548112"><ele>414.18726</ele><time>2025-12-14T00:18:05.000Z</time></trkpt>
        <trkpt lat="29.735919" lon="103.548165"><ele>414.44775</ele><time>2025-12-14T00:18:06.000Z</time></trkpt>
        <trkpt lat="29.73584" lon="103.548219"><ele>414.36145</ele><time>2025-12-14T00:18:07.000Z</time></trkpt>
        <trkpt lat="29.735764" lon="103.54827"><ele>413.93643</ele><time>2025-12-14T00:18:08.000Z</time></trkpt>
        <trkpt lat="29.735686" lon="103.548317"><ele>413.2311</ele><time>2025-12-14T00:18:09.000Z</time></trkpt>
        <trkpt lat="29.73561" lon="103.548375"><ele>413.4876</ele><time>2025-12-14T00:18:10.000Z</time></trkpt>
        <trkpt lat="29.735532" lon="103.548438"><ele>413.57718</ele><time>2025-12-14T00:18:11.000Z</time></trkpt>
        <trkpt lat="29.735458" lon="103.548501"><ele>415.45612</ele><time>2025-12-14T00:18:12.000Z</time></trkpt>
        <trkpt lat="29.735371" lon="103.548558"><ele>414.4058</ele><time>2025-12-14T00:18:13.000Z</time></trkpt>
        <trkpt lat="29.735288" lon="103.54862"><ele>414.29675</ele><time>2025-12-14T00:18:14.000Z</time></trkpt>
        <trkpt lat="29.735208" lon="103.548679"><ele>414.10938</ele><time>2025-12-14T00:18:15.000Z</time></trkpt>
        <trkpt lat="29.735127" lon="103.548735"><ele>413.95743</ele><time>2025-12-14T00:18:16.000Z</time></trkpt>
        <trkpt lat="29.735052" lon="103.548792"><ele>414.17288</ele><time>2025-12-14T00:18:17.000Z</time></trkpt>
        <trkpt lat="29.734978" lon="103.548846"><ele>413.97806</ele><time>2025-12-14T00:18:18.000Z</time></trkpt>
        <trkpt lat="29.734906" lon="103.548895"><ele>413.58002</ele><time>2025-12-14T00:18:19.000Z</time></trkpt>
        <trkpt lat="29.734838" lon="103.548946"><ele>413.48163</ele><time>2025-12-14T00:18:20.000Z</time></trkpt>
        <trkpt lat="29.734773" lon="103.548993"><ele>413.46753</ele><time>2025-12-14T00:18:21.000Z</time></trkpt>
        <trkpt lat="29.734709" lon="103.549038"><ele>413.71555</ele><time>2025-12-14T00:18:22.000Z</time></trkpt>
        <trkpt lat="29.734651" lon="103.549076"><ele>413.3532</ele><time>2025-12-14T00:18:23.000Z</time></trkpt>
        <trkpt lat="29.734607" lon="103.54911"><ele>412.97955</ele><time>2025-12-14T00:18:24.000Z</time></trkpt>
        <trkpt lat="29.734559" lon="103.549143"><ele>413.05692</ele><time>2025-12-14T00:18:25.000Z</time></trkpt>
        <trkpt lat="29.734507" lon="103.549177"><ele>413.37723</ele><time>2025-12-14T00:18:26.000Z</time></trkpt>
        <trkpt lat="29.73445" lon="103.549219"><ele>413.59952</ele><time>2025-12-14T00:18:27.000Z</time></trkpt>
        <trkpt lat="29.734388" lon="103.549261"><ele>413.70575</ele><time>2025-12-14T00:18:28.000Z</time></trkpt>
        <trkpt lat="29.734324" lon="103.549307"><ele>413.59497</ele><time>2025-12-14T00:18:29.000Z</time></trkpt>
        <trkpt lat="29.734257" lon="103.549355"><ele>413.89102</ele><time>2025-12-14T00:18:30.000Z</time></trkpt>
        <trkpt lat="29.73419" lon="103.549403"><ele>413.90982</ele><time>2025-12-14T00:18:31.000Z</time></trkpt>
        <trkpt lat="29.734125" lon="103.549448"><ele>413.98367</ele><time>2025-12-14T00:18:32.000Z</time></trkpt>
        <trkpt lat="29.734065" lon="103.549494"><ele>413.9751</ele><time>2025-12-14T00:18:33.000Z</time></trkpt>
        <trkpt lat="29.734002" lon="103.549539"><ele>414.03973</ele><time>2025-12-14T00:18:34.000Z</time></trkpt>
        <trkpt lat="29.733943" lon="103.549579"><ele>413.6169</ele><time>2025-12-14T00:18:35.000Z</time></trkpt>
        <trkpt lat="29.733889" lon="103.549618"><ele>413.35272</ele><time>2025-12-14T00:18:36.000Z</time></trkpt>
        <trkpt lat="29.733837" lon="103.549657"><ele>413.10144</ele><time>2025-12-14T00:18:37.000Z</time></trkpt>
        <trkpt lat="29.733781" lon="103.549692"><ele>413.2344</ele><time>2025-12-14T00:18:38.000Z</time></trkpt>
        <trkpt lat="29.733727" lon="103.549727"><ele>413.10843</ele><time>2025-12-14T00:18:39.000Z</time></trkpt>
        <trkpt lat="29.733672" lon="103.549762"><ele>413.00565</ele><time>2025-12-14T00:18:40.000Z</time></trkpt>
        <trkpt lat="29.733618" lon="103.549797"><ele>412.81412</ele><time>2025-12-14T00:18:41.000Z</time></trkpt>
        <trkpt lat="29.733564" lon="103.549836"><ele>412.9107</ele><time>2025-12-14T00:18:42.000Z</time></trkpt>
        <trkpt lat="29.733507" lon="103.549882"><ele>413.03232</ele><time>2025-12-14T00:18:43.000Z</time></trkpt>
        <trkpt lat="29.733452" lon="103.549925"><ele>412.9928</ele><time>2025-12-14T00:18:44.000Z</time></trkpt>
        <trkpt lat="29.733397" lon="103.549969"><ele>412.8754</ele><time>2025-12-14T00:18:45.000Z</time></trkpt>
        <trkpt lat="29.733341" lon="103.550014"><ele>412.91635</ele><time>2025-12-14T00:18:46.000Z</time></trkpt>
        <trkpt lat="29.733291" lon="103.550046"><ele>412.60764</ele><time>2025-12-14T00:18:47.000Z</time></trkpt>
        <trkpt lat="29.733243" lon="103.55008"><ele>412.5076</ele><time>2025-12-14T00:18:48.000Z</time></trkpt>
        <trkpt lat="29.733046" lon="103.550033"><ele>411.8614</ele><time>2025-12-14T00:18:52.000Z</time></trkpt>
        <trkpt lat="29.733006" lon="103.549988"><ele>411.9029</ele><time>2025-12-14T00:18:56.000Z</time></trkpt>
        <trkpt lat="29.732954" lon="103.549954"><ele>412.9461</ele><time>2025-12-14T00:18:59.000Z</time></trkpt>
        <trkpt lat="29.732886" lon="103.549919"><ele>413.62177</ele><time>2025-12-14T00:19:01.000Z</time></trkpt>
        <trkpt lat="29.732858" lon="103.549876"><ele>413.47586</ele><time>2025-12-14T00:19:03.000Z</time></trkpt>
        <trkpt lat="29.732787" lon="103.549869"><ele>413.337</ele><time>2025-12-14T00:19:06.000Z</time></trkpt>
        <trkpt lat="29.732703" lon="103.549873"><ele>413.24017</ele><time>2025-12-14T00:19:08.000Z</time></trkpt>
        <trkpt lat="29.732636" lon="103.549927"><ele>413.3198</ele><time>2025-12-14T00:19:09.000Z</time></trkpt>
        <trkpt lat="29.732593" lon="103.549958"><ele>413.17032</ele><time>2025-12-14T00:19:11.000Z</time></trkpt>
        <trkpt lat="29.732653" lon="103.550187"><ele>412.7224</ele><time>2025-12-14T00:19:15.000Z</time></trkpt>
        <trkpt lat="29.732645" lon="103.550126"><ele>413.10846</ele><time>2025-12-14T00:19:18.000Z</time></trkpt>
        <trkpt lat="29.732611" lon="103.550089"><ele>413.93686</ele><time>2025-12-14T00:19:29.000Z</time></trkpt>
        <trkpt lat="29.732567" lon="103.550051"><ele>413.7307</ele><time>2025-12-14T00:19:31.000Z</time></trkpt>
        <trkpt lat="29.732556" lon="103.549974"><ele>413.86752</ele><time>2025-12-14T00:19:33.000Z</time></trkpt>
        <trkpt lat="29.732549" lon="103.549921"><ele>414.53217</ele><time>2025-12-14T00:19:35.000Z</time></trkpt>
        <trkpt lat="29.732562" lon="103.549867"><ele>414.17984</ele><time>2025-12-14T00:19:37.000Z</time></trkpt>
        <trkpt lat="29.732577" lon="103.549812"><ele>414.36267</ele><time>2025-12-14T00:19:41.000Z</time></trkpt>
        <trkpt lat="29.732601" lon="103.549755"><ele>413.73746</ele><time>2025-12-14T00:19:49.000Z</time></trkpt>
        <trkpt lat="29.732628" lon="103.549676"><ele>413.36127</ele><time>2025-12-14T00:19:55.000Z</time></trkpt>
        <trkpt lat="29.732657" lon="103.549618"><ele>413.7623</ele><time>2025-12-14T00:19:57.000Z</time></trkpt>
        <trkpt lat="29.732662" lon="103.549563"><ele>413.5906</ele><time>2025-12-14T00:20:00.000Z</time></trkpt>
        <trkpt lat="29.732638" lon="103.549518"><ele>413.67523</ele><time>2025-12-14T00:20:03.000Z</time></trkpt>
        <trkpt lat="29.732595" lon="103.549451"><ele>414.1998</ele><time>2025-12-14T00:20:07.000Z</time></trkpt>
        <trkpt lat="29.732565" lon="103.54939"><ele>414.97723</ele><time>2025-12-14T00:20:10.000Z</time></trkpt>
        <trkpt lat="29.732534" lon="103.54935"><ele>414.16394</ele><time>2025-12-14T00:20:16.000Z</time></trkpt>
        <trkpt lat="29.732505" lon="103.549307"><ele>414.67764</ele><time>2025-12-14T00:20:21.000Z</time></trkpt>
        <trkpt lat="29.73245" lon="103.549281"><ele>415.00772</ele><time>2025-12-14T00:20:26.000Z</time></trkpt>
      </trkseg>
  </trk>
</gpx>